[[{"header":{"parameterUnit":"m.s-1","parameterCategory":1,"la1":30.6,"la2":28.766,"lo1":-90.7593,"lo2":-88.6598,"dy":0.0162,"dx":0.0183,"nx":116,"ny":114,"refTime":"2023-07-29T06:00:00:Z","depth":0,"parameterNumber":2,"parameterNumberName":"U-component_of_WINDS"},"data":[0.0,0.0,0.0,0.0,0.0,0.0,0.0,0.0,0.0,0.0,0.0,0.0,0.0,0.0,0.0,0.0,0.0,0.0,0.0,0.0,0.0,0.0,0.0,0.0,0.0,0.0,0.0,0.0,0.0,0.0,0.0,0.0,0.0,0.0,0.0,0.0,0.0,0.0,0.0,0.0,0.0,0.0,0.0,0.0,0.0,0.0,0.0,0.0,0.0,0.0,0.0,0.0,0.0,0.0,0.0,0.0,0.0,0.0,0.0,0.0,0.0,0.0,0.0,0.0,0.0,0.0,0.0,0.0,0.0,0.0,0.0,0.0,0.0,0.0,0.0,0.0,0.0,0.0,0.0,0.0,0.0,0.0,0.0,0.0,0.0,0.0,0.0,0.0,0.0,0.0,0.0,0.0,0.0,0.0,0.0,0.0,0.0,0.0,0.0,0.0,0.0,0.0,0.0,0.0,0.0,0.0,0.0,0.0,0.0,0.0,0.0,0.0,0.0,0.0,0.0,0.0,0.0,0.0,0.0,0.0,0.0,0.0,0.0,0.0,0.0,0.0,0.0,0.0,0.0,0.0,0.0,0.0,0.0,0.0,0.0,0.0,0.0,0.0,0.0,0.0,0.0,0.0,0.0,0.0,0.0,0.0,0.0,0.0,0.0,0.0,0.0,0.0,0.0,0.0,0.0,0.0,0.0,0.0,0.0,0.0,0.0,0.0,0.0,0.0,0.0,0.0,0.0,0.0,0.0,0.0,0.0,0.0,0.0,0.0,0.0,0.0,0.0,0.0,0.0,0.0,0.0,0.0,0.0,0.0,0.0,0.0,0.0,0.0,0.0,0.0,0.0,0.0,0.0,0.0,0.0,0.0,0.0,0.0,0.0,0.0,0.0,0.0,0.0,0.0,0.0,0.0,0.0,0.0,0.0,0.0,0.0,0.0,0.0,0.0,0.0,0.0,0.0,0.0,0.0,0.0,0.0,0.0,0.0,0.0,0.0,0.0,0.0,0.0,0.0,0.0,0.0,0.0,0.0,0.0,0.0,0.0,0.0,0.0,0.0,0.0,0.0,0.0,0.0,0.0,0.0,0.0,0.0,0.0,0.0,0.0,0.0,0.0,0.0,0.0,0.0,0.0,0.0,0.0,0.0,0.0,0.0,0.0,0.0,0.0,0.0,0.0,0.0,0.0,0.0,0.0,0.0,0.0,0.0,0.0,0.0,0.0,0.0,0.0,0.0,0.0,0.0,0.0,0.0,0.0,0.0,0.0,0.0,0.0,0.0,0.0,0.0,0.0,0.0,0.0,0.0,0.0,0.0,0.0,0.0,0.0,0.0,0.0,0.0,0.0,0.0,0.0,0.0,0.0,0.0,0.0,0.0,0.0,0.0,0.0,0.0,0.0,0.0,0.0,0.0,0.0,0.0,0.0,0.0,0.0,0.0,0.0,0.0,0.0,0.0,0.0,0.0,0.0,0.0,0.0,0.0,0.0,0.0,0.0,0.0,0.0,0.0,0.0,0.0,0.0,0.0,0.0,0.0,0.0,0.0,0.0,0.0,0.0,0.0,0.0,0.0,0.0,0.0,0.0,0.0,0.0,0.0,0.0,0.0,0.0,0.0,0.0,0.0,0.0,0.0,0.0,0.0,0.0,0.0,0.0,0.0,0.0,0.0,0.0,0.0,0.0,0.0,0.0,0.0,0.0,0.0,0.0,0.0,0.0,0.0,0.0,0.0,0.0,0.0,0.0,0.0,0.0,0.0,0.0,0.0,0.0,0.0,0.0,0.0,0.0,0.0,0.0,0.0,0.0,0.0,0.0,0.0,0.0,0.0,0.0,0.0,0.0,0.0,0.0,0.0,0.0,0.0,0.0,0.0,0.0,0.0,0.0,0.0,0.0,0.0,0.0,0.0,0.0,0.0,0.0,0.0,0.0,0.0,0.0,0.0,0.0,0.0,0.0,0.0,0.0,0.0,0.0,0.0,0.0,0.0,0.0,0.0,0.0,0.0,0.0,0.0,0.0,0.0,0.0,0.0,0.0,0.0,0.0,0.0,0.0,0.0,0.0,0.0,0.0,0.0,0.0,0.0,0.0,0.0,0.0,0.0,0.0,0.0,0.0,0.0,0.0,0.0,0.0,0.0,0.0,0.0,0.0,0.0,0.0,0.0,0.0,0.0,0.0,0.0,0.0,0.0,0.0,0.0,0.0,0.0,0.0,0.0,0.0,0.0,0.0,0.0,0.0,0.0,0.0,0.0,0.0,0.0,0.0,0.0,0.0,0.0,0.0,0.0,0.0,0.0,0.0,0.0,0.0,0.0,0.0,0.0,0.0,0.0,0.0,0.0,0.0,0.0,0.0,0.0,0.0,0.0,0.0,0.0,0.0,0.0,0.0,0.0,0.0,0.0,0.0,0.0,0.0,0.0,0.0,0.0,0.0,0.0,0.0,0.0,0.0,0.0,0.0,0.0,0.0,0.0,0.0,0.0,0.0,0.0,0.0,0.0,0.0,0.0,0.0,0.0,0.0,0.0,0.0,0.0,0.0,0.0,0.0,0.0,0.0,0.0,0.0,0.0,0.0,0.0,0.0,0.0,0.0,0.0,0.0,0.0,0.0,0.0,0.0,0.0,0.0,0.0,0.0,0.0,0.0,0.0,0.0,0.0,0.0,0.0,0.0,0.0,0.0,0.0,0.0,0.0,0.0,0.0,0.0,0.0,0.0,0.0,0.0,0.0,0.0,0.0,0.0,0.0,0.0,0.0,0.0,0.0,0.0,0.0,0.0,0.0,0.0,0.0,0.0,0.0,0.0,0.0,0.0,0.0,0.0,0.0,0.0,0.0,0.0,0.0,0.0,0.0,0.0,0.0,0.0,0.0,0.0,0.0,0.0,0.0,0.0,0.0,0.0,0.0,0.0,0.0,0.0,0.0,0.0,0.0,0.0,0.0,0.0,0.0,0.0,0.0,0.0,0.0,0.0,0.0,0.0,0.0,0.0,0.0,0.0,0.0,0.0,0.0,0.0,0.0,0.0,0.0,0.0,0.0,0.0,0.0,0.0,0.0,0.0,0.0,0.0,0.0,0.0,0.0,0.0,0.0,0.0,0.0,0.0,0.0,0.0,0.0,0.0,0.0,0.0,0.0,0.0,0.0,0.0,0.0,0.0,0.0,0.0,0.0,0.0,0.0,0.0,0.0,0.0,0.0,0.0,0.0,0.0,0.0,0.0,0.0,0.0,0.0,0.0,0.0,0.0,0.0,0.0,0.0,0.0,0.0,0.0,0.0,0.0,0.0,0.0,0.0,0.0,0.0,0.0,0.0,0.0,0.0,0.0,0.0,0.0,0.0,0.0,0.0,0.0,0.0,0.0,0.0,0.0,0.0,0.0,0.0,0.0,0.0,0.0,0.0,0.0,0.0,0.0,0.0,0.0,0.0,0.0,0.0,0.0,0.0,0.0,0.0,0.0,0.0,0.0,0.0,0.0,0.0,0.0,0.0,0.0,0.0,0.0,0.0,0.0,0.0,0.0,0.0,0.0,0.0,0.0,0.0,0.0,0.0,0.0,0.0,0.0,0.0,0.0,0.0,0.0,0.0,0.0,0.0,0.0,0.0,0.0,0.0,0.0,0.0,0.0,0.0,0.0,0.0,0.0,0.0,0.0,0.0,0.0,0.0,0.0,0.0,0.0,0.0,0.0,0.0,0.0,0.0,0.0,0.0,0.0,0.0,0.0,0.0,0.0,0.0,0.0,0.0,0.0,0.0,0.0,0.0,0.0,0.0,0.0,0.0,0.0,0.0,0.0,0.0,0.0,0.0,0.0,0.0,0.0,0.0,0.0,0.0,0.0,0.0,0.0,0.0,0.0,0.0,0.0,0.0,0.0,0.0,0.0,0.0,0.0,0.0,0.0,0.0,0.0,0.0,0.0,0.0,0.0,0.0,0.0,0.0,0.0,0.0,0.0,0.0,0.0,0.0,0.0,0.0,0.0,0.0,0.0,0.0,0.0,0.0,0.0,0.0,0.0,0.0,0.0,0.0,0.0,0.0,0.0,0.0,0.0,0.0,0.0,0.0,0.0,0.0,0.0,0.0,0.0,0.0,0.0,0.0,0.0,0.0,0.0,0.0,0.0,0.0,0.0,0.0,0.0,0.0,0.0,0.0,0.0,0.0,0.0,0.0,0.0,0.0,0.0,0.0,0.0,0.0,0.0,0.0,0.0,0.0,0.0,0.0,0.0,0.0,0.0,0.0,0.0,0.0,0.0,0.0,0.0,0.0,0.0,0.0,0.0,0.0,0.0,0.0,0.0,0.0,0.0,0.0,0.0,0.0,0.0,0.0,0.0,0.0,0.0,0.0,0.0,0.0,0.0,0.0,0.0,0.0,0.0,0.0,0.0,0.0,0.0,0.0,0.0,0.0,0.0,0.0,0.0,0.0,0.0,0.0,0.0,0.0,0.0,0.0,0.0,0.0,0.0,0.0,0.0,0.0,0.0,0.0,0.0,0.0,0.0,0.0,0.0,0.0,0.0,0.0,0.0,0.0,0.0,0.0,0.0,0.0,0.0,0.0,0.0,0.0,0.0,0.0,0.0,0.0,0.0,0.0,0.0,0.0,0.0,0.0,0.0,0.0,0.0,0.0,0.0,0.0,0.0,0.0,0.0,0.0,0.0,0.0,0.0,0.0,0.0,0.0,0.0,0.0,0.0,0.0,0.0,0.0,0.0,0.0,0.0,0.0,0.0,0.0,0.0,0.0,0.0,0.0,0.0,0.0,0.0,0.0,0.0,0.0,0.0,0.0,0.0,0.0,0.0,0.0,0.0,0.0,0.0,0.0,0.0,0.0,0.0,0.0,0.0,0.0,0.0,0.0,0.0,0.0,0.0,0.0,0.0,0.0,0.0,0.0,0.0,0.0,0.0,0.0,0.0,0.0,0.0,0.0,0.0,0.0,0.0,0.0,0.0,0.0,0.0,0.0,0.0,0.0,0.0,0.0,0.0,0.0,0.0,0.0,0.0,0.0,0.0,0.0,0.0,0.0,0.0,0.0,0.0,0.0,0.0,0.0,0.0,0.0,0.0,0.0,0.0,0.0,0.0,0.0,0.0,0.0,0.0,0.0,0.0,0.0,0.0,0.0,0.0,0.0,0.0,0.0,0.0,0.0,0.0,0.0,0.0,0.0,0.0,0.0,0.0,0.0,0.0,0.0,0.0,0.0,0.0,0.0,0.0,0.0,0.0,0.0,0.0,0.0,0.0,0.0,0.0,0.0,0.0,0.0,0.0,0.0,0.0,0.0,0.0,0.0,0.0,0.0,0.0,0.0,0.0,0.0,0.0,0.0,0.0,0.0,0.0,0.0,0.0,0.0,0.0,0.0,0.0,0.0,0.0,0.0,0.0,0.0,0.0,0.0,0.0,0.0,0.0,0.0,0.0,0.0,0.0,0.0,0.0,0.0,0.0,0.0,0.0,0.0,0.0,0.0,0.0,0.0,0.0,0.0,0.0,0.0,0.0,0.0,0.0,0.0,0.0,0.0,0.0,0.0,0.0,0.0,0.0,0.0,0.0,0.0,0.0,0.0,0.0,0.0,0.0,0.0,0.0,0.0,0.0,0.0,0.0,0.0,0.0,0.0,0.0,0.0,0.0,0.0,0.0,0.0,0.0,0.0,0.0,0.0,0.0,0.0,0.0,0.0,0.0,0.0,0.0,0.0,0.0,0.0,0.0,0.0,0.0,0.0,0.0,0.0,0.0,0.0,0.0,0.0,0.0,0.0,0.0,0.0,0.0,0.0,0.0,0.0,0.0,0.0,0.0,0.0,0.0,0.0,0.0,0.0,0.0,0.0,0.0,0.0,0.0,0.0,0.0,0.0,0.0,0.0,0.0,0.0,0.0,0.0,0.0,0.0,0.0,0.0,0.0,0.0,0.0,0.0,0.0,0.0,0.0,0.0,0.0,0.0,0.0,0.0,0.0,0.0,0.0,0.0,0.0,0.0,0.0,0.0,0.0,0.0,0.0,0.0,0.0,0.0,0.0,0.0,0.0,0.0,0.0,0.0,0.0,0.0,0.0,0.0,0.0,0.0,0.0,0.0,0.0,0.0,0.0,0.0,0.0,-1.3688,0.0,0.0,0.0,0.0,0.0,0.0,0.0,0.0,0.0,0.0,0.0,0.0,0.0,0.0,0.0,0.0,0.0,0.0,0.0,0.0,0.0,0.0,0.0,0.0,0.0,0.0,0.0,0.0,0.0,0.0,0.0,0.0,0.0,0.0,0.0,0.0,0.0,0.0,0.0,0.0,0.0,0.0,0.0,0.0,0.0,0.0,0.0,0.0,0.0,0.0,0.0,0.0,0.0,0.0,0.0,0.0,0.0,0.0,0.0,0.0,0.0,0.0,0.0,0.0,0.0,0.0,0.0,0.0,0.0,0.0,0.0,0.0,0.0,0.0,0.0,0.0,0.0,0.0,0.0,0.0,0.0,0.0,0.0,0.0,0.0,0.0,0.0,0.0,0.0,0.0,0.0,0.0,0.0,0.0,0.0,0.0,0.0,0.0,0.0,0.0,0.0,0.0,0.0,0.0,0.0,0.0,0.0,0.0,0.0,0.0,0.0,0.0,0.0,0.0,0.0,0.0,-1.3776,0.0,0.0,0.0,0.0,0.0,0.0,0.0,0.0,0.0,0.0,0.0,0.0,0.0,0.0,0.0,0.0,0.0,0.0,0.0,0.0,0.0,0.0,0.0,0.0,0.0,0.0,0.0,0.0,0.0,0.0,0.0,0.0,0.0,0.0,0.0,0.0,0.0,0.0,0.0,0.0,0.0,0.0,0.0,0.0,0.0,0.0,0.0,0.0,0.0,0.0,0.0,0.0,0.0,0.0,0.0,0.0,0.0,0.0,0.0,0.0,0.0,0.0,0.0,0.0,0.0,0.0,0.0,0.0,0.0,0.0,0.0,0.0,0.0,0.0,0.0,0.0,0.0,0.0,0.0,0.0,0.0,0.0,0.0,0.0,0.0,0.0,0.0,0.0,0.0,0.0,0.0,0.0,0.0,0.0,0.0,0.0,0.0,0.0,0.0,0.0,0.0,0.0,0.0,0.0,0.0,0.0,0.0,0.0,-1.4569,-1.4569,-1.4569,-1.4569,-1.4569,-1.4537,-1.4021,-1.3767,-1.3767,-1.3767,0.0,0.0,0.0,0.0,0.0,0.0,0.0,0.0,0.0,0.0,0.0,0.0,0.0,0.0,0.0,0.0,0.0,0.0,0.0,0.0,0.0,0.0,0.0,0.0,0.0,0.0,0.0,0.0,0.0,0.0,0.0,0.0,0.0,0.0,0.0,0.0,0.0,0.0,-1.0368,-1.1111,-1.0962,-1.0293,-1.2526,0.0,0.0,0.0,0.0,0.0,0.0,0.0,0.0,0.0,0.0,0.0,0.0,0.0,0.0,0.0,0.0,0.0,0.0,0.0,0.0,0.0,0.0,0.0,0.0,0.0,0.0,0.0,0.0,0.0,0.0,0.0,0.0,0.0,0.0,0.0,0.0,0.0,0.0,0.0,0.0,0.0,0.0,0.0,-1.4205,-1.3109,0.0,0.0,0.0,0.0,0.0,0.0,0.0,0.0,0.0,0.0,0.0,0.0,0.0,-1.4204,-1.4426,-1.4474,-1.4497,-1.4569,-1.4569,-1.4569,-1.4569,-1.4569,-1.4569,-1.4561,-1.4546,0.0,-1.4498,-1.4498,0.0,0.0,0.0,0.0,0.0,0.0,0.0,0.0,0.0,0.0,0.0,0.0,0.0,0.0,0.0,0.0,0.0,0.0,0.0,0.0,0.0,0.0,0.0,0.0,0.0,0.0,0.0,0.0,0.0,0.0,0.0,0.0,0.0,0.0,0.0,0.0,-1.2452,-1.1929,-1.126,-1.1632,-1.1335,-1.0588,-1.1706,-1.215,-1.215,-1.215,0.0,0.0,0.0,0.0,0.0,0.0,0.0,0.0,0.0,0.0,0.0,0.0,0.0,0.0,0.0,0.0,0.0,0.0,0.0,0.0,0.0,0.0,0.0,0.0,0.0,0.0,0.0,0.0,0.0,0.0,0.0,0.0,0.0,0.0,0.0,0.0,0.0,0.0,0.0,-1.4883,-1.4734,-1.4172,-1.4449,-1.4506,0.0,0.0,0.0,0.0,0.0,0.0,0.0,0.0,0.0,-1.2291,-1.2432,-1.2732,-1.3098,-1.3178,-1.3324,-1.3622,-1.3985,-1.4129,-1.4122,-1.4489,-1.4569,-1.4569,-1.4569,-1.4569,-1.4569,-1.4569,-1.4569,-1.4497,0.0,0.0,0.0,0.0,-1.4641,-1.4848,0.0,0.0,0.0,0.0,0.0,0.0,0.0,0.0,0.0,0.0,0.0,0.0,0.0,0.0,0.0,-1.1055,0.0,0.0,0.0,0.0,0.0,0.0,0.0,0.0,0.0,0.0,0.0,0.0,-1.2003,-1.1774,-1.1403,-1.1403,-1.1031,-1.0507,-1.0507,-1.0807,-1.1409,-1.1409,-1.1855,0.0,0.0,0.0,0.0,0.0,0.0,0.0,0.0,0.0,0.0,0.0,0.0,0.0,0.0,0.0,0.0,0.0,0.0,0.0,0.0,0.0,0.0,0.0,0.0,0.0,0.0,0.0,0.0,0.0,0.0,0.0,0.0,0.0,0.0,0.0,0.0,0.0,0.0,-1.4749,-1.484,-1.484,-1.4697,-1.4482,0.0,0.0,0.0,0.0,0.0,0.0,-1.2398,-1.2254,-1.2005,-1.1544,-1.1544,-1.1923,-1.2668,-1.2668,-1.2974,-1.3652,-1.4088,-1.4309,-1.4309,-1.4684,-1.4903,-1.4903,-1.4903,-1.4903,-1.4895,-1.4712,-1.4569,-1.4569,-1.4569,-1.4497,-1.4497,-1.4497,-1.4497,-1.4418,0.0,0.0,0.0,0.0,0.0,0.0,0.0,0.0,0.0,0.0,0.0,0.0,0.0,0.0,-1.1085,-1.2314,-1.2467,-1.2767,0.0,0.0,0.0,0.0,0.0,0.0,0.0,0.0,0.0,-1.1186,-1.1186,-1.0357,-0.8851,-0.8851,-0.8851,-0.8851,-0.8851,-1.0051,-1.2224,-1.2224,-1.2673,-1.3419,0.0,0.0,0.0,0.0,0.0,0.0,0.0,0.0,0.0,0.0,0.0,0.0,0.0,0.0,0.0,0.0,0.0,0.0,0.0,0.0,0.0,0.0,0.0,0.0,0.0,0.0,0.0,0.0,0.0,0.0,0.0,0.0,0.0,0.0,0.0,0.0,0.0,0.0,0.0,-1.3905,-1.3324,0.0,0.0,0.0,0.0,-1.1329,-1.2552,-1.2795,-1.1587,-1.2296,-1.2758,-1.2758,-1.2679,-1.3297,-1.4532,-1.4532,-1.4926,-1.5549,-1.5626,-1.5626,-1.5626,-1.5626,-1.5626,-1.5626,-1.5626,-1.5626,-1.557,-1.4911,-1.4497,-1.4425,-1.4425,-1.4281,-1.4129,-1.4353,-1.4281,-1.4129,0.0,0.0,0.0,0.0,0.0,0.0,0.0,0.0,0.0,0.0,0.0,0.0,0.0,-1.096,-1.1567,-1.2445,-1.2906,-1.325,-1.3477,0.0,0.0,0.0,0.0,0.0,0.0,0.0,-1.1409,-1.0293,-1.0293,-1.0067,-0.9463,-0.9463,-0.916,-0.8703,-0.8703,-0.9458,-1.0738,-1.0207,-1.0432,-1.1186,-1.1186,-1.2003,0.0,0.0,0.0,0.0,0.0,0.0,0.0,0.0,0.0,0.0,0.0,0.0,0.0,0.0,0.0,0.0,0.0,0.0,0.0,0.0,0.0,0.0,0.0,0.0,0.0,0.0,0.0,0.0,0.0,0.0,0.0,0.0,0.0,0.0,0.0,0.0,0.0,-1.4665,-1.4096,0.0,-1.3237,-1.295,-1.2492,-1.1714,-1.2114,-1.217,-1.1781,-1.2031,-1.224,-1.224,-1.224,-1.2473,-1.2863,-1.2863,-1.3022,-1.3252,-1.3653,-1.4045,-1.4513,-1.4902,-1.5281,-1.5674,-1.5674,-1.5674,-1.5658,-1.5411,-1.5308,-1.5233,-1.5233,-1.5158,-1.5158,-1.5233,-1.5158,-1.5158,0.0,0.0,0.0,0.0,0.0,0.0,0.0,0.0,0.0,0.0,0.0,-1.0192,-1.0843,-1.1502,-1.2145,-1.2797,-1.3243,-1.3492,-1.3492,0.0,0.0,0.0,0.0,0.0,0.0,-1.1111,-1.0738,-0.9922,-0.9922,-0.9765,-0.9463,-0.9463,-0.9236,-0.8703,-0.8703,-0.9008,-0.9463,-0.8927,-0.9306,-1.0293,-1.0293,-1.1031,-1.2218,0.0,0.0,0.0,0.0,0.0,0.0,0.0,0.0,0.0,0.0,0.0,0.0,0.0,0.0,0.0,0.0,0.0,0.0,0.0,0.0,0.0,0.0,0.0,0.0,0.0,0.0,0.0,0.0,0.0,0.0,0.0,0.0,0.0,0.0,0.0,-1.4484,-1.5015,-1.4052,-1.3438,-1.3488,-1.2876,-1.232,-1.192,-1.2005,-1.2053,-1.2053,-1.2137,-1.2149,-1.2059,-1.2053,-1.2091,-1.2234,-1.2234,-1.2313,-1.2546,-1.3287,-1.3891,-1.4295,-1.5031,-1.5568,-1.5856,-1.5856,-1.5785,-1.569,-1.5801,-1.5856,-1.584,-1.5721,-1.5674,-1.5674,-1.5674,-1.5674,-1.5682,0.0,0.0,0.0,0.0,0.0,0.0,0.0,0.0,0.0,0.0,-1.0185,-1.0836,-1.1549,-1.2138,-1.2782,-1.344,-1.3492,-1.3492,-1.3492,-1.3492,0.0,0.0,0.0,0.0,-1.1111,-1.1111,-1.0663,-0.9846,-0.9846,-0.9463,-0.8703,-0.8703,-0.8703,-0.8703,-0.8703,-0.8703,-0.8703,-0.8703,-0.9604,-1.1037,-1.1037,-1.1174,-1.1459,0.0,0.0,0.0,0.0,0.0,0.0,0.0,0.0,0.0,0.0,0.0,0.0,0.0,0.0,0.0,0.0,0.0,0.0,0.0,0.0,0.0,0.0,0.0,0.0,0.0,0.0,0.0,0.0,0.0,0.0,0.0,0.0,0.0,-1.5682,-1.4591,-1.4052,-1.4599,-1.3035,-1.2178,-1.2743,-1.2265,-1.1944,-1.1932,-1.2168,-1.2312,-1.23,-1.2548,-1.2578,-1.2318,-1.233,-1.2537,-1.2902,-1.2909,-1.3227,-1.3937,-1.4816,-1.5219,-1.5307,-1.6203,-1.6498,-1.6254,-1.6246,-1.6039,-1.5753,-1.6087,-1.6222,-1.619,-1.584,-1.5705,-1.5705,-1.5705,-1.5705,-1.5713,0.0,0.0,0.0,0.0,0.0,0.0,0.0,0.0,0.0,0.0,-1.0185,-1.0836,-1.1549,-1.2138,-1.2782,-1.344,-1.3492,-1.3492,-1.3492,0.0,0.0,0.0,0.0,0.0,-1.0293,-1.0812,-1.0432,-0.9008,-0.9008,-0.8932,-0.8703,-0.8703,-0.8703,-0.8703,-0.8703,-0.8703,-0.8703,-0.8703,-0.8927,-0.9382,-0.9382,-0.9755,-1.0357,0.0,0.0,0.0,0.0,0.0,0.0,0.0,0.0,0.0,0.0,0.0,0.0,0.0,0.0,0.0,0.0,0.0,0.0,0.0,0.0,0.0,0.0,0.0,0.0,0.0,0.0,0.0,0.0,0.0,0.0,0.0,0.0,-1.5534,-1.504,-1.4662,-1.4438,-1.4358,-1.3419,-1.3022,-1.34,-1.2828,-1.2409,-1.2216,-1.227,-1.2234,-1.2041,-1.2276,-1.2391,-1.2318,-1.2699,-1.2948,-1.3047,-1.3237,-1.3423,-1.3592,-1.3843,-1.4232,-1.4751,-1.5531,-1.6139,-1.6566,-1.6836,-1.6929,-1.6826,-1.6659,-1.6587,-1.6579,-1.6484,-1.6444,-1.6444,-1.6444,-1.6444,-1.6444,0.0,0.0,0.0,0.0,0.0,0.0,0.0,0.0,0.0,0.0,-1.0419,-1.1203,-1.1586,-1.238,-1.3082,-1.3462,-1.3492,-1.3492,-1.3492,0.0,0.0,0.0,0.0,-1.1186,-0.9922,-1.0062,-0.9604,-0.8703,-0.8703,-0.8703,-0.8703,-0.8703,-0.8703,-0.8703,-0.8703,-0.8703,-0.8703,-0.8703,-0.8703,-0.8708,-0.8803,-0.9244,-0.9922,-1.0207,-1.1459,-1.3135,-1.3431,-1.42,-1.5102,-1.5316,0.0,0.0,0.0,0.0,0.0,0.0,0.0,0.0,0.0,0.0,0.0,0.0,0.0,0.0,0.0,0.0,0.0,0.0,0.0,0.0,0.0,0.0,0.0,0.0,-1.5606,-1.5187,-1.4728,-1.4436,-1.4177,-1.4035,-1.3393,-1.2996,-1.313,-1.2794,-1.2475,-1.2324,-1.2415,-1.2463,-1.2427,-1.2674,-1.2765,-1.2656,-1.2958,-1.3067,-1.2952,-1.3097,-1.3175,-1.3175,-1.3558,-1.3964,-1.432,-1.5144,-1.5846,-1.6503,-1.6659,-1.6922,-1.7048,-1.6984,-1.6961,0.0,0.0,0.0,0.0,0.0,-1.673,-1.673,0.0,0.0,0.0,0.0,0.0,0.0,0.0,0.0,0.0,0.0,0.0,-1.1622,-1.1622,-1.2716,-1.3492,-1.3492,-1.3492,-1.3492,0.0,0.0,0.0,-1.1186,-1.1111,-1.0738,-0.9916,-0.9236,-0.878,-0.8703,-0.8703,-0.8703,-0.8703,-0.8703,-0.8703,-0.8703,-0.8703,-0.8703,-0.8703,-0.8703,-0.8718,-0.8755,-0.9023,-0.9451,-1.0035,-1.0436,-1.179,-1.3535,-1.3921,-1.4721,-1.5682,-1.5721,0.0,0.0,0.0,0.0,0.0,0.0,0.0,0.0,0.0,0.0,0.0,0.0,0.0,0.0,0.0,0.0,0.0,0.0,0.0,0.0,0.0,0.0,0.0,0.0,-1.5235,-1.472,-1.4601,-1.4015,-1.36,-1.3516,-1.3002,-1.2578,-1.2379,-1.2361,-1.2373,-1.2403,-1.262,-1.285,-1.3067,0.0,0.0,0.0,0.0,-1.3091,-1.2843,-1.2868,-1.2886,-1.2886,-1.3824,-1.4216,-1.4311,-1.5267,-1.5948,-1.6297,-1.6346,-1.6592,-1.6929,-1.7215,-1.7334,-1.7294,-1.6937,-1.6794,-1.6786,-1.6746,-1.673,-1.673,0.0,0.0,0.0,0.0,0.0,0.0,0.0,0.0,0.0,-0.9614,-1.0748,-1.1622,-1.1622,-1.2716,-1.3492,-1.3492,-1.3492,-1.3193,0.0,0.0,-1.2077,-1.1111,-1.1111,-1.0738,-0.9916,-0.9765,-0.9387,-0.8703,-0.8703,-0.8703,-0.8703,-0.8703,-0.8703,-0.8703,-0.8703,-0.8703,-0.8703,-0.8703,-0.8803,-0.8963,-0.9394,-0.9849,-1.0362,-1.0717,-1.2085,-1.386,-1.4101,-1.4842,-1.5721,-1.6007,-1.6103,-1.615,-1.6436,0.0,0.0,0.0,0.0,0.0,0.0,0.0,0.0,0.0,0.0,0.0,0.0,0.0,0.0,0.0,0.0,0.0,0.0,0.0,0.0,-1.5816,-1.5567,-1.5058,-1.3728,-1.3454,-1.3207,-1.264,-1.2474,-1.2451,-1.2614,-1.2626,-1.2723,-1.2952,-1.3012,-1.297,-1.2795,-1.3049,-1.3175,-1.3127,-1.3538,-1.3725,-1.3676,-1.3882,-1.399,-1.399,0.0,0.0,-1.5191,-1.6636,-1.7276,-1.7385,-1.7761,-1.788,-1.7977,-1.7763,-1.7676,-1.7644,-1.7302,-1.7175,-1.7135,-1.6841,-1.673,-1.673,0.0,0.0,0.0,0.0,0.0,0.0,0.0,0.0,0.0,0.0,-1.0953,-1.1684,-1.2006,-1.2914,-1.3492,-1.3492,-1.3492,0.0,0.0,-1.2305,-1.215,-1.1706,-1.0962,-1.0513,-1.0513,-1.0143,-0.9539,-0.8703,-0.9084,-0.9084,-0.8703,-0.8703,-0.8703,-0.8703,-0.8703,-0.8703,-0.8703,-0.8703,-0.9053,-0.9729,-0.9841,-1.0823,-1.2203,-1.1816,-1.2775,-1.4424,-1.4677,-1.5416,-1.623,-1.6412,-1.6468,-1.65,-1.6675,-1.673,-1.673,0.0,0.0,0.0,0.0,0.0,0.0,0.0,0.0,0.0,0.0,0.0,0.0,0.0,0.0,-1.6484,0.0,0.0,-1.5433,-1.4599,-1.4372,-1.4001,-1.3528,-1.3296,-1.3002,-1.2524,-1.2506,-1.2614,-1.2886,-1.2916,-1.297,-1.3115,-1.3242,-1.3314,-1.3302,-1.3562,-1.3713,-1.3713,-1.4099,-1.431,-1.431,-1.457,-1.4702,-1.4702,-1.5331,-1.5647,-1.5641,-1.6637,-1.7318,-1.7677,-1.7888,-1.8185,-1.8549,-1.8375,-1.8295,-1.8263,-1.7922,-1.7683,-1.7501,-1.7318,-1.7254,-1.7231,0.0,0.0,0.0,0.0,0.0,0.0,0.0,0.0,0.0,0.0,-1.1114,-1.178,-1.2365,-1.3067,-1.3492,0.0,0.0,0.0,0.0,-1.2452,-1.2378,-1.2077,-1.0962,-1.0513,-1.0887,-1.0218,-0.9539,-0.8703,-0.9311,-0.9311,-0.8703,-0.8703,-0.8703,-0.8703,-0.8703,-0.878,-0.8932,-0.8932,-0.9581,-1.0584,-1.0514,-1.1885,-1.3831,-1.3166,-1.389,-1.5249,-1.5337,-1.5924,-1.673,-1.673,-1.673,-1.673,-1.673,-1.673,-1.673,-1.673,-1.673,0.0,0.0,0.0,0.0,0.0,0.0,0.0,0.0,0.0,-1.673,-1.673,-1.673,-1.6402,-1.5318,-1.5068,-1.4816,-1.3899,-1.3523,-1.3528,-1.3906,-1.3719,-1.3399,-1.3139,-1.2905,-1.2892,-1.3175,-1.32,-1.3242,-1.3344,-1.3598,-1.3839,-1.4051,-1.431,-1.4455,-1.4455,-1.4678,-1.4793,-1.4793,-1.5004,-1.5107,-1.5107,-1.5662,-1.5941,-1.613,-1.6773,-1.7421,-1.8161,-1.81,-1.8319,-1.8827,-1.8827,-1.8827,-1.8804,-1.8518,-1.8232,-1.7962,-1.7826,-1.7771,-1.7731,0.0,0.0,0.0,0.0,0.0,0.0,0.0,0.0,0.0,0.0,0.0,0.0,0.0,0.0,0.0,0.0,0.0,0.0,-1.2378,-1.2973,-1.2753,-1.1335,-1.1781,-1.1409,-1.0067,-0.9916,-0.9539,-0.8703,-0.878,-0.878,-0.8703,-0.8703,-0.8703,-0.8703,-0.8703,-0.9084,-0.9765,-0.9765,-1.0351,-1.1361,-1.2024,-1.2698,-1.3457,-1.4606,-1.5554,-1.6167,-1.5756,-1.6116,-1.673,-1.673,-1.673,-1.673,-1.673,-1.673,-1.673,-1.673,0.0,-1.673,-1.673,-1.673,-1.673,-1.673,-1.673,-1.673,0.0,0.0,-1.673,-1.673,-1.673,-1.6648,-1.6484,-1.6484,-1.6221,-1.5516,-1.5606,-1.5461,-1.4853,-1.49,-1.4925,-1.4467,-1.3566,-1.3181,-1.3447,-1.3471,-1.3664,-1.4129,-1.4425,-1.46,-1.4624,-1.4871,-1.5016,-1.5016,-1.5046,-1.5065,-1.5065,-1.5095,-1.5107,-1.5107,-1.5859,-1.654,-1.735,-1.8091,-1.8859,-1.9628,-1.9336,-1.9036,-1.8827,-1.8827,-1.8827,-1.8827,-1.8788,-1.874,-1.8637,-1.8001,-1.7771,-1.7763,0.0,0.0,0.0,0.0,0.0,0.0,0.0,0.0,0.0,0.0,0.0,0.0,0.0,0.0,0.0,0.0,0.0,0.0,-1.3046,-1.29,-1.2673,-1.2526,-1.1484,-1.1037,-1.126,-1.0368,-0.9765,-0.9387,-0.9387,-0.916,-0.8703,-0.8703,-0.8703,-0.8703,-0.8703,-0.8851,-0.9236,-0.983,-1.072,-1.1741,-1.2648,-1.3659,-1.4786,-1.4946,-1.565,-1.6566,-1.6319,-1.6484,0.0,0.0,-1.673,-1.673,-1.673,-1.673,-1.673,-1.673,-1.673,0.0,-1.673,-1.673,0.0,0.0,-1.673,-1.673,-1.673,-1.673,-1.673,-1.673,-1.673,-1.6566,-1.6147,-1.6323,-1.6217,0.0,-1.5226,-1.5068,-1.4764,-1.4556,-1.4481,-1.4403,-1.4056,-1.3851,-1.396,-1.4117,-1.4304,-1.4527,-1.4793,-1.4944,-1.4944,-1.5046,-1.5107,-1.5107,-1.5252,-1.5336,-1.5336,-1.6,-1.6283,-1.638,-1.7428,-1.8053,-1.8462,-1.9064,-1.9568,-1.9852,-1.9717,-1.9463,-1.9145,-1.9145,-1.9018,-1.8827,-1.8827,-1.8827,-1.8796,-1.8494,-1.839,-1.8359,0.0,0.0,0.0,0.0,0.0,0.0,0.0,0.0,0.0,0.0,0.0,0.0,0.0,0.0,0.0,0.0,0.0,0.0,0.0,-1.2973,-1.2826,-1.3127,-1.1706,-1.1111,-1.1632,-1.0962,-1.0368,-0.9922,-1.0143,-0.9911,-0.9382,-0.9155,-0.9008,-0.9008,-0.9008,-0.9155,-0.9523,-1.049,-1.1502,-1.2543,-1.3299,-1.4487,-1.5723,-1.5242,-1.5741,-1.6656,-1.6484,-1.6566,0.0,0.0,-1.673,-1.673,-1.673,-1.673,-1.673,-1.673,-1.673,-1.673,-1.673,0.0,0.0,-1.673,-1.673,-1.673,-1.673,-1.673,-1.673,-1.673,-1.673,-1.6566,-1.6064,-1.627,-1.6337,-1.5661,-1.5203,-1.5064,-1.5251,-1.4765,-1.4364,-1.4561,-1.4647,-1.46,-1.4413,-1.46,-1.4745,-1.4817,-1.5071,-1.5215,-1.5215,-1.5282,-1.5324,-1.5324,-1.5511,-1.5608,-1.5608,-1.6628,-1.7252,-1.7252,-1.8384,-1.9001,-1.9299,-1.9867,-2.0106,-2.0011,-2.0011,-1.982,-1.9511,-1.9511,-1.9296,-1.8978,-1.8978,-1.8915,-1.8827,-1.8827,-1.8827,-1.8796,0.0,0.0,0.0,0.0,0.0,0.0,0.0,0.0,0.0,0.0,0.0,0.0,0.0,0.0,0.0,0.0,0.0,0.0,0.0,-1.3499,-1.3119,-1.2378,-1.3046,-1.2298,-0.9992,-1.1484,-1.1484,-0.9922,-1.0663,-1.1037,-1.1037,-1.0218,-0.9846,-0.9846,-0.9846,-1.0432,-1.1378,-1.2144,-1.3112,-1.4023,-1.4439,-1.4866,-1.5451,-1.5715,-1.621,-1.6648,-1.5982,0.0,0.0,0.0,-1.673,-1.673,-1.673,-1.673,0.0,-1.673,-1.673,0.0,0.0,0.0,-1.673,-1.673,-1.673,-1.673,-1.673,-1.673,-1.673,-1.673,-1.673,-1.6648,-1.6648,-1.7032,-1.7278,-1.7262,-1.65,-1.619,-1.7024,-1.6085,-1.533,-1.5337,-1.5583,-1.5464,0.0,-1.4708,-1.4823,-1.5077,-1.5342,-1.5487,-1.5487,-1.5728,-1.5867,-1.5867,-1.5873,-1.5879,-1.5879,-1.6723,-1.7252,-1.7252,-1.7989,-1.8826,-1.9665,-2.0483,-2.0702,-2.0377,-2.0377,-2.0178,-1.9852,-1.9852,-1.9654,-1.9352,-1.9352,-1.9137,-1.8827,-1.8827,-1.8827,-1.8827,0.0,0.0,0.0,0.0,0.0,0.0,0.0,0.0,0.0,0.0,0.0,0.0,0.0,0.0,0.0,0.0,0.0,0.0,0.0,-1.3492,-1.3346,-1.3119,-1.2826,-1.2599,-1.2298,-1.126,-1.0962,-1.1484,-1.0132,-1.0056,-1.1111,-1.0293,-1.0288,-1.087,-1.087,-1.1162,-1.1675,-1.2572,-1.3171,-1.3564,-1.4579,-1.5103,-1.5344,-1.5913,-1.6205,-1.6332,0.0,0.0,0.0,0.0,0.0,-1.6738,-1.7066,-1.7147,-1.7147,-1.7147,-1.7147,-1.7066,0.0,0.0,-1.673,-1.673,-1.673,-1.673,-1.673,-1.6902,-1.7066,-1.673,-1.7409,-1.7904,-1.7572,-1.8071,-1.8401,-1.8401,-1.7696,-1.7065,-1.68,-1.594,-1.5248,-1.4771,-1.4923,0.0,0.0,0.0,0.0,-1.536,-1.5608,-1.5759,-1.5759,-1.5843,-1.5891,-1.5891,-1.5891,-1.5891,-1.5891,-1.673,-1.7463,-1.7996,-1.9354,-2.0197,-2.0506,-2.0814,-2.0853,-2.0742,-2.0742,-2.0543,-2.0218,-2.0218,-2.0011,-1.9677,-1.9455,-1.9296,-1.9161,-1.8915,-1.8827,-1.8827,0.0,0.0,0.0,0.0,0.0,0.0,0.0,0.0,0.0,0.0,0.0,0.0,0.0,0.0,0.0,0.0,0.0,0.0,0.0,0.0,-1.3492,-1.3492,-1.2973,-1.2826,-1.3046,-1.1929,-1.1632,-1.2378,-1.1174,-1.1093,-1.2137,-1.118,-1.1174,-1.1896,-1.1829,-1.1977,-1.2271,-1.3237,-1.368,-1.3775,-1.4668,-1.507,-1.5237,-1.5674,-1.6078,0.0,0.0,0.0,0.0,0.0,0.0,0.0,-1.7066,-1.7229,-1.7392,-1.7229,-1.7229,-1.731,0.0,-1.673,-1.6706,-1.6571,-1.6643,-1.6698,-1.6571,-1.6887,-1.7066,-1.673,-1.7581,-1.8338,-1.8012,-1.8531,-1.9018,-1.9018,-1.8308,-1.7505,-1.7044,-1.6292,-1.5629,-1.5153,-1.5505,-1.5812,0.0,0.0,0.0,-1.5638,-1.5795,-1.5891,-1.5891,-1.5891,-1.5891,-1.5891,-1.5891,-1.5891,-1.5891,-1.673,-1.7786,-1.884,-2.0292,-2.0925,-2.0925,-2.0925,-2.0925,-2.0925,-2.0925,-2.0798,-2.0583,-2.0583,-2.0369,-2.0035,-1.982,-1.9662,-1.9503,-1.9153,-1.9026,-1.9002,0.0,0.0,0.0,0.0,0.0,0.0,0.0,0.0,0.0,0.0,0.0,0.0,0.0,0.0,0.0,0.0,0.0,0.0,0.0,0.0,0.0,-1.3499,-1.3492,-1.3193,-1.2378,-1.3273,-1.3419,-1.2673,-1.3346,-1.3855,-1.4057,-1.2886,-1.2586,-1.2938,-1.2813,-1.2886,-1.331,-1.4057,-1.4497,-1.4569,-1.4569,-1.4847,-1.5157,-1.5173,0.0,0.0,0.0,0.0,0.0,0.0,0.0,0.0,0.0,0.0,-1.7392,-1.6894,-1.7066,-1.731,-1.6902,-1.673,-1.6651,-1.6293,-1.6468,-1.6643,-1.6285,-1.6476,-1.6738,-1.673,-1.744,-1.8112,0.0,0.0,-1.9051,-1.9043,-1.8315,-1.7777,-1.7692,-1.7138,-1.6676,0.0,0.0,0.0,0.0,0.0,0.0,-1.6099,0.0,-1.5891,-1.5891,-1.5891,-1.5891,-1.5992,-1.5891,-1.5891,-1.5992,-1.6935,-1.8094,-1.968,-2.0506,-2.0925,-2.0925,-2.0925,-2.0925,-2.0925,-2.0925,-2.0925,-2.0925,-2.0925,-2.0726,-2.0416,-2.04,-2.0186,-1.9852,-1.9519,-1.9383,-1.932,0.0,0.0,0.0,0.0,0.0,0.0,0.0,0.0,0.0,0.0,0.0,0.0,0.0,0.0,0.0,0.0,0.0,0.0,0.0,0.0,0.0,0.0,0.0,0.0,0.0,0.0,0.0,0.0,0.0,-1.2872,-1.4057,-1.3171,-1.3171,-1.3985,-1.3985,-1.4057,-1.4274,-1.4489,-1.4569,-1.4569,0.0,-1.4697,-1.4808,0.0,0.0,0.0,0.0,0.0,0.0,0.0,0.0,0.0,0.0,0.0,-1.829,-1.7797,-1.7716,-1.7797,-1.731,-1.6984,-1.6651,-1.6293,-1.6468,-1.6643,-1.6285,-1.6726,-1.7147,-1.6738,-1.8138,-1.9177,0.0,0.0,0.0,-1.9505,-1.8948,0.0,-1.7785,-1.7505,0.0,0.0,0.0,-1.7505,-1.7505,-1.7853,0.0,0.0,-1.663,-1.5891,-1.5891,-1.5891,-1.6205,-1.6836,-1.6205,-1.6524,-1.7786,-1.8624,-1.9257,-1.968,-2.0506,-2.0925,-2.0925,-2.0925,-2.0925,-2.0925,-2.0925,-2.0925,-2.0925,-2.0925,-2.0869,-2.0758,-2.0496,-2.0337,-2.0218,-1.9868,-1.9582,-1.936,0.0,0.0,0.0,0.0,0.0,0.0,0.0,0.0,0.0,0.0,0.0,0.0,0.0,0.0,0.0,0.0,0.0,0.0,0.0,0.0,0.0,0.0,0.0,0.0,0.0,0.0,0.0,0.0,0.0,0.0,0.0,-1.368,-1.3833,-1.4497,-1.4433,-1.4497,-1.4569,-1.4569,0.0,0.0,0.0,0.0,0.0,0.0,0.0,0.0,0.0,0.0,0.0,0.0,0.0,-1.7066,-1.7066,-1.7554,-1.8049,-1.7797,0.0,-1.7951,-1.7716,-1.731,-1.6855,-1.6331,-1.6437,-1.6595,-1.6323,-1.6844,-1.7392,-1.7302,-1.8494,0.0,0.0,0.0,0.0,0.0,0.0,0.0,-1.8257,-1.8164,-1.8071,0.0,-1.8186,0.0,-1.8587,-1.8775,-1.8945,0.0,-1.7786,-1.7054,-1.7054,-1.7054,-1.7259,-1.7681,-1.7259,-1.747,-1.8422,-1.9257,-1.968,-1.968,-2.0506,-2.0925,-2.0925,-2.0925,-2.0925,-2.0925,0.0,-2.0925,-2.0925,-2.0925,-2.0925,-2.0901,-2.0702,-2.0623,-2.0583,-2.0226,-1.9979,-1.9797,0.0,0.0,0.0,0.0,0.0,0.0,0.0,0.0,0.0,0.0,0.0,0.0,0.0,0.0,0.0,0.0,0.0,0.0,0.0,0.0,0.0,0.0,0.0,0.0,0.0,0.0,0.0,0.0,0.0,0.0,0.0,0.0,0.0,0.0,0.0,0.0,0.0,0.0,0.0,0.0,0.0,0.0,0.0,0.0,0.0,0.0,0.0,0.0,0.0,0.0,-1.7147,-1.673,-1.673,-1.7066,-1.7473,-1.7473,-1.7797,-1.8121,-1.8121,-1.7797,-1.7307,-1.6602,-1.6635,-1.6798,-1.6508,-1.6967,-1.7554,-1.7959,0.0,-1.9383,-1.9765,0.0,-2.0289,-2.0232,0.0,-1.9371,-1.8827,-1.8827,-1.8827,-1.8827,-1.9439,-1.9868,-1.9868,-1.9899,-1.9887,-1.9887,-1.9153,-1.8632,-1.8422,-1.8422,-1.8422,-1.8422,-1.8632,-1.8632,-1.8527,-1.9465,-1.9887,-1.9887,-2.0609,-2.0925,-2.0925,-2.0925,-2.0925,-2.0925,-2.0925,0.0,-2.0925,-2.0925,-2.0925,-2.0925,-2.0925,-2.0925,-2.0885,-2.0575,-2.0432,-2.0353,0.0,0.0,0.0,0.0,0.0,0.0,0.0,0.0,0.0,0.0,-0.9614,0.0,0.0,0.0,0.0,0.0,0.0,0.0,0.0,0.0,0.0,0.0,0.0,0.0,0.0,0.0,0.0,0.0,0.0,0.0,0.0,0.0,0.0,0.0,0.0,0.0,0.0,0.0,0.0,0.0,0.0,0.0,0.0,0.0,0.0,0.0,0.0,0.0,0.0,0.0,-1.7383,-1.673,-1.673,-1.7221,-1.7878,-1.7878,-1.8201,-1.8612,-1.8612,-1.8201,-1.7768,-1.7397,-1.7547,-1.7679,-1.7397,-1.7635,0.0,0.0,0.0,-1.93,-1.9358,-1.9574,0.0,-1.9761,0.0,0.0,0.0,0.0,-1.8827,0.0,0.0,0.0,0.0,0.0,0.0,0.0,0.0,-1.9879,-1.8422,-1.8422,-1.8422,-1.8422,-1.9776,-2.0197,-1.9465,-2.03,-2.0712,-2.0712,-2.0822,-2.0925,-2.0925,-2.0925,-2.0925,-2.0925,-2.0925,0.0,-2.0925,-2.0925,-2.0925,-2.0925,-2.0925,-2.0925,-2.0909,-2.0853,-2.0647,-2.0384,0.0,0.0,0.0,0.0,0.0,0.0,0.0,0.0,0.0,0.0,-0.9614,-0.9672,0.0,0.0,0.0,0.0,0.0,0.0,0.0,0.0,0.0,0.0,0.0,0.0,0.0,0.0,0.0,0.0,0.0,0.0,0.0,0.0,0.0,0.0,0.0,0.0,0.0,0.0,0.0,0.0,0.0,0.0,0.0,0.0,0.0,0.0,0.0,0.0,0.0,0.0,-1.7629,-1.6984,-1.682,-1.6976,-1.7383,-1.7878,-1.8121,-1.8442,-1.8922,-1.8683,-1.8275,-1.7961,-1.7916,-1.8017,-1.7874,0.0,0.0,0.0,0.0,-1.9317,-1.9564,0.0,0.0,0.0,0.0,0.0,0.0,0.0,0.0,0.0,0.0,0.0,0.0,0.0,0.0,0.0,0.0,-2.0506,-1.9776,-1.9672,-1.9672,-1.9672,-2.0506,-2.0712,-2.03,-2.0712,-2.0925,-2.0925,-2.0925,-2.0925,-2.0925,-2.0925,-2.0925,-2.0925,-2.0925,0.0,-2.0925,-2.0925,-2.0925,-2.0925,-2.0925,-2.0925,-2.0925,-2.0925,-2.0813,-2.0662,0.0,0.0,0.0,0.0,0.0,0.0,0.0,-0.9614,-0.9614,-0.9614,-0.9614,-0.9614,-0.9614,-0.9841,0.0,0.0,0.0,0.0,0.0,0.0,0.0,0.0,0.0,0.0,0.0,0.0,0.0,0.0,0.0,0.0,0.0,0.0,0.0,0.0,0.0,0.0,0.0,0.0,0.0,0.0,0.0,0.0,0.0,0.0,0.0,0.0,0.0,0.0,0.0,0.0,-1.7821,-1.7446,-1.7115,-1.6894,-1.6984,-1.7878,-1.8121,-1.8362,-1.9063,-1.9073,-1.878,-1.8467,-1.8373,-1.8275,-1.8371,-1.8628,0.0,0.0,-1.9301,-1.943,-1.9852,0.0,0.0,0.0,0.0,0.0,0.0,0.0,0.0,0.0,0.0,0.0,0.0,0.0,0.0,0.0,0.0,0.0,-2.0925,-2.0925,-2.0925,-2.0925,-2.0925,-2.0925,-2.0925,-2.0925,-2.0925,-2.0925,-2.0925,-2.0925,-2.0925,-2.0925,-2.0925,-2.0925,-2.0925,0.0,0.0,-2.0925,-2.0925,-2.0925,-2.0925,-2.0925,-2.0925,-2.0925,-2.0925,-2.0925,0.0,0.0,0.0,0.0,0.0,0.0,0.0,-0.9614,-0.9614,-0.9614,-0.9614,-0.9614,-0.9614,-0.9643,0.0,0.0,0.0,0.0,0.0,0.0,0.0,0.0,0.0,0.0,0.0,0.0,0.0,0.0,0.0,0.0,0.0,0.0,0.0,0.0,0.0,0.0,0.0,0.0,0.0,0.0,0.0,0.0,0.0,0.0,0.0,0.0,0.0,0.0,0.0,0.0,0.0,-1.8048,-1.7929,-1.7635,-1.7473,-1.8371,0.0,0.0,-1.9152,-1.9301,-1.9213,-1.9177,-1.9195,-1.9213,-1.9177,0.0,0.0,0.0,-1.9301,-1.943,-1.9852,-1.9838,0.0,0.0,0.0,0.0,0.0,0.0,0.0,0.0,0.0,0.0,0.0,0.0,0.0,0.0,0.0,0.0,-2.0925,-2.0925,-2.0925,-2.0925,-2.0925,-2.0925,-2.0925,-2.0925,-2.0925,-2.0925,-2.0925,-2.0925,-2.0925,-2.0925,-2.0925,-2.0925,-2.0925,0.0,0.0,-2.0925,-2.0925,-2.0925,-2.0925,-2.0925,-2.0925,-2.0925,-2.0925,-2.0925,0.0,0.0,0.0,0.0,0.0,0.0,0.0,-0.9614,-0.9614,-0.9614,-0.9614,-0.9614,-0.9614,-0.9614,-0.9665,0.0,0.0,0.0,0.0,0.0,0.0,0.0,0.0,0.0,0.0,0.0,0.0,0.0,0.0,0.0,0.0,0.0,0.0,0.0,0.0,0.0,0.0,0.0,0.0,0.0,0.0,0.0,0.0,0.0,0.0,0.0,0.0,0.0,0.0,0.0,0.0,0.0,-1.8353,-1.8091,0.0,0.0,-1.8451,-1.87,-1.8931,-1.8922,-1.9002,-1.9222,-1.9152,-1.9002,-1.9222,0.0,0.0,-1.9301,-1.9301,-1.9356,-1.9522,-1.9916,-2.0153,0.0,0.0,0.0,0.0,0.0,0.0,0.0,0.0,0.0,0.0,0.0,0.0,0.0,0.0,0.0,-2.0925,-2.0925,-2.0925,-2.0925,-2.0925,-2.0925,-2.0925,-2.0925,-2.0925,-2.0925,-2.0925,-2.0925,-2.0925,-2.0925,-2.0925,-2.0925,-2.0925,0.0,0.0,-2.0925,-2.0925,-2.0925,-2.0925,-2.0925,-2.0925,-2.0925,-2.0925,-2.0925,0.0,0.0,0.0,0.0,0.0,0.0,-0.9614,-0.9614,-0.9614,-0.9614,-0.9614,-0.9614,-0.9614,-0.9614,-0.9614,-0.9614,0.0,0.0,0.0,0.0,0.0,0.0,0.0,0.0,0.0,0.0,0.0,0.0,0.0,0.0,0.0,0.0,0.0,0.0,0.0,0.0,0.0,0.0,0.0,0.0,0.0,0.0,0.0,0.0,0.0,0.0,0.0,0.0,0.0,0.0,0.0,0.0,0.0,0.0,0.0,0.0,-1.8442,-1.8531,-1.87,-1.8612,-1.8523,-1.8825,-1.8843,-1.8772,0.0,0.0,0.0,-1.9301,-1.9301,-1.9222,-1.9152,-1.9707,-2.0048,-1.9665,0.0,-1.9802,0.0,0.0,0.0,0.0,0.0,0.0,0.0,0.0,0.0,0.0,0.0,0.0,-2.0925,-2.0925,-2.0925,-2.0925,-2.0925,-2.0925,-2.0925,-2.0925,-2.0925,-2.0925,-2.0925,-2.0925,-2.0925,-2.0925,-2.0925,-2.0925,-2.0925,0.0,0.0,-2.0925,-2.0925,-2.0925,-2.0925,-2.0925,-2.0925,-2.0925,-2.0925,-2.0925,0.0,0.0,0.0,0.0,0.0,0.0,0.0,-0.9614,-0.9614,-0.9614,-0.9614,-0.9614,-0.9614,-0.9614,-0.9614,-0.9614,0.0,0.0,0.0,0.0,0.0,0.0,0.0,0.0,0.0,0.0,0.0,-1.3909,-1.3909,0.0,0.0,0.0,0.0,0.0,0.0,0.0,0.0,0.0,0.0,0.0,0.0,0.0,0.0,0.0,0.0,0.0,0.0,0.0,0.0,0.0,0.0,0.0,0.0,0.0,0.0,0.0,-1.8665,-1.8121,-1.8531,-1.8371,-1.804,-1.8031,-1.8371,-1.87,0.0,0.0,0.0,-1.9301,-1.9301,-1.9152,-1.8772,-1.902,-1.9318,-1.9196,-1.9138,-1.915,-1.9497,0.0,0.0,0.0,0.0,0.0,0.0,0.0,0.0,0.0,0.0,0.0,-2.0925,-2.0925,-2.0925,-2.0925,-2.0925,-2.0925,-2.0925,-2.0925,-2.0925,-2.0925,-2.0925,-2.0925,-2.0925,-2.0925,-2.0925,0.0,0.0,0.0,0.0,-2.0925,-2.0925,-2.0925,-2.0925,-2.0925,-2.0925,-2.0925,-2.0925,-2.0925,0.0,0.0,0.0,0.0,0.0,0.0,0.0,-0.8567,-0.8349,-0.8402,-0.8455,-0.8613,-0.8981,-0.904,-0.9197,-0.9562,0.0,0.0,0.0,0.0,0.0,0.0,0.0,0.0,0.0,0.0,-1.2651,-1.3157,-1.3531,-1.3956,-1.4425,0.0,0.0,0.0,0.0,0.0,0.0,0.0,0.0,0.0,0.0,0.0,0.0,0.0,0.0,0.0,0.0,0.0,0.0,0.0,0.0,0.0,0.0,0.0,0.0,0.0,0.0,0.0,-1.8692,-1.862,-1.8451,-1.8451,-1.8371,-1.8201,-1.8201,0.0,0.0,-1.8434,-1.8434,-1.8353,-1.8282,-1.8594,-1.8884,-1.9196,-1.905,-1.9142,0.0,0.0,0.0,0.0,0.0,0.0,0.0,0.0,0.0,0.0,0.0,0.0,-2.0925,-2.0925,-2.0925,-2.0925,-2.0925,-2.0925,-2.0925,-2.0925,-2.0925,-2.0925,-2.0925,-2.0925,-2.0925,-2.0925,-2.0925,0.0,0.0,0.0,0.0,-2.0925,-2.0925,-2.0925,-2.0925,-2.0925,-2.0925,-2.0925,-2.0925,-2.0925,0.0,0.0,0.0,0.0,0.0,0.0,0.0,-0.8096,-0.7824,-0.819,-0.8031,-0.8137,-0.8718,-0.8778,-0.904,-0.9562,0.0,0.0,0.0,0.0,0.0,0.0,0.0,0.0,0.0,-1.1885,-1.2216,-1.2609,-1.3082,-1.3561,-1.4103,-1.4299,-1.4425,0.0,0.0,0.0,0.0,0.0,0.0,0.0,0.0,0.0,-1.5204,0.0,0.0,0.0,0.0,0.0,0.0,0.0,0.0,0.0,0.0,0.0,0.0,0.0,-1.9073,0.0,0.0,-1.854,-1.8451,-1.8451,-1.8371,0.0,0.0,0.0,0.0,0.0,-1.8121,-1.7951,-1.7797,-1.7983,-1.8221,-1.8648,-1.8575,-1.8718,0.0,0.0,0.0,0.0,0.0,0.0,0.0,0.0,0.0,0.0,0.0,0.0,-2.0925,-2.0925,-2.0925,-2.0925,-2.0925,-2.0925,-2.0925,-2.0925,-2.0925,-2.0925,-2.0925,-2.0925,-2.0925,-2.0925,-2.0925,0.0,0.0,0.0,0.0,-2.0925,-2.0925,-2.0925,-2.0925,-2.0925,-2.0925,-2.0925,-2.0925,-2.0925,0.0,0.0,0.0,0.0,0.0,0.0,0.0,0.0,0.0,0.0,-0.8137,-0.8031,-0.8666,-0.8718,-0.8981,0.0,0.0,0.0,0.0,0.0,0.0,0.0,0.0,0.0,0.0,-1.1622,-1.1855,-1.2333,-1.2646,-1.3051,-1.363,-1.4142,-1.4361,-1.4353,-1.4497,0.0,0.0,0.0,0.0,0.0,0.0,0.0,0.0,0.0,0.0,0.0,0.0,0.0,0.0,0.0,0.0,0.0,0.0,0.0,0.0,0.0,0.0,0.0,0.0,0.0,0.0,0.0,0.0,0.0,0.0,0.0,0.0,0.0,0.0,0.0,-1.7392,-1.731,-1.7466,-1.7746,-1.7771,-1.8017,0.0,0.0,0.0,0.0,0.0,0.0,0.0,0.0,0.0,0.0,0.0,0.0,-2.0925,-2.0925,-2.0925,-2.0925,-2.0925,-2.0925,-2.0925,-2.0925,-2.0925,-2.0925,-2.0925,-2.0925,-2.0925,-2.0925,-2.0925,0.0,0.0,0.0,0.0,-2.0925,-2.0925,-2.0925,-2.0925,-2.0925,-2.1019,-2.0925,-2.1019,-2.1121,0.0,0.0,0.0,0.0,0.0,0.0,0.0,0.0,0.0,0.0,0.0,-0.6972,-0.7978,-0.8137,0.0,0.0,0.0,0.0,0.0,0.0,0.0,0.0,0.0,0.0,0.0,-1.1622,-1.1902,-1.2476,-1.2549,-1.2957,-1.3757,-1.3905,-1.4,-1.4209,-1.4201,0.0,0.0,0.0,0.0,0.0,0.0,0.0,0.0,0.0,0.0,0.0,-1.5842,-1.57,0.0,0.0,0.0,0.0,0.0,0.0,0.0,0.0,-1.7968,-1.8121,-1.8121,0.0,-1.8904,-1.8612,0.0,0.0,0.0,0.0,0.0,0.0,0.0,0.0,0.0,0.0,-1.7044,-1.766,-1.7771,-1.8017,0.0,0.0,0.0,0.0,0.0,0.0,0.0,0.0,0.0,0.0,0.0,-2.0925,-2.0925,-2.0925,-2.0925,-2.0925,-2.0925,-2.0925,-2.0925,-2.0925,-2.0925,-2.0925,-2.0925,-2.0925,-2.0925,-2.0925,-2.0925,0.0,0.0,0.0,-2.0925,-2.0925,-2.0925,-2.0925,-2.0925,-2.142,-2.2021,-2.1224,-2.1912,-2.3094,0.0,0.0,0.0,0.0,0.0,0.0,0.0,0.0,0.0,0.0,0.0,0.0,0.0,0.0,0.0,0.0,0.0,0.0,0.0,0.0,0.0,0.0,0.0,0.0,-1.1608,-1.1622,-1.1802,-1.2299,-1.2445,-1.2851,-1.3423,-1.365,-1.3863,-1.4,-1.4065,0.0,0.0,0.0,0.0,0.0,-1.4569,0.0,0.0,0.0,0.0,0.0,-1.5488,-1.548,0.0,-1.548,-1.5409,-1.527,0.0,0.0,0.0,0.0,-1.7422,-1.7797,-1.7959,-1.8353,-1.8674,-1.8442,-1.8201,-1.804,0.0,0.0,0.0,0.0,0.0,0.0,0.0,0.0,0.0,0.0,-1.7771,0.0,0.0,0.0,0.0,0.0,0.0,0.0,0.0,0.0,0.0,0.0,0.0,-2.0822,-2.0719,-2.0822,-2.0822,-2.0719,-2.0822,-2.0925,-2.0925,-2.0925,-2.0925,-2.0925,-2.0925,-2.0925,-2.0925,-2.0925,-2.0925,0.0,0.0,0.0,-2.0925,-2.0925,-2.0925,-2.0925,-2.142,-2.203,-2.2426,-2.1827,-2.2417,-2.3111,0.0,0.0,0.0,0.0,0.0,0.0,0.0,0.0,0.0,0.0,0.0,0.0,0.0,0.0,0.0,0.0,0.0,0.0,0.0,0.0,0.0,0.0,0.0,-1.0953,-1.1608,-1.1622,-1.1743,-1.2109,-1.2387,-1.2716,-1.3089,-1.3512,-1.3725,-1.379,-1.3992,-1.4201,0.0,0.0,0.0,0.0,-1.4569,0.0,0.0,0.0,0.0,0.0,0.0,0.0,0.0,-1.5267,-1.5133,-1.5119,-1.5145,0.0,0.0,0.0,0.0,0.0,-1.7716,-1.7789,-1.7797,-1.7959,-1.7951,-1.7959,0.0,0.0,0.0,0.0,0.0,0.0,0.0,0.0,0.0,0.0,0.0,0.0,0.0,0.0,0.0,0.0,0.0,0.0,0.0,0.0,0.0,0.0,0.0,-2.0719,-2.0411,-2.0617,-2.0719,-2.0411,-2.0617,-2.0814,-2.0822,-2.0925,-2.0925,-2.0925,-2.0925,-2.0925,-2.0925,-2.0925,-2.0925,-2.0925,0.0,0.0,-2.0925,-2.0925,-2.0925,-2.1027,-2.2123,-2.2627,-2.2719,-2.2719,-2.282,-2.2811,0.0,0.0,0.0,0.0,0.0,0.0,0.0,0.0,0.0,0.0,0.0,0.0,0.0,0.0,0.0,0.0,0.0,0.0,0.0,0.0,0.0,0.0,-1.0701,-1.1012,-1.1608,-1.1622,-1.1853,-1.2445,-1.2497,-1.2833,-1.3426,-1.3542,-1.3564,-1.3572,-1.392,-1.4129,-1.4129,-1.4425,-1.4569,-1.4569,-1.4569,0.0,0.0,0.0,0.0,0.0,0.0,0.0,0.0,-1.5133,-1.4991,-1.4721,-1.5056,0.0,0.0,0.0,0.0,0.0,-1.6894,-1.6894,-1.7066,-1.7797,-1.7716,-1.7554,0.0,0.0,0.0,0.0,0.0,0.0,0.0,0.0,0.0,0.0,0.0,0.0,0.0,0.0,0.0,0.0,0.0,0.0,0.0,0.0,0.0,0.0,0.0,-2.0181,-2.0189,-2.0189,-2.0181,-2.0189,-2.0181,-2.03,-2.0522,-2.0822,-2.0925,-2.0925,-2.0925,-2.0925,-2.0925,-2.0925,-2.0925,-2.0925,0.0,-2.0925,-2.0925,-2.0925,-2.0925,-2.1027,-2.2123,-2.3011,-2.3899,-2.3899,-2.4393,-2.5042,0.0,0.0,0.0,0.0,0.0,0.0,0.0,0.0,0.0,0.0,0.0,0.0,0.0,0.0,0.0,0.0,0.0,0.0,0.0,0.0,0.0,-1.0558,-1.0644,-1.1012,-1.1608,-1.1622,-1.1875,-1.2519,-1.2519,-1.2855,-1.3492,-1.3492,-1.3492,-1.3499,-1.3702,-1.3855,-1.3928,-1.4072,-1.4289,-1.4497,0.0,0.0,0.0,0.0,0.0,0.0,0.0,0.0,0.0,0.0,-1.4776,-1.4673,-1.5082,0.0,0.0,0.0,0.0,0.0,-1.673,-1.673,-1.682,-1.7221,-1.7139,-1.7066,0.0,0.0,0.0,0.0,0.0,0.0,0.0,0.0,0.0,0.0,0.0,0.0,0.0,0.0,0.0,0.0,0.0,0.0,0.0,0.0,0.0,0.0,0.0,0.0,-1.9879,-1.9983,-2.0078,-1.9879,-1.9983,-2.0189,-2.03,-2.0514,-2.0719,-2.0925,-2.0925,-2.0925,-2.0925,-2.0925,-2.0925,-2.0925,0.0,-2.1224,-2.1725,-2.1725,-2.2123,-2.271,-2.3809,-2.4501,-2.4865,-2.4143,-2.3767,-2.3596,0.0,0.0,0.0,0.0,0.0,0.0,0.0,0.0,0.0,0.0,0.0,0.0,0.0,0.0,0.0,0.0,0.0,0.0,0.0,0.0,-0.9987,-1.0565,-1.066,-1.0975,-1.1615,-1.1633,-1.1955,-1.2593,-1.2599,-1.2928,-1.3492,-1.3492,-1.3492,-1.3492,-1.3564,-1.3645,-1.3797,-1.3863,-1.4072,-1.4353,0.0,0.0,0.0,0.0,0.0,0.0,0.0,0.0,0.0,0.0,0.0,0.0,0.0,0.0,0.0,-1.6103,-1.646,-1.673,-1.673,-1.673,-1.673,-1.673,0.0,-1.673,-1.673,0.0,0.0,0.0,0.0,0.0,0.0,0.0,0.0,0.0,0.0,0.0,0.0,0.0,0.0,0.0,0.0,0.0,0.0,0.0,0.0,0.0,0.0,0.0,-1.9576,-1.9776,-1.9776,-1.9576,-1.9783,-1.9983,-1.9983,-2.03,-2.0514,-2.0822,-2.0822,-2.0925,-2.0925,-2.0925,-2.0925,-2.0925,-2.0925,-2.1522,-2.2526,-2.2526,-2.3111,-2.4187,-2.4992,-2.5237,-2.5092,-2.3877,-2.2907,-2.2092,0.0,0.0,0.0,0.0,0.0,0.0,0.0,0.0,0.0,0.0,0.0,0.0,0.0,0.0,0.0,0.0,0.0,0.0,0.0,0.0,-1.0221,-1.0572,-1.088,-1.1202,-1.1615,-1.1845,-1.224,-1.2803,-1.2895,-1.3148,-1.3492,-1.3492,-1.3492,-1.3499,-1.3717,-1.379,-1.379,-1.3992,-1.4137,-1.4129,-1.4129,0.0,0.0,0.0,0.0,0.0,0.0,0.0,0.0,0.0,0.0,0.0,0.0,0.0,-1.5745,-1.6103,-1.646,-1.673,-1.673,-1.673,-1.673,-1.673,0.0,0.0,-1.673,0.0,0.0,0.0,0.0,0.0,0.0,0.0,0.0,0.0,0.0,0.0,0.0,0.0,0.0,0.0,0.0,0.0,0.0,0.0,0.0,0.0,0.0,0.0,-1.9383,-1.9383,-1.9383,-1.9383,-1.9383,-1.948,-1.968,-1.9983,-2.03,-2.0514,-2.0822,-2.0925,-2.0925,-2.0925,-2.0925,-2.0925,-2.0925,-2.1522,-2.2526,-2.2526,-2.3111,-2.4088,-2.4187,-2.4054,-2.3666,-2.3165,-2.2694,-2.2198,0.0,0.0,0.0,0.0,0.0,0.0,0.0,0.0,0.0,0.0,0.0,0.0,0.0,0.0,0.0,0.0,0.0,0.0,0.0,0.0,-1.014,-1.0572,-1.0902,-1.1319,-1.1845,-1.197,-1.2292,-1.2895,-1.3155,-1.3375,-1.3492,-1.3492,-1.3492,-1.3492,-1.3572,-1.3645,-1.3645,-1.371,-1.3783,-1.3928,-1.3928,-1.4,0.0,0.0,0.0,0.0,0.0,0.0,0.0,0.0,-1.4569,-1.4736,0.0,-1.5578,-1.5793,-1.6365,-1.6627,-1.673,-1.673,-1.673,-1.6648,-1.6558,0.0,0.0,0.0,0.0,0.0,0.0,0.0,0.0,0.0,0.0,0.0,0.0,0.0,0.0,0.0,0.0,0.0,0.0,0.0,0.0,0.0,0.0,0.0,0.0,0.0,0.0,-1.9264,-1.9279,-1.9279,-1.9279,-1.9279,-1.948,-1.968,-1.9983,-2.0197,-2.0522,-2.0822,-2.0925,-2.0925,-2.0925,-2.0925,-2.0925,-2.0925,-2.1522,-2.2526,-2.3211,-2.4097,-2.5158,-2.5477,-2.5387,-2.4941,-2.3866,-2.3424,-2.3171,0.0,0.0,0.0,0.0,0.0,0.0,0.0,0.0,0.0,0.0,0.0,0.0,0.0,0.0,0.0,0.0,0.0,0.0,0.0,-0.9911,-1.0292,-1.0726,-1.115,-1.1633,-1.2175,-1.2292,-1.2562,-1.3079,-1.341,-1.3572,-1.3492,-1.3492,-1.3492,-1.3492,-1.3492,-1.3492,-1.3492,-1.3492,-1.3572,-1.3717,-1.3717,-1.3855,0.0,0.0,0.0,0.0,0.0,0.0,0.0,0.0,-1.4568,-1.4765,0.0,-1.5684,-1.5889,-1.6474,-1.6648,-1.6648,-1.6648,-1.6648,-1.6566,0.0,0.0,0.0,0.0,0.0,0.0,0.0,0.0,0.0,0.0,0.0,0.0,0.0,0.0,0.0,0.0,0.0,0.0,0.0,0.0,0.0,0.0,0.0,0.0,0.0,0.0,0.0,0.0,-1.922,-1.9279,-1.9279,-1.9376,-1.9472,-1.968,-2.0094,-2.03,-2.0522,-2.0822,-2.0925,-2.0925,-2.0925,-2.0925,-2.0925,-2.0925,-2.1717,-2.3003,-2.3664,-2.4416,-2.5339,-2.5561,-2.529,-2.4595,-2.3522,-2.291,-2.2683,0.0,0.0,0.0,0.0,0.0,0.0,0.0,0.0,0.0,0.0,0.0,0.0,0.0,0.0,0.0,0.0,0.0,0.0,-0.9871,-1.0355,-1.0741,-1.1063,-1.1692,-1.2189,-1.2511,-1.2848,-1.3086,-1.3297,-1.3633,-1.3717,-1.3492,-1.3492,-1.3492,-1.3492,-1.3492,-1.3492,-1.3492,-1.3492,-1.3492,-1.3492,-1.3492,-1.3645,-1.3797,0.0,0.0,0.0,0.0,0.0,0.0,0.0,-1.444,-1.4937,0.0,0.0,0.0,-1.63,-1.6394,-1.6394,-1.6394,-1.6394,0.0,0.0,0.0,0.0,0.0,0.0,0.0,0.0,0.0,0.0,0.0,0.0,0.0,0.0,0.0,0.0,0.0,0.0,0.0,0.0,0.0,0.0,0.0,0.0,0.0,0.0,0.0,0.0,0.0,-1.9089,-1.9264,-1.9264,-1.9569,-1.9672,-1.9672,-2.0197,-2.0514,-2.0522,-2.0822,-2.0925,-2.0925,-2.0925,-2.0925,-2.0925,-2.0925,-2.2106,-2.4051,-2.3648,-2.372,-2.4254,-2.3916,-2.32,-2.2154,-2.1841,-2.115,-2.043,0.0,0.0,0.0,0.0,0.0,0.0,0.0,0.0,0.0,0.0,0.0,0.0,0.0,0.0,0.0,0.0,0.0,0.0,0.0,-1.0401,-1.0915,-1.107,-1.1692,-1.2189,-1.2511,-1.3067,-1.3353,-1.3425,-1.352,-1.3572,-1.3492,-1.3492,-1.3492,-1.3492,-1.3492,-1.3492,-1.3492,-1.3492,-1.3492,-1.3492,-1.3492,-1.3572,-1.3572,0.0,0.0,0.0,0.0,0.0,0.0,0.0,0.0,0.0,-1.5326,0.0,-1.5725,-1.6062,-1.6162,-1.6162,-1.6162,0.0,0.0,0.0,0.0,0.0,0.0,0.0,0.0,0.0,0.0,0.0,0.0,0.0,0.0,0.0,0.0,0.0,0.0,0.0,0.0,0.0,0.0,0.0,0.0,0.0,0.0,0.0,0.0,0.0,0.0,-1.8748,-1.8907,-1.8907,-1.91,-1.9506,-1.9945,-2.0054,-2.0374,-2.0822,-2.0822,-2.0925,-2.0925,-2.0925,-2.1318,-2.203,-2.203,-2.2655,-2.3629,-2.39,-2.4428,-2.4954,-2.4822,-2.4391,-2.374,-2.2969,-2.2931,-2.3202,0.0,0.0,0.0,0.0,0.0,0.0,0.0,0.0,0.0,0.0,0.0,0.0,0.0,0.0,0.0,0.0,0.0,0.0,0.0,0.0,-1.0952,-1.1388,-1.1826,-1.2378,-1.2899,-1.3294,-1.3492,-1.3492,-1.3492,-1.3492,-1.3492,-1.3492,-1.3492,-1.3492,-1.3492,-1.3492,-1.3492,-1.3492,-1.3492,-1.3492,-1.3492,-1.3492,-1.3492,0.0,0.0,0.0,0.0,0.0,0.0,0.0,0.0,0.0,0.0,0.0,0.0,-1.5854,-1.5914,-1.5914,-1.5914,0.0,0.0,0.0,0.0,0.0,0.0,0.0,0.0,0.0,0.0,0.0,0.0,0.0,0.0,0.0,0.0,0.0,0.0,0.0,0.0,0.0,0.0,0.0,0.0,0.0,0.0,0.0,0.0,0.0,0.0,-1.8543,-1.8723,-1.8814,-1.9102,-1.939,-1.9797,-1.9889,-2.0098,-2.0504,-2.0504,-2.0504,-2.0512,-2.0798,-2.1347,-2.2295,-2.2921,-2.3295,-2.3551,-2.434,-2.4725,-2.4867,-2.4496,-2.4421,-2.4368,-2.3454,-2.3454,-2.3907,0.0,0.0,0.0,0.0,0.0,0.0,0.0,0.0,0.0,0.0,0.0,0.0,0.0,0.0,0.0,0.0,0.0,0.0,0.0,0.0,-1.1057,-1.1754,-1.2186,-1.2723,-1.3484,-1.3492,-1.3492,-1.3492,-1.3492,-1.3492,-1.3492,-1.3492,-1.3492,-1.3492,-1.3492,-1.3492,-1.3492,-1.3492,-1.3492,-1.3492,-1.3492,-1.3492,-1.3492,-1.3492,0.0,0.0,0.0,0.0,0.0,0.0,0.0,0.0,-1.5188,-1.5502,-1.565,-1.565,-1.565,-1.565,0.0,0.0,0.0,0.0,0.0,0.0,0.0,0.0,0.0,0.0,0.0,0.0,0.0,0.0,0.0,0.0,0.0,0.0,0.0,0.0,0.0,0.0,0.0,0.0,0.0,0.0,0.0,0.0,0.0,0.0,0.0,-1.8461,-1.8724,-1.901,-1.9295,-1.9408,-1.9536,-1.9723,-1.9836,-1.9868,-1.9868,-1.9868,-1.9884,-2.0527,-2.1244,-2.1973,-2.3673,-2.4111,-2.383,-2.472,-2.4923,-2.4454,-2.3551,-2.3734,-2.4368,-2.3454,-2.3183,-2.3367,0.0,0.0,0.0,0.0,0.0,0.0,0.0,0.0,0.0,0.0,0.0,0.0,0.0,0.0,0.0,0.0,0.0,0.0,0.0,0.0,-1.1639,-1.1775,-1.2463,-1.3019,-1.3484,-1.3492,-1.3492,-1.3492,-1.3492,-1.3492,-1.3492,-1.3492,-1.3492,-1.3492,-1.3492,-1.3492,-1.3492,-1.3492,-1.3492,-1.3492,-1.3492,-1.3492,-1.3492,-1.3492,-1.3492,0.0,0.0,0.0,0.0,0.0,0.0,0.0,-1.53,-1.5455,-1.5423,-1.5423,-1.5423,-1.5423,0.0,0.0,0.0,0.0,0.0,0.0,0.0,0.0,0.0,0.0,0.0,0.0,0.0,0.0,0.0,0.0,0.0,0.0,0.0,0.0,0.0,0.0,0.0,0.0,0.0,0.0,0.0,0.0,0.0,0.0,-1.7834,-1.8082,-1.8308,-1.8605,-1.8871,-1.9099,-1.9383,-1.9479,-1.9606,0.0,-1.9868,-1.9868,-1.9868,-2.0019,-2.1003,-2.2799,-2.4354,-2.4951,-2.4839,-2.4743,-2.4633,-2.4454,-2.4272,-2.4358,-2.4368,-2.3454,-2.3551,-2.409,0.0,0.0,0.0,0.0,0.0,0.0,0.0,0.0,0.0,0.0,0.0,0.0,0.0,0.0,0.0,0.0,0.0,0.0,0.0,0.0,0.0,-1.2294,-1.2769,-1.3244,-1.3492,-1.3492,-1.3492,-1.3492,-1.3492,0.0,0.0,0.0,0.0,-1.3492,0.0,-1.3492,-1.3492,-1.3492,-1.3492,-1.3492,-1.3492,-1.3492,-1.3492,-1.3492,-1.3594,-1.3726,-1.3726,0.0,0.0,0.0,0.0,0.0,0.0,0.0,-1.5431,-1.5431,-1.5431,-1.5431,0.0,0.0,0.0,0.0,0.0,0.0,0.0,0.0,0.0,0.0,0.0,0.0,0.0,0.0,0.0,0.0,0.0,0.0,0.0,0.0,0.0,0.0,0.0,0.0,0.0,0.0,0.0,0.0,0.0,-1.7721,-1.7908,-1.7994,-1.8272,-1.8658,-1.8743,-1.8915,-1.9105,-1.9113,-1.9201,-1.9368,-1.9368,-1.9368,-1.9376,-2.047,-2.1857,-2.3303,-2.4364,-2.4902,-2.4881,-2.4643,-2.454,-2.454,-2.454,-2.454,-2.4454,-2.3907,-2.409,-2.4454,0.0,0.0,0.0,0.0,0.0,0.0,0.0,0.0,0.0,0.0,0.0,0.0,0.0,0.0,0.0,0.0,0.0,0.0,0.0,0.0,0.0,0.0,-1.3136,-1.3346,-1.3492,-1.3492,-1.3492,-1.3492,0.0,0.0,0.0,0.0,0.0,-1.3492,0.0,-1.3492,-1.3492,-1.3492,-1.3492,-1.3492,-1.3492,-1.3492,-1.3506,-1.3558,-1.3748,-1.3989,-1.4048,-1.4275,-1.4589,-1.4853,0.0,0.0,0.0,0.0,-1.5431,-1.5431,-1.5431,-1.5431,0.0,0.0,0.0,0.0,0.0,0.0,0.0,0.0,0.0,0.0,0.0,0.0,0.0,0.0,0.0,0.0,0.0,0.0,0.0,0.0,0.0,0.0,0.0,0.0,0.0,0.0,0.0,0.0,0.0,-1.7908,-1.8087,-1.8179,-1.8365,-1.8827,-1.8827,-1.8827,-1.8827,-1.8827,-1.8827,-1.8827,-1.8827,-1.892,-1.9104,-2.1133,-2.2553,-2.3345,-2.4165,-2.454,-2.454,-2.454,-2.454,-2.4454,-2.4358,-2.4358,-2.4454,-2.4358,-2.4358,-2.454,0.0,0.0,0.0,0.0,0.0,0.0,0.0,0.0,0.0,0.0,0.0,0.0,0.0,0.0,0.0,0.0,0.0,0.0,-1.1262,0.0,0.0,-1.3418,-1.347,-1.3492,-1.3492,-1.3492,-1.3492,-1.3492,0.0,0.0,0.0,0.0,0.0,-1.3492,0.0,0.0,-1.3492,-1.3492,-1.3492,-1.3492,-1.3492,-1.3492,-1.3528,-1.3806,-1.3945,-1.4018,-1.4304,-1.4611,-1.4889,-1.4926,-1.5131,0.0,0.0,0.0,-1.5431,-1.5431,-1.5431,0.0,0.0,0.0,0.0,0.0,0.0,0.0,0.0,0.0,0.0,0.0,0.0,0.0,0.0,0.0,0.0,0.0,0.0,0.0,0.0,0.0,0.0,0.0,0.0,0.0,0.0,0.0,0.0,0.0,-1.78,-1.8087,-1.8087,-1.828,-1.8566,-1.8827,-1.8827,-1.8827,-1.8827,-1.8827,-1.8827,-1.8827,-1.8827,-1.9279,-2.0167,-2.1302,-2.1866,-2.2045,-2.3764,-2.454,-2.454,-2.454,-2.454,-2.4454,-2.3637,-2.382,-2.4368,-2.3551,-2.382,-2.454,0.0,0.0,0.0,0.0,0.0,0.0,0.0,0.0,0.0,0.0,0.0,0.0,0.0,0.0,0.0,-1.0581,-1.1101,-1.1661,-1.2223,-1.2639,-1.3084,-1.3484,-1.3492,-1.3492,-1.3492,-1.3492,-1.3492,0.0,0.0,0.0,0.0,-1.3492,-1.3492,0.0,0.0,0.0,0.0,0.0,0.0,-1.3492,-1.3492,-1.3492,-1.3536,-1.3857,-1.4099,-1.4296,-1.4618,-1.494,-1.5211,-1.5211,-1.5313,-1.5431,-1.5431,0.0,0.0,0.0,-1.5431,0.0,0.0,0.0,0.0,0.0,0.0,0.0,0.0,0.0,0.0,0.0,0.0,0.0,0.0,0.0,0.0,0.0,0.0,0.0,0.0,0.0,0.0,0.0,0.0,0.0,0.0,0.0,0.0,0.0,-1.7714,-1.8001,-1.8288,-1.8481,-1.8566,-1.8827,-1.8827,-1.9096,-1.9629,-1.9629,-1.9629,-1.9629,-1.9629,-1.9894,-2.0339,-2.1239,-2.1961,-2.257,-2.3917,-2.454,-2.454,-2.454,-2.454,-2.4454,-2.409,-2.4176,-2.4454,-2.4003,-2.4186,-2.454,0.0,0.0,0.0,0.0,0.0,0.0,0.0,0.0,0.0,0.0,0.0,0.0,0.0,0.0,0.0,0.0,-1.1636,-1.2187,-1.3097,-1.3133,-1.3243,-1.3484,-1.3492,-1.3492,-1.3492,-1.3492,0.0,0.0,0.0,0.0,-1.3492,-1.3492,-1.3492,0.0,-1.3492,0.0,0.0,0.0,0.0,0.0,-1.3492,-1.3543,-1.3653,-1.3982,-1.4304,-1.4633,-1.4955,-1.5226,-1.5431,-1.5431,-1.5431,-1.5431,-1.5431,-1.5431,0.0,0.0,0.0,0.0,0.0,0.0,0.0,0.0,0.0,0.0,0.0,0.0,0.0,0.0,0.0,0.0,0.0,0.0,0.0,0.0,0.0,0.0,0.0,0.0,0.0,0.0,0.0,0.0,0.0,0.0,0.0,0.0,-1.7721,-1.8094,-1.8743,-1.8658,-1.8743,-1.918,-1.9188,-1.9538,-2.0249,-2.0339,-2.043,-2.0619,-2.0167,-2.0167,-2.0701,-2.1427,-2.2217,-2.3183,-2.409,-2.454,-2.454,-2.454,-2.4358,-2.409,-2.3917,-2.3917,-2.409,-2.3917,-2.41,-2.454,0.0,0.0,0.0,0.0,0.0,0.0,0.0,0.0,0.0,0.0,0.0,0.0,-1.0822,-1.1111,-1.1407,-1.1927,-1.2436,-1.2969,-1.3448,-1.347,-1.3477,-1.3492,-1.3492,0.0,-1.3492,-1.3492,0.0,0.0,0.0,0.0,-1.3492,-1.3492,-1.3492,-1.3492,-1.3492,-1.3492,-1.3492,0.0,0.0,0.0,0.0,0.0,0.0,0.0,0.0,0.0,0.0,0.0,-1.5431,-1.5431,-1.5431,-1.5431,-1.5431,-1.5431,-1.5431,0.0,0.0,0.0,0.0,0.0,0.0,0.0,0.0,0.0,0.0,0.0,0.0,0.0,0.0,0.0,0.0,0.0,0.0,0.0,0.0,0.0,0.0,0.0,0.0,0.0,0.0,0.0,0.0,0.0,0.0,0.0,-1.78,-1.845,-1.9446,-1.9004,-1.9271,-2.0167,-2.0249,-2.0257,-2.0339,-2.0339,-2.0709,-2.1606,-1.972,-1.9812,-2.1606,-2.1695,-2.2217,-2.3183,-2.409,-2.454,-2.454,-2.454,-2.4003,-2.3096,-2.2217,-2.2394,-2.3105,-2.2129,-2.294,-2.454,0.0,0.0,0.0,0.0,0.0,0.0,0.0,0.0,0.0,0.0,0.0,0.0,0.0,-1.1551,-1.1737,-1.2256,-1.2778,-1.315,-1.3492,-1.3492,-1.3492,-1.3492,-1.3492,-1.3492,-1.3492,-1.3492,0.0,0.0,0.0,-1.3492,-1.3492,-1.3492,-1.3492,-1.3492,-1.3492,-1.3492,-1.3492,-1.3492,0.0,0.0,0.0,0.0,0.0,0.0,0.0,0.0,0.0,0.0,0.0,-1.5431,-1.5431,-1.5431,-1.5431,-1.5741,-1.6304,-1.687,-1.7277,0.0,0.0,0.0,0.0,0.0,0.0,0.0,0.0,0.0,0.0,0.0,0.0,0.0,0.0,0.0,0.0,0.0,0.0,0.0,0.0,0.0,0.0,0.0,0.0,0.0,0.0,0.0,0.0,0.0,0.0,-1.9634,-1.9968,-2.0439,-2.0799,-2.1159,-2.1239,-2.1507,-2.212,-2.2658,-2.258,-2.1695,-2.0979,-2.1069,-2.1695,-2.1695,-2.258,-2.4003,-2.4358,-2.454,-2.454,-2.454,-2.3917,-2.3096,-2.3377,-2.3367,-2.3096,-2.3377,-2.3917,-2.454,0.0,0.0,0.0,0.0,0.0,0.0,0.0,0.0,0.0,0.0,0.0,0.0,0.0,0.0,-1.2263,-1.2785,-1.315,-1.3346,-1.3492,-1.3492,-1.3492,-1.3492,-1.3492,-1.3492,-1.3492,-1.3492,0.0,0.0,0.0,0.0,0.0,-1.3492,-1.3492,-1.3492,-1.3492,-1.3492,0.0,0.0,0.0,-1.3989,0.0,0.0,-1.4648,0.0,0.0,0.0,0.0,0.0,0.0,0.0,0.0,0.0,-1.5741,-1.6468,-1.7269,-1.7836,-1.8238,0.0,0.0,0.0,0.0,0.0,0.0,0.0,0.0,0.0,0.0,0.0,0.0,0.0,0.0,0.0,0.0,0.0,0.0,0.0,0.0,0.0,0.0,0.0,0.0,0.0,0.0,0.0,0.0,0.0,0.0,0.0,-2.0642,-2.102,-2.1434,-2.1923,-2.2054,-2.2658,-2.3551,-2.3907,-2.356,-2.2668,-2.1961,-2.205,-2.2668,-2.2315,-2.3018,-2.454,-2.454,-2.454,-2.454,-2.454,-2.3917,-2.3183,-2.382,-2.3637,-2.3183,-2.382,-2.4272,-2.454,0.0,0.0,0.0,0.0,0.0,0.0,0.0,0.0,0.0,0.0,0.0,0.0,0.0,0.0,0.0,-1.347,-1.3492,-1.3492,-1.3492,-1.3492,-1.3492,-1.3492,-1.3492,-1.3492,-1.3492,-1.3492,0.0,0.0,0.0,0.0,0.0,0.0,-1.3492,-1.3492,-1.3506,-1.3514,-1.3536,0.0,-1.3996,-1.404,0.0,-1.4677,-1.4874,0.0,0.0,0.0,-1.5431,-1.5431,0.0,0.0,0.0,0.0,0.0,0.0,-1.8078,-1.8078,0.0,0.0,0.0,0.0,0.0,0.0,0.0,0.0,0.0,0.0,0.0,0.0,0.0,0.0,0.0,0.0,0.0,0.0,0.0,0.0,0.0,0.0,0.0,0.0,0.0,0.0,0.0,0.0,0.0,0.0,-1.9689,-2.0373,-2.1393,-2.0727,-2.0987,-2.2412,-2.2842,-2.3511,-2.4413,-2.3607,-2.3531,-2.4433,-2.258,-2.2677,-2.4454,-2.3551,-2.3637,-2.454,-2.454,-2.4454,-2.4454,-2.4454,-2.3907,-2.3096,-2.3096,-2.3096,-2.3096,-2.3096,-2.3724,-2.454,0.0,0.0,0.0,0.0,0.0,0.0,0.0,0.0,0.0,0.0,0.0,0.0,-1.3251,-1.3295,-1.3324,-1.3266,-1.3419,-1.3492,-1.3492,-1.3492,-1.3492,-1.3492,-1.3492,-1.3492,-1.3492,-1.3492,0.0,0.0,0.0,0.0,0.0,0.0,0.0,0.0,-1.374,-1.385,-1.385,-1.3945,0.0,0.0,-1.4772,-1.5006,0.0,0.0,0.0,0.0,0.0,-1.5431,-1.5431,0.0,-1.5431,-1.5673,0.0,0.0,0.0,0.0,0.0,0.0,-2.0245,0.0,0.0,0.0,0.0,0.0,0.0,0.0,0.0,0.0,0.0,0.0,0.0,0.0,0.0,0.0,0.0,0.0,0.0,0.0,0.0,0.0,0.0,0.0,0.0,0.0,0.0,0.0,-2.0545,-2.1432,-2.1622,-2.2073,-2.2563,-2.2941,-2.3063,-2.3299,-2.3567,-2.3627,-2.3432,-2.2988,-2.2776,-2.3008,-2.3454,-2.3183,-2.3637,-2.454,-2.454,-2.409,-2.3464,-2.3464,-2.3367,-2.3096,-2.3096,-2.3096,-2.3183,-2.382,-2.4272,-2.454,0.0,0.0,0.0,0.0,0.0,0.0,0.0,0.0,0.0,0.0,0.0,0.0,-1.3477,-1.3492,-1.3419,-1.3346,-1.3419,-1.3492,-1.3492,-1.3492,-1.3492,-1.3492,-1.3492,-1.3492,-1.3492,-1.3492,0.0,0.0,0.0,0.0,0.0,0.0,0.0,0.0,0.0,0.0,0.0,0.0,0.0,0.0,-1.5012,0.0,0.0,-1.5431,-1.5431,0.0,0.0,0.0,-1.5431,-1.5431,-1.5665,0.0,0.0,0.0,0.0,0.0,0.0,0.0,0.0,0.0,0.0,0.0,0.0,0.0,-1.8895,-1.7997,0.0,0.0,0.0,0.0,0.0,0.0,0.0,0.0,0.0,0.0,0.0,0.0,0.0,0.0,0.0,0.0,0.0,-1.9618,-1.9957,-2.0014,-2.1095,-2.1767,-2.175,-2.2278,-2.2615,-2.2615,-2.2615,-2.2615,-2.2615,-2.2884,-2.2756,-2.2159,-2.2609,-2.2818,-2.2818,-2.3008,-2.3446,-2.3981,-2.3981,-2.3625,-2.3098,-2.2729,-2.2764,-2.3096,-2.3096,-2.3367,-2.3724,-2.4272,-2.454,-2.454,0.0,0.0,0.0,0.0,0.0,0.0,0.0,0.0,0.0,0.0,-1.3492,-1.3492,-1.3492,-1.3492,-1.3492,-1.3492,-1.3492,-1.3492,-1.3492,-1.3492,-1.3492,-1.3492,-1.3492,-1.3492,-1.3492,-1.3492,0.0,0.0,0.0,0.0,0.0,0.0,0.0,0.0,0.0,0.0,0.0,0.0,0.0,-1.494,-1.5313,-1.5431,0.0,0.0,-1.5431,0.0,-1.5431,-1.5431,-1.5431,-1.5431,-1.5982,0.0,0.0,0.0,0.0,0.0,-2.0489,0.0,0.0,0.0,0.0,0.0,0.0,0.0,-1.8638,-1.8238,-1.7917,0.0,0.0,0.0,0.0,0.0,0.0,0.0,0.0,0.0,0.0,0.0,0.0,0.0,0.0,0.0,-2.0644,-2.0819,-2.0964,-2.1135,-2.1314,-2.1425,-2.1652,-2.1652,-2.1652,-2.1652,-2.1652,-2.1652,-2.1652,-2.1704,-2.1725,-2.1735,-2.2201,-2.2418,-2.2439,-2.2842,-2.2979,-2.294,-2.3111,-2.3051,-2.2839,-2.2053,-2.2256,-2.3132,-2.2959,-2.3487,-2.4395,-2.4447,-2.4467,-2.4478,-1.4828,0.0,0.0,0.0,0.0,0.0,0.0,0.0,0.0,0.0,0.0,-1.3492,-1.3492,-1.3492,-1.3492,-1.3492,-1.3492,-1.3492,-1.3492,-1.3492,-1.3492,-1.3492,-1.3492,-1.3492,-1.3492,-1.3492,-1.3492,0.0,0.0,0.0,0.0,0.0,0.0,0.0,0.0,0.0,0.0,0.0,0.0,-1.5343,-1.5401,0.0,-1.5431,-1.5431,-1.5431,-1.5431,-1.5431,-1.5431,-1.5431,0.0,-1.5982,-1.6698,0.0,0.0,0.0,0.0,0.0,0.0,0.0,0.0,0.0,0.0,0.0,0.0,-2.0157,-1.9529,-1.9213,0.0,0.0,0.0,0.0,0.0,0.0,0.0,0.0,0.0,0.0,0.0,0.0,0.0,0.0,0.0,-2.0819,-2.0906,-2.0911,-2.0917,-2.0687,-2.0628,-2.069,-2.069,-2.069,-2.069,-2.069,-2.069,-2.069,-2.1062,-2.1248,-2.1248,-2.1714,-2.1942,-2.1942,-2.2035,-2.1873,-2.165,-2.2308,-2.201,-2.1061,-2.1549,-2.2244,-2.3104,-2.231,-2.2579,-2.3494,-2.3877,-2.4002,-2.4053,-1.5663,0.0,0.0,0.0,0.0,0.0,0.0,0.0,0.0,0.0,0.0,0.0,0.0,0.0,0.0,-1.3492,-1.3492,-1.3492,-1.3492,-1.3492,-1.3492,-1.3492,-1.3492,-1.3492,-1.3492,-1.3653,-1.374,0.0,0.0,0.0,0.0,0.0,0.0,0.0,0.0,0.0,0.0,0.0,-1.687,-1.6064,-1.6064,0.0,-1.5431,-1.5431,-1.5431,-1.5431,-1.5431,-1.5431,-1.5431,-1.5431,-1.5665,0.0,0.0,-1.7261,-1.8158,0.0,-1.9618,-2.001,0.0,0.0,0.0,-2.0566,0.0,0.0,0.0,-1.9618,-1.946,0.0,0.0,0.0,0.0,0.0,0.0,0.0,0.0,0.0,0.0,0.0,0.0,0.0,0.0,0.0,-2.0906,-2.0984,-2.0948,-2.0785,-2.075,-2.0669,-2.0431,-2.0213,-2.0089,-2.0089,-1.9862,-1.9748,-1.9748,-1.9975,-2.0089,-2.01,-2.0565,-2.0783,-2.0793,-2.0632,-2.0622,-2.0833,-2.0843,-2.0854,-2.0859,-2.1242,-2.1873,-2.2453,-2.1885,-2.2319,-2.3215,-2.3453,-2.3536,-2.3598,-1.6237,0.0,0.0,0.0,0.0,0.0,0.0,0.0,0.0,0.0,0.0,0.0,0.0,0.0,0.0,0.0,0.0,-1.3521,0.0,0.0,-1.3616,-1.3682,-1.3822,-1.3822,-1.3682,-1.4081,-1.4221,-1.4077,0.0,0.0,0.0,0.0,0.0,0.0,0.0,0.0,0.0,0.0,0.0,-1.6944,0.0,-1.6468,-1.5431,-1.559,-1.5665,-1.5665,-1.5831,-1.5914,-1.5914,-1.5748,0.0,-1.5989,-1.6304,-1.678,0.0,0.0,0.0,0.0,0.0,0.0,0.0,0.0,0.0,-2.0411,0.0,0.0,0.0,0.0,0.0,0.0,0.0,0.0,0.0,0.0,0.0,0.0,0.0,0.0,0.0,0.0,0.0,0.0,0.0,-2.1058,-2.1075,-2.0849,-2.0884,-2.0783,-2.0327,-1.9955,-1.9785,-1.9702,-1.9328,-1.9075,-1.9075,-1.9075,-1.9075,-1.9075,-1.9448,-1.9702,-1.9644,-1.9344,-1.9554,-2.0002,-1.9563,-1.9895,-2.0769,-2.1009,-2.1331,-2.168,-2.174,-2.2231,-2.2925,-2.3018,-2.306,-2.3122,-1.7725,-1.7657,0.0,0.0,0.0,0.0,0.0,0.0,0.0,0.0,0.0,0.0,0.0,0.0,0.0,0.0,0.0,0.0,-1.3909,0.0,0.0,-1.4348,-1.5088,-1.5088,-1.4432,-1.5127,-1.515,-1.4414,0.0,0.0,0.0,0.0,0.0,0.0,-1.7624,0.0,0.0,0.0,-1.8647,0.0,-1.8727,-1.7521,0.0,-1.6221,-1.6535,-1.6617,-1.7432,-1.7674,-1.7594,0.0,-1.7107,-1.7432,0.0,-1.7123,-1.8895,0.0,0.0,0.0,0.0,0.0,0.0,0.0,-2.0566,0.0,0.0,0.0,0.0,-2.0489,0.0,0.0,0.0,0.0,0.0,0.0,0.0,0.0,0.0,0.0,0.0,0.0,0.0,0.0,0.0,-2.1135,-2.1102,-2.105,-2.0731,-2.0307,-1.9862,-1.9789,-1.964,-1.9158,-1.9162,-1.9075,-1.9075,-1.9075,-1.9075,-1.9075,-1.9116,-1.9214,-1.9147,-1.9132,-1.895,-1.8752,-1.9473,-1.9586,-1.9511,-2.0645,-2.1145,-2.1238,-2.1603,-2.1876,-2.2014,-2.2418,-2.2573,-2.2646,-1.8008,-1.7657,0.0,0.0,0.0,0.0,0.0,0.0,0.0,0.0,0.0,0.0,0.0,0.0,0.0,0.0,0.0,-1.4121,0.0,0.0,0.0,0.0,0.0,0.0,-1.455,-1.5475,-1.5795,-1.5504,-1.6553,0.0,0.0,0.0,0.0,0.0,-1.8497,0.0,-1.8807,0.0,0.0,0.0,0.0,0.0,0.0,-1.7107,-1.7423,-1.7513,-1.7836,-1.7997,-1.7917,0.0,-1.7342,0.0,0.0,0.0,0.0,0.0,0.0,0.0,0.0,0.0,0.0,0.0,0.0,0.0,-2.0566,0.0,-2.0566,0.0,0.0,0.0,0.0,0.0,0.0,0.0,-2.0566,0.0,0.0,0.0,0.0,0.0,0.0,0.0,0.0,0.0,0.0,0.0,-2.0792,-2.0483,-2.0172,-2.0151,-1.9934,-1.9557,-1.9536,-1.9412,-1.9075,-1.9075,-1.9075,-1.9075,-1.9075,-1.9075,-1.9075,-1.8654,-1.862,-1.8869,-1.8791,-1.9052,-1.9576,-2.038,-2.0866,-2.1155,-2.1621,-2.1807,-2.1828,-2.2025,-2.2097,-2.2159,-1.8144,0.0,0.0,0.0,0.0,0.0,0.0,0.0,0.0,0.0,0.0,0.0,-1.5194,-1.4981,0.0,0.0,-1.4621,-1.4736,0.0,0.0,-1.487,0.0,0.0,0.0,0.0,0.0,-1.6708,-1.6708,0.0,0.0,0.0,0.0,0.0,0.0,0.0,-1.9696,-1.9696,0.0,0.0,-1.8798,-1.9371,-1.8886,-1.7827,-1.8238,-1.8559,-1.8807,-1.8807,-1.8798,-1.8877,-1.8638,-1.823,0.0,-1.8069,0.0,0.0,0.0,0.0,0.0,-2.0411,0.0,0.0,0.0,0.0,0.0,0.0,0.0,0.0,0.0,0.0,0.0,0.0,0.0,0.0,0.0,0.0,-2.0566,0.0,0.0,0.0,0.0,0.0,0.0,0.0,0.0,0.0,-2.1182,-2.1087,-2.0882,-2.0638,-2.0617,-2.041,-1.9955,-1.9831,-1.9671,-1.9328,-1.9137,-1.9075,-1.9075,-1.9075,-1.9075,-1.9065,-1.8519,-1.8586,-1.9075,-1.8519,-1.8768,-1.9682,-2.0182,-2.0627,-2.0979,-2.158,-2.1807,-2.1807,-2.1807,-2.1807,-2.1859,-1.8337,-1.8144,0.0,0.0,0.0,0.0,0.0,0.0,0.0,0.0,0.0,0.0,0.0,0.0,0.0,0.0,0.0,-1.5366,-1.7311,0.0,-1.5771,0.0,0.0,-1.6985,0.0,0.0,0.0,-1.798,0.0,0.0,0.0,0.0,0.0,0.0,0.0,-2.0566,-2.0566,-2.0566,-2.0566,-2.0489,-2.0566,-2.0489,-2.0401,0.0,-1.9863,-2.0829,-2.0829,0.0,0.0,-2.0148,-2.0245,0.0,0.0,0.0,0.0,0.0,0.0,0.0,0.0,0.0,0.0,-2.0566,0.0,0.0,0.0,0.0,-2.0566,0.0,0.0,0.0,0.0,0.0,0.0,-2.0566,0.0,0.0,0.0,0.0,0.0,0.0,0.0,0.0,0.0,0.0,0.0,-2.1482,-2.1482,-2.1353,-2.1114,-2.1093,-2.0886,-2.042,-1.9986,-1.9827,-1.9806,-1.9292,-1.9075,-1.9075,-1.9075,-1.9075,-1.9075,-1.9065,-1.9065,-1.9075,-1.9065,-1.9085,-1.9158,-2.0058,-2.0431,-2.0534,-2.1445,-2.1807,-2.1807,-2.1807,-2.1807,-2.1807,0.0,0.0,0.0,0.0,0.0,0.0,0.0,-1.5988,0.0,0.0,0.0,0.0,0.0,-1.683,-1.6581,0.0,0.0,-1.6485,-1.7721,-1.7249,0.0,0.0,0.0,-1.7674,0.0,0.0,0.0,0.0,0.0,0.0,0.0,0.0,0.0,0.0,0.0,-2.0566,0.0,0.0,0.0,0.0,0.0,-2.0245,-2.0741,0.0,0.0,-2.0906,-2.1061,-2.1128,0.0,-2.0876,-2.0557,-2.0235,-2.0313,-2.0313,-2.0313,-2.0566,-2.0886,0.0,0.0,0.0,-2.0964,-2.0819,0.0,0.0,0.0,0.0,0.0,0.0,0.0,0.0,0.0,0.0,-2.0566,-2.0566,-2.0566,0.0,0.0,0.0,-2.0566,0.0,0.0,0.0,0.0,0.0,0.0,-2.1502,-2.1502,-2.1517,-2.158,-2.1569,-2.1362,-2.0897,-2.0741,-2.0369,-1.9837,-1.9671,-1.9443,-1.9075,-1.9075,-1.9075,-1.9075,-1.9075,-1.9075,-1.9075,-1.9075,-1.9075,-1.9137,-2.0048,-2.042,-2.0514,-2.1445,-2.1807,-2.1807,-2.1807,-2.1807,-2.1807,-2.0237,0.0,0.0,0.0,0.0,0.0,0.0,0.0,0.0,0.0,-1.7949,0.0,-1.8752,0.0,-1.7836,0.0,-1.735,-1.7342,-1.8798,-1.8149,0.0,-1.8966,-1.847,0.0,0.0,0.0,0.0,0.0,0.0,-2.0566,0.0,0.0,0.0,0.0,0.0,0.0,0.0,0.0,-2.0411,0.0,0.0,-2.0489,0.0,0.0,-2.1061,-2.1061,0.0,-2.1359,-2.1436,-2.1436,-2.1021,-2.0547,-2.1185,-2.0954,-2.0547,-2.1118,-2.1282,-2.1282,-2.1205,-2.1205,0.0,-2.1061,-2.0984,0.0,-2.0731,0.0,0.0,0.0,0.0,0.0,0.0,0.0,0.0,-2.0731,-2.0644,-2.0566,0.0,-2.0566,-2.0566,0.0,0.0,0.0,0.0,0.0,-2.1215,-2.1502,-2.1502,-2.1578,0.0,0.0,-2.1662,-2.1373,-2.1207,-2.0834,-2.0245,-1.9924,-1.9682,-1.938,-1.9147,-1.9075,-1.9075,-1.9075,-1.9075,-1.9075,-1.9075,-1.9075,-1.9137,-2.0048,-2.042,-2.0514,-2.1445,-2.1807,-2.1807,-2.1807,-2.1807,-2.1731,0.0,0.0,0.0,0.0,-1.9545,0.0,0.0,0.0,-1.8945,0.0,-1.9608,-1.9381,-1.9381,-1.9381,-1.9381,-1.9381,-1.7836,0.0,-2.0479,-1.8452,0.0,0.0,-1.9502,-1.9492,-2.1128,0.0,0.0,0.0,0.0,0.0,0.0,0.0,0.0,0.0,-2.0644,0.0,-2.0906,-2.0906,-2.1061,-2.1205,-2.1205,-2.1205,-2.1205,-2.1436,-2.1359,-2.1205,-2.1436,-2.1655,-2.1807,-2.1807,-2.1655,-2.1578,-2.1731,-2.1655,-2.1502,-2.1502,-2.1502,-2.1512,-2.1282,-2.1205,-2.1205,-2.1205,-2.1205,0.0,0.0,0.0,-2.0906,0.0,0.0,0.0,0.0,0.0,0.0,-2.0829,-2.0731,-2.0566,-2.0566,0.0,-2.0566,-2.0566,0.0,0.0,0.0,-2.0906,-2.1051,-2.1436,-2.1502,0.0,0.0,0.0,-2.1807,-2.1807,-2.1383,-2.1135,-2.1114,-2.0255,-1.9869,-1.9827,-1.938,-1.9096,-1.9075,-1.9075,-1.9075,-1.9075,-1.9075,-1.9075,-1.9137,-2.0048,-2.042,-2.0514,-2.1445,-2.1807,-2.1807,-2.1807,-2.1807,-2.1731,-2.1381,-2.1241,-2.1165,0.0,-2.0591,-2.0342,0.0,0.0,0.0,0.0,-2.01,-1.9991,-2.0644,-2.0157,-1.9991,-2.0654,-1.9668,0.0,0.0,0.0,0.0,-2.1128,-2.0722,-2.0722,-2.1205,-2.0809,0.0,-2.0906,0.0,0.0,-2.0566,0.0,0.0,0.0,0.0,0.0,-2.0906,-2.1061,-2.1205,-2.1436,-2.1436,-2.1436,0.0,0.0,-2.1578,-2.1425,-2.1655,-2.1731,-2.1807,-2.1807,-2.1807,-2.1731,-2.1807,-2.1731,-2.1731,-2.1731,-2.1731,-2.1731,-2.1655,-2.1655,-2.1578,-2.1436,-2.1436,-2.1359,0.0,0.0,0.0,0.0,0.0,0.0,0.0,0.0,0.0,0.0,0.0,0.0,0.0,0.0,0.0,-2.0566,0.0,0.0,0.0,-2.0974,-2.1205,-2.1282,-2.1578,0.0,0.0,0.0,0.0,-2.1807,-2.1694,-2.1455,-2.1124,-2.0886,-2.0431,-1.9827,-1.9713,-1.9474,-1.9075,-1.9075,-1.9075,-1.9075,-1.9075,-1.9075,-1.9137,-2.0048,-2.042,-2.0514,-2.1445,-2.1807,-2.1807,-2.1807,-2.1731,-2.1425,-2.1807,0.0,0.0,-2.1655,0.0,0.0,-2.1021,0.0,0.0,-2.0974,-2.0722,0.0,-2.1128,-2.0799,-2.0634,-2.1128,-2.0391,0.0,-2.1128,0.0,0.0,-2.1282,-2.1436,-2.1436,-2.1436,-2.1282,0.0,-2.1138,0.0,0.0,-2.0886,0.0,0.0,0.0,0.0,-2.1061,0.0,-2.1359,-2.1502,-2.1655,-2.1655,0.0,0.0,-2.1731,-2.1731,-2.1655,-2.1731,-2.1807,-2.1807,-2.1807,-2.1807,-2.1807,-2.1807,-2.1807,-2.1807,-2.1807,-2.1807,-2.1807,-2.1807,-2.1807,-2.1807,-2.1655,-2.1655,-2.1578,-2.1359,-2.1359,-2.1359,0.0,-2.1282,-2.1205,0.0,0.0,0.0,0.0,0.0,0.0,0.0,0.0,0.0,0.0,-2.0731,0.0,0.0,-2.1041,-2.1282,-2.1215,0.0,0.0,0.0,0.0,0.0,-2.1807,-2.1807,-2.1683,-2.1414,-2.1217,-2.0855,-2.0348,-1.9955,-1.9692,-1.9432,-1.9158,-1.9075,-1.9075,-1.9075,-1.9075,-1.9137,-2.0048,-2.042,-2.0514,-2.1445,-2.1731,-2.1655,-2.1655,-2.1589,-2.1349,0.0,0.0,0.0,0.0,0.0,0.0,0.0,-2.1282,0.0,-2.1205,0.0,-2.1282,-2.1282,-2.1282,-2.1282,-2.1282,0.0,-2.0459,-2.1205,-2.0692,-2.0769,-2.1502,-2.1731,-2.1807,-2.1807,-2.1578,0.0,0.0,0.0,0.0,0.0,0.0,0.0,0.0,0.0,0.0,0.0,-2.1731,-2.1807,0.0,-2.1807,-2.1807,-2.1807,-2.1807,-2.1807,-2.1807,-2.1807,-2.1807,-2.1807,-2.1807,-2.1807,-2.1807,-2.1807,-2.1807,-2.1807,-2.1807,-2.1807,-2.1807,-2.1807,-2.1807,-2.1807,-2.1807,-2.1807,-2.1731,-2.1578,-2.1502,-2.1502,-2.1502,-2.1436,-2.1359,0.0,0.0,0.0,0.0,0.0,0.0,0.0,0.0,0.0,0.0,0.0,0.0,0.0,0.0,0.0,0.0,0.0,0.0,0.0,0.0,0.0,-2.1807,-2.1807,-2.1807,-2.1807,0.0,-2.1176,-2.1104,-2.0317,-1.9882,-1.9817,-1.9344,-1.9127,-1.9075,-1.9075,-1.9075,-1.9137,-2.0048,-2.0493,-2.069,-2.1487,-2.1655,-2.1512,-2.1502,-2.1502,-2.1349,0.0,0.0,0.0,0.0,0.0,-2.1807,-2.1731,-2.1655,-2.1655,-2.1512,-2.1578,-2.1655,-2.1655,-2.1655,-2.1655,-2.1655,-2.1568,0.0,0.0,0.0,0.0,-2.1731,-2.1807,-2.1807,-2.1807,-2.1578,-2.1502,0.0,0.0,0.0,0.0,0.0,0.0,0.0,0.0,0.0,-2.1731,-2.1807,0.0,-2.1807,-2.1807,-2.1807,-2.1807,-2.1807,-2.1807,-2.1807,-2.1807,-2.1807,-2.1807,-2.1807,-2.1807,-2.1807,-2.1807,-2.1807,-2.1807,-2.1807,-2.1807,-2.1807,-2.1807,-2.1807,-2.1807,-2.1807,-2.1807,-2.1807,-2.1731,-2.1731,-2.1731,-2.1731,-2.1731,-2.1655,-2.1578,0.0,0.0,0.0,0.0,0.0,0.0,0.0,0.0,0.0,0.0,-2.0964,0.0,0.0,0.0,0.0,0.0,0.0,0.0,0.0,0.0,0.0,-2.1807,0.0,0.0,0.0,-2.1487,-2.1114,-2.0959,-2.0493,-1.9827,-1.9675,-1.9505,-1.9075,-1.9075,-1.9075,-1.9137,-2.0048,-2.0876,-2.158,-2.1745,-2.1807,-2.1731,-2.1578,-2.1359,-2.1118,0.0,0.0,0.0,0.0,0.0,0.0,0.0,-2.2004,0.0,-2.1686,-2.1937,-2.2159,-2.2159,-2.2377,-2.2522,-2.2522,-2.2522,-2.2522,-2.2522,-2.2294,-2.2159,-2.2159,-2.1932,0.0,-2.1807,-2.1731,-2.1655,-2.1655,0.0,0.0,0.0,0.0,0.0,0.0,0.0,-2.1731,0.0,0.0,0.0,-2.1807,-2.1807,-2.1807,-2.1807,-2.1807,-2.1807,-2.1807,-2.1807,-2.1807,-2.1807,-2.1807,-2.1807,-2.1807,-2.1807,-2.1807,-2.1807,-2.1807,-2.1807,-2.1807,-2.1807,-2.1807,-2.1807,-2.1807,-2.1807,-2.1807,-2.1807,-2.1807,-2.1807,-2.1807,-2.1807,-2.1731,-2.1512,-2.1436,0.0,0.0,0.0,0.0,0.0,0.0,0.0,0.0,0.0,0.0,0.0,0.0,0.0,0.0,0.0,0.0,0.0,0.0,0.0,0.0,0.0,0.0,0.0,0.0,0.0,-2.1476,-2.1228,-2.0886,-2.0452,-1.9975,-1.9713,-1.9484,-1.9178,-1.9075,-1.9137,-2.0048,-2.0969,-2.1807,-2.1807,-2.1655,-2.1512,-2.1359,-2.1118,-2.0809,0.0,-2.189,0.0,0.0,-2.189,0.0,-2.1952,-2.2346,-2.248,-2.2014,-2.2356,-2.2646,-2.2646,-2.2967,-2.3184,-2.3184,-2.3184,-2.3184,-2.3184,-2.2842,-2.2646,-2.2646,-2.2201,-2.1952,-2.1952,-2.1859,-2.1807,0.0,0.0,0.0,0.0,0.0,0.0,0.0,0.0,0.0,0.0,0.0,-2.1807,-2.1807,-2.1807,-2.1807,-2.1807,-2.1807,-2.1807,-2.1807,-2.1807,-2.1807,-2.1807,-2.1807,-2.1807,-2.1807,-2.1807,-2.1807,-2.1807,-2.1807,-2.1807,-2.1807,-2.1807,-2.1807,-2.1807,-2.1807,-2.1807,-2.1807,-2.1807,-2.1807,-2.1807,-2.1807,-2.1807,-2.1731,-2.1578,-2.1578,0.0,0.0,0.0,0.0,0.0,0.0,0.0,0.0,0.0,0.0,-2.0984,0.0,0.0,0.0,0.0,0.0,0.0,0.0,0.0,0.0,0.0,-2.1807,-2.1731,0.0,-2.1807,-2.1797,-2.1435,-2.1207,-2.1093,-2.0379,-1.9944,-1.9806,-1.9375,-1.9272,-1.9417,-2.0163,-2.0989,-2.1731,-2.1655,-2.1502,-2.1205,-2.1128,-2.0974,-2.0566,0.0,0.0,0.0,0.0,0.0,0.0,-2.2428,-2.2822,-2.2956,-2.249,-2.2832,-2.3122,-2.3122,-2.3163,-2.3184,-2.3184,-2.3184,-2.3184,-2.3184,-2.3153,-2.3122,-2.3122,-2.2677,-2.2428,-2.2428,-2.2025,-2.1807,0.0,0.0,-2.1807,0.0,0.0,0.0,0.0,0.0,0.0,0.0,-2.1807,-2.1807,-2.1807,-2.1807,-2.1807,-2.1807,-2.1807,-2.1807,-2.1807,-2.1807,-2.1807,-2.1807,-2.1807,-2.1807,-2.1807,-2.1807,-2.1807,-2.1807,-2.1807,-2.1807,-2.1807,-2.1807,-2.1807,-2.1807,-2.1807,-2.1807,-2.1807,-2.1807,-2.1807,-2.1807,-2.1807,-2.1807,-2.1807,-2.1807,-2.1807,-2.1807,0.0,0.0,0.0,0.0,0.0,0.0,0.0,0.0,0.0,0.0,-2.0984,0.0,0.0,0.0,0.0,0.0,0.0,0.0,-2.1502,0.0,-2.1731,-2.1502,-2.1731,-2.1807,-2.1807,-2.1766,-2.1518,-2.1114,-2.1031,-2.0534,-1.9827,-1.9785,-1.9924,-2.0267,-2.0626,-2.1053,-2.1502,-2.1359,-2.1205,-2.1205,-2.0984,-2.0906,-2.0741,0.0,0.0,0.0,0.0,0.0,0.0,0.0,-2.3308,-2.3536,-2.335,-2.3484,-2.3598,-2.3598,-2.3846,-2.4002,-2.4002,-2.4002,-2.4002,-2.4002,-2.3753,-2.3598,-2.3598,-2.3153,-2.278,-2.2501,-2.2315,-2.2087,0.0,0.0,0.0,0.0,0.0,0.0,0.0,0.0,-2.1807,-2.1807,-2.1807,-2.1807,-2.1807,-2.1807,-2.1807,-2.1807,-2.1807,-2.1807,-2.1807,-2.1807,-2.1807,-2.1807,-2.1807,-2.1807,-2.1807,-2.1807,-2.1807,-2.1807,-2.1807,-2.1807,-2.1807,-2.1807,-2.1807,-2.1807,-2.1807,-2.1807,-2.1807,-2.1807,-2.1807,-2.1807,-2.1807,-2.1807,-2.1807,-2.1807,-2.1807,-2.1807,-2.1807,0.0,0.0,0.0,0.0,0.0,0.0,0.0,0.0,0.0,0.0,0.0,0.0,0.0,0.0,0.0,0.0,0.0,-2.1502,0.0,-2.1731,-2.1502,-2.1731,-2.1807,-2.1807,-2.1807,-2.1714,-2.1518,-2.1238,-2.0617,-1.9779,-1.9908,-2.0124,-2.039,-2.0571,-2.0954,-2.1502,-2.1282,-2.1138,-2.0984,-2.0906,-2.0819,-2.0498,-2.2893,0.0,-2.3106,0.0,-2.3379,-2.3473,-2.3391,-2.3784,-2.4074,-2.4074,-2.4074,-2.4074,-2.4074,-2.4353,-2.454,-2.454,-2.454,-2.454,-2.454,-2.425,-2.4074,-2.4074,-2.3639,0.0,-2.2915,-2.277,-2.247,-2.2004,-2.2004,0.0,0.0,0.0,0.0,0.0,-2.1807,-2.1807,-2.1807,-2.1807,-2.1807,-2.1807,-2.1807,-2.1807,-2.1807,-2.1807,-2.1807,-2.1807,-2.1807,-2.1807,-2.1807,-2.1807,-2.1807,-2.1807,-2.1807,-2.1807,-2.1807,-2.1807,-2.1807,-2.1807,-2.1807,-2.1807,-2.1807,-2.1807,-2.1807,-2.1807,-2.1807,-2.1807,-2.1807,-2.1807,-2.1807,-2.1807,-2.1807,-2.1807,-2.1807,-2.1807,0.0,0.0,0.0,0.0,0.0,0.0,-2.1807,-2.1731,-2.1578,0.0,0.0,0.0,0.0,0.0,0.0,0.0,0.0,0.0,0.0,0.0,-2.1502,-2.1731,-2.1807,-2.1807,-2.1807,-2.1807,-2.1787,-2.1331,-2.0762,-2.0172,-2.035,-2.0411,-2.0524,-2.0616,-2.0923,-2.1282,-2.1118,-2.0974,-2.0819,-2.0819,-2.0731,-2.0323,-2.3972,-2.4158,-2.4257,-2.358,-2.3885,-2.4116,-2.395,-2.425,-2.4444,-2.4444,-2.4444,-2.4444,-2.4444,-2.454,-2.454,-2.454,-2.454,-2.454,-2.454,-2.454,-2.4444,0.0,0.0,-2.3867,-2.3857,-2.3412,-2.2956,-2.249,0.0,0.0,-2.1807,0.0,-2.1807,-2.1807,-2.1807,-2.1807,-2.1807,-2.1807,-2.1807,-2.1807,-2.1807,-2.1807,-2.1807,-2.1807,-2.1807,-2.1807,-2.1807,-2.1807,-2.1807,-2.1807,-2.1807,-2.1807,-2.1807,-2.1807,-2.1807,-2.1807,-2.1807,-2.1807,-2.1807,-2.1807,-2.1807,-2.1807,-2.1807,-2.1807,-2.1807,-2.1807,-2.1807,-2.1807,-2.1807,-2.1807,-2.1807,-2.1807,-2.1807,-2.1807,0.0,0.0,0.0,0.0,0.0,-2.1807,-2.1807,-2.1807,-2.1807,0.0,0.0,0.0,0.0,0.0,0.0,0.0,0.0,-2.1502,-2.1731,0.0,-2.1502,-2.1731,-2.1807,-2.1807,-2.1807,-2.1807,-2.1787,-2.1331,-2.1104,-2.1093,-2.1104,-2.0956,-2.0849,-2.109,-2.1051,-2.0906,-2.0654,-2.0644,-2.0566,-2.0566,-2.0566,-2.0323,-2.4324,-2.4392,-2.4541,-2.4649,-2.4797,-2.4819,-2.4651,-2.4692,-2.47,-2.454,-2.454,-2.454,-2.454,-2.454,-2.454,0.0,-2.454,-2.454,0.0,-2.454,-2.454,-2.454,-2.4565,-2.4346,-2.3888,-2.3898,-2.3667,-2.3207,0.0,0.0,0.0,-2.2101,-2.2111,-2.2025,-2.2025,-2.2101,-2.2176,-2.1959,-2.1883,-2.1949,-2.1883,-2.1807,-2.1807,-2.1807,-2.1807,-2.1807,-2.1807,-2.1807,-2.1807,-2.1807,-2.1807,-2.1807,-2.1807,-2.1807,-2.1807,-2.1807,-2.1807,-2.1807,-2.1807,-2.1807,-2.1807,-2.1807,-2.1807,-2.1807,-2.1807,-2.1807,-2.1807,-2.1807,-2.1807,-2.1807,-2.1807,-2.1807,-2.1807,-2.1807,-2.1807,0.0,-2.1807,0.0,0.0,-2.1807,-2.1807,-2.1807,-2.1807,-2.1731,0.0,0.0,0.0,0.0,0.0,0.0,0.0,0.0,-2.1731,0.0,-2.1502,-2.1731,-2.1807,-2.1807,-2.1807,-2.1731,-2.1578,-2.1425,-2.1189,-2.0913,-2.108,-2.1039,-2.0785,-2.0775,-2.0809,-2.0906,-2.0654,-2.0566,-2.0566,-2.0566,-2.0566,-2.0323,-2.5042,-2.5013,-2.511,-2.5326,-2.538,-2.5285,-2.5031,-2.5031,-2.4946,-2.4786,-2.4786,-2.4786,-2.4786,-2.4711,0.0,-2.4615,-2.4615,-2.47,-2.4786,-2.4786,-2.4786,-2.4786,-2.4946,-2.4819,-2.4378,-2.4535,0.0,-2.3911,-2.3446,-2.3065,-2.2769,-2.2677,-2.2592,-2.2439,-2.226,-2.2252,-2.2402,-2.2101,-2.2101,-2.2176,-2.2111,-2.2035,-2.2035,-2.1959,-2.1949,-2.2035,-2.1959,-2.1949,-2.2035,-2.2035,-2.2035,-2.2035,-2.2035,-2.2035,-2.2035,-2.1807,-2.1807,-2.1807,-2.1807,-2.1807,-2.1807,-2.1807,-2.1807,-2.1807,-2.1807,-2.1807,-2.1807,-2.1807,-2.1807,-2.1807,-2.1807,-2.1807,-2.1807,-2.1807,-2.1807,-2.1807,-2.1807,0.0,0.0,0.0,0.0,0.0,0.0,-2.1807,-2.1731,0.0,0.0,0.0,0.0,0.0,0.0,-2.1578,-2.1731,-2.1731,-2.1578,-2.1731,-2.1807,-2.1807,-2.1807,-2.1655,-2.1502,-2.1502,-2.1349,-2.1094,-2.1237,-2.112,-2.0803,-2.0844,-2.0809,-2.0741,-2.0644,-2.0566,-2.0566,-2.0566,-2.0566,-2.0352,-2.5895,-2.5895,-2.5812,0.0,-2.5676,0.0,-2.5338,-2.5275,-2.5296,-2.5296,-2.5296,-2.5285,-2.5253,-2.5083,-2.4977,-2.4956,0.0,0.0,0.0,-2.52,-2.52,-2.52,-2.52,-2.52,-2.52,-2.52,-2.4966,-2.4487,-2.4143,-2.3908,-2.3855,-2.3438,-2.3158,-2.3147,-2.27,-2.2477,-2.2456,-2.2456,-2.2434,-2.2402,-2.2402,-2.2402,-2.2402,-2.2176,-2.2252,-2.2402,-2.2176,-2.2252,-2.2402,-2.2402,-2.2402,-2.2402,-2.2402,-2.2402,-2.2327,-2.1949,-2.1807,-2.1807,-2.1807,-2.1807,-2.1807,-2.1807,-2.1807,-2.1807,-2.1807,-2.1807,-2.1807,-2.1807,-2.1807,-2.1807,-2.1807,-2.1807,-2.1807,-2.1807,-2.1807,-2.1807,-2.1807,-2.1807,0.0,0.0,0.0,0.0,-2.1807,-2.1807,-2.1807,0.0,0.0,0.0,0.0,0.0,-2.1578,-2.1807,-2.1807,-2.1807,-2.1807,-2.1807,-2.1807,-2.1731,-2.1731,-2.1655,-2.1436,-2.1512,-2.1512,-2.1436,-2.1512,-2.1282,-2.0906,-2.1051,-2.0964,-2.0566,-2.0566,-2.0566,-2.0566,-2.0566,-2.0586,-2.0429,0.0,0.0,-2.5895,-2.5812,-2.6127,-2.6281,-2.6109,-2.6313,-2.6539,-2.6395,-2.6306,-2.6158,-2.5785,-2.5656,-2.5604,-2.5423,-2.5126,-2.5031,-2.52,-2.52,-2.52,-2.52,-2.538,-2.538,-2.52,-2.538,-2.5228,-2.4734,-2.48,-2.4643,-2.4115,-2.4108,-2.4064,-2.3953,-2.3835,-2.3664,-2.3406,-2.3099,-2.2819,-2.2628,-2.2478,-2.2402,-2.2402,-2.2327,-2.2327,-2.2402,-2.2327,-2.2327,-2.2402,-2.2402,-2.2402,-2.2402,-2.2402,-2.2402,-2.2327,-2.2101,-2.2035,-2.2035,-2.1807,-2.1807,-2.1807,-2.1807,-2.1807,-2.1807,-2.1807,-2.1807,-2.1807,-2.1807,-2.1807,-2.1807,-2.1807,-2.1807,-2.1807,-2.1807,-2.1807,-2.1807,-2.1807,-2.1807,-2.1807,0.0,-2.1807,-2.1807,-2.1807,-2.1807,-2.1731,0.0,0.0,0.0,0.0,-2.1655,-2.1731,-2.1807,-2.1807,-2.1807,-2.1807,-2.1655,-2.1502,-2.1359,-2.1205,-2.1051,-2.1061,-2.1205,-2.1205,-2.1061,-2.1205,-2.1138,-2.0906,-2.0809,-2.0722,-2.0566,-2.0566,-2.0566,-2.0566,-2.0566,-2.0781,-2.0924,-2.6551,-2.6551,-2.6551,-2.6551,-2.6769,-2.6857,-2.6758,-2.6975,-2.7138,-2.6982,-2.6982,-2.6875,-2.6605,-2.6302,-2.6077,-2.6086,-2.5508,-2.5295,-2.5549,-2.5549,-2.5549,-2.5549,-2.5644,-2.5644,-2.5549,-2.5644,-2.5597,-2.5326,-2.542,-2.5371,-2.4946,-2.4902,-2.4792,-2.469,-2.4393,-2.4244,-2.4071,-2.3837,-2.3697,-2.3503,-2.3123,-2.295,-2.2929,-2.2628,-2.2628,-2.2628,-2.2553,-2.2628,-2.2703,-2.2703,-2.2703,-2.2703,-2.2703,-2.2703,-2.2628,-2.2402,-2.2327,-2.2176,-2.2101,-2.2025,-2.1959,-2.1807,-2.1807,-2.1807,-2.1807,-2.1883,-2.1883,-2.1807,-2.1883,-2.1883,-2.1807,-2.1807,-2.1807,-2.1807,-2.1807,-2.1807,-2.1807,-2.1807,-2.1807,-2.1807,-2.1807,-2.1807,-2.1807,-2.1807,-2.1731,-2.1655,-2.1731,0.0,-2.1655,-2.1731,-2.1807,-2.1807,-2.1807,-2.1731,-2.1655,-2.1425,-2.1282,-2.1205,-2.1051,-2.1061,-2.1061,-2.1128,-2.1128,-2.1051,-2.1128,-2.1051,-2.0741,-2.0731,-2.0654,-2.0566,-2.0566,-2.0684,-2.0869,-2.0869,-2.1152,-2.139,-2.7315,-2.7315,-2.7315,-2.7315,-2.737,-2.7424,-2.7424,-2.7479,-2.7534,-2.7534,-2.7534,-2.7501,-2.7424,-2.69,-2.653,-2.6552,-2.6075,-2.5814,-2.5906,-2.5895,-2.5895,-2.5895,-2.5895,-2.5895,-2.5895,-2.5895,-2.5895,-2.5895,-2.5895,-2.5895,-2.5895,-2.548,-2.5284,-2.5262,-2.488,-2.4661,-2.4596,-2.4596,-2.4552,-2.4454,-2.4017,-2.3842,-2.371,-2.3069,-2.2961,-2.3099,-2.2799,-2.2852,-2.3001,-2.3001,-2.3001,-2.3001,-2.3001,-2.3001,-2.3001,-2.2777,-2.2628,-2.2478,-2.2402,-2.2252,-2.2025,-2.1883,-2.1807,-2.1807,-2.1807,-2.1949,-2.2025,-2.1883,-2.1959,-2.2025,-2.1883,-2.1807,-2.1807,-2.1807,-2.1807,-2.1807,-2.1807,0.0,-2.1807,-2.1807,-2.1807,-2.1807,-2.1807,-2.1807,-2.1807,-2.1807,-2.1807,-2.1807,-2.1807,-2.1807,-2.1807,-2.1807,-2.1807,-2.1731,-2.1502,-2.1282,-2.1205,-2.1128,-2.1128,-2.1128,-2.1128,-2.1128,-2.1128,-2.1128,-2.1128,-2.0964,-2.0644,-2.0819,-2.0741,-2.0576,-2.0635,-2.0898,-2.124,-2.1309,-2.1611,-2.1771,-2.7315,-2.7315,-2.7315,-2.7315,-2.7654,-2.7927,-2.7927,-2.8276,-2.8528,-2.8528,-2.8528,-2.8375,-2.7971,-2.7771,-2.7412,-2.6704,-2.6476,-2.6258,-2.5928,-2.5895,-2.5895,-2.5895,-2.5895,-2.5895,-2.5895,-2.5895,-2.5895,-2.5895,-2.5895,-2.5895,-2.5895,-2.5819,-2.5786,-2.5786,-2.571,-2.5448,-2.5065,-2.5065,-2.4847,-2.4486,-2.441,-2.4377,-2.4323,-2.3732,-2.3536,-2.3558,-2.3079,-2.3001,-2.3001,-2.3001,-2.3001,-2.3001,-2.3001,-2.3001,-2.3001,-2.2927,-2.2927,-2.2852,-2.2478,-2.2252,-2.2025,-2.1883,-2.1807,-2.1807,-2.1807,-2.1807,-2.1883,-2.2025,-2.1949,-2.1883,-2.2035,-2.1873,-2.1807,-2.1807,-2.1807,-2.1807,-2.1807,0.0,-2.1807,-2.1807,-2.1807,-2.1807,-2.1807,-2.1807,-2.1807,-2.1807,-2.1807,-2.1807,-2.1807,-2.1807,-2.1807,-2.1807,-2.1807,-2.1731,-2.1502,-2.1282,-2.1138,-2.0906,-2.0731,-2.0722,-2.0722,-2.0896,-2.0819,-2.0722,-2.0896,-2.0819,-2.0566,-2.0644,-2.0644,-2.0605,-2.0986,-2.1172,-2.1279,-2.165,-2.2051,-2.2252,-2.8091,-2.8091,-2.8091,-2.8091,-2.8276,-2.8429,-2.8429,-2.8615,-2.8757,-2.8757,-2.8757,-2.8669,-2.8451,-2.82,-2.7872,-2.7424,-2.6922,-2.654,-2.631,-2.6048,-2.5895,-2.5895,-2.5895,-2.5895,-2.5895,-2.5895,-2.5895,-2.5895,-2.5895,-2.5895,-2.5895,-2.5895,-2.5895,-2.5895,-2.5895,-2.5775,-2.5568,-2.5568,-2.5437,-2.5229,-2.4967,-2.4858,-2.4803,-2.4323,-2.4137,-2.4071,-2.3569,-2.3394,-2.3351,-2.3088,-2.3001,-2.3001,-2.3001,-2.3001,-2.3001,-2.3001,-2.3001,-2.2927,-2.2628,-2.2402,-2.2176,-2.2025,-2.1883,-2.1807,-2.1959,-2.2035,-2.2176,-2.2252,-2.2252,-2.2252,-2.2101,-2.2025,-2.1959,-2.1807,-2.1807,0.0,-2.1807,-2.1807,-2.1807,-2.1807,-2.1807,-2.1807,-2.1807,-2.1807,-2.1807,-2.1807,-2.1807,-2.1807,-2.1807,-2.1807,-2.1807,-2.1807,-2.1655,-2.1655,-2.1655,-2.1359,-2.1128,-2.1061,-2.0896,-2.0741,-2.0741,-2.0829,-2.0829,-2.0741,-2.0829,-2.0819,-2.0586,-2.083,-2.0928,-2.0967,-2.1416,-2.1728,-2.1953,-2.2148,-2.249,-2.2669,-2.9198,-2.9106,-2.9024,-2.885,-2.9024,-2.9106,-2.9106,-2.9106,-2.9106,-2.9106,-2.8932,-2.8757,-2.8757,-2.8429,-2.8167,-2.8047,-2.7272,-2.6747,-2.6638,-2.6168,-2.5895,-2.5895,-2.5895,-2.5895,-2.5895,-2.5895,-2.5895,-2.5895,-2.5895,-2.5895,-2.5895,-2.5895,-2.5895,-2.5895,-2.5895,-2.5895,-2.5895,-2.5895,-2.5895,-2.5874,-2.5491,-2.5338,-2.5295,-2.4825,-2.465,-2.4585,-2.4082,-2.3908,-2.3853,-2.3471,-2.3274,-2.3176,-2.3176,-2.3088,-2.3001,-2.3001,-2.3001,-2.2927,-2.2777,-2.2553,-2.2402,-2.2176,-2.1959,-2.1883,-2.2025,-2.2252,-2.2327,-2.2478,-2.2553,-2.2553,-2.2327,-2.2176,-2.2025,-2.1883,0.0,-2.1807,-2.1807,-2.1807,-2.1807,-2.1807,-2.1807,-2.1807,-2.1807,-2.1807,-2.1807,-2.1807,-2.1807,-2.1807,-2.1807,-2.1807,-2.1807,-2.1807,-2.1655,-2.1655,-2.1807,-2.1436,-2.1205,-2.1282,-2.0984,-2.0906,-2.0906,-2.0906,-2.0906,-2.0829,-2.0937,-2.0889,-2.0752,-2.1201,-2.1387,-2.1426,-2.1865,-2.2227,-2.2519,-2.2627,-2.2861,-2.296,-3.026,-3.0079,-2.9818,-2.8932,-2.9555,-3.0079,-3.0079,-3.0079,-3.0079,-3.0079,-2.9382,-2.8757,-2.8757,-2.8724,-2.8528,-2.808,-2.7566,-2.7075,-2.666,-2.6168,-2.5895,-2.5895,-2.5895,-2.5895,-2.5895,-2.5895,-2.5895,-2.5895,-2.5895,-2.5895,-2.5895,-2.5895,-2.5895,-2.5895,-2.5895,-2.5895,-2.5895,-2.5895,-2.5895,-2.5895,-2.5863,-2.5852,-2.5797,-2.5306,-2.512,-2.5065,-2.4596,-2.4432,-2.4432,-2.4388,-2.4061,-2.3678,-2.3678,-2.3362,-2.3001,-2.3001,-2.3001,-2.2927,-2.2777,-2.2703,-2.2553,-2.2187,-2.2111,-2.2101,-2.2101,-2.2101,-2.2252,-2.2628,-2.2553,-2.2478,-2.2628,-2.2327,-2.2101,-2.2101,0.0,0.0,-2.1807,-2.1807,-2.1807,-2.1807,-2.1807,-2.1807,-2.1807,-2.1807,-2.1807,-2.1807,-2.1807,-2.1807,-2.1807,-2.1807,-2.1807,-2.1807,-2.1807,-2.1807,-2.1807,-2.1436,-2.1282,-2.1512,-2.1061,-2.0906,-2.0906,-2.0906,-2.0819,-2.0664,-2.1006,-2.1191,-2.1221,-2.166,-2.1836,-2.1875,-2.2305,-2.248,-2.2559,-2.2949,-2.3105,-2.296,-3.1134,-3.1057,-3.0968,-3.0609,-3.0866,-3.1057,-3.1057,-3.1057,-3.0878,-3.026,-2.9909,-2.9463,-2.8839,-2.8757,-2.868,-2.8495,-2.7763,-2.7239,-2.7064,-2.6332,-2.5895,-2.5895,-2.5895,-2.5895,-2.5895,-2.5895,-2.5895,-2.5895,-2.5895,-2.5895,-2.5895,-2.5895,-2.5895,-2.5895,-2.5895,-2.5895,-2.5895,-2.5895,-2.5895,-2.5895,-2.5895,-2.5895,-2.5884,-2.5699,-2.5622,-2.5557,-2.5087,-2.4912,-2.4869,-2.4585,-2.4355,-2.4203,-2.4203,-2.4071,-2.3853,-2.3547,-2.3241,-2.3001,-2.2927,-2.2703,-2.2478,-2.2478,-2.2252,-2.2187,-2.2402,-2.2478,-2.2553,-2.2852,-2.2852,-2.2703,-2.2553,-2.2402,-2.2176,-2.1959,0.0,-2.1807,-2.1807,-2.1807,-2.1807,-2.1807,-2.1807,-2.1807,-2.1807,-2.1807,-2.1807,-2.1807,-2.1807,-2.1807,-2.1807,-2.1807,-2.1807,-2.1807,-2.1807,-2.1807,-2.1807,-2.1655,-2.1578,-2.1502,-2.1359,-2.1128,-2.0916,-2.1184,-2.1145,-2.1006,-2.1445,-2.1641,-2.167,-2.21,-2.2275,-2.2314,-2.2734,-2.29,-2.292,-2.3076,-2.3135,-2.3047,-3.2103,-3.2016,-3.1928,-3.1665,-3.184,-3.2016,-3.2016,-3.2016,-3.1665,-3.0789,-3.0351,-2.9818,-2.8932,-2.8757,-2.8757,-2.8757,-2.7872,-2.7315,-2.7315,-2.642,-2.5895,-2.5895,-2.5895,-2.5895,-2.5895,-2.5895,-2.5895,-2.5895,-2.5895,-2.5895,-2.5895,-2.5895,-2.5895,-2.5895,-2.5895,-2.5895,-2.5895,-2.5895,-2.5895,-2.5895,-2.5895,-2.5895,-2.5895,-2.5895,-2.5895,-2.5852,-2.5524,-2.5404,-2.536,-2.5033,-2.4836,-2.4705,-2.4705,-2.4607,-2.4421,-2.4071,-2.3733,-2.3471,-2.3471,-2.3124,-2.2735,-2.266,-2.2478,-2.2327,-2.2628,-2.2703,-2.2777,-2.2927,-2.3001,-2.2927,-2.2553,-2.2478,-2.2327,-2.1959,-2.1807,-2.1807,-2.1807,-2.1807,-2.1807,-2.1807,-2.1807,-2.1807,-2.1807,-2.1807,-2.1807,-2.1807,-2.1807,-2.1807,-2.1807,-2.1807,-2.1807,-2.1807,-2.1807,-2.188,-2.2025,-2.1803,-2.1727,-2.1794,-2.1727,-2.1643,-2.1559,-2.17,-2.1668,-2.1546,-2.1894,-2.209,-2.2119,-2.2539,-2.2715,-2.2744,-2.3027,-2.3135,-2.3135,-2.3135,-2.3135,-2.3135,-3.3164,-3.298,-3.2722,-3.1753,-3.2364,-3.298,-3.298,-3.298,-3.2636,-3.1753,-3.0777,-2.9818,-2.8932,-2.885,-2.885,-2.885,-2.7872,-2.7304,-2.7304,-2.642,-2.5895,-2.5895,-2.5895,-2.5895,-2.5895,-2.5895,-2.5895,-2.5895,-2.5895,-2.5895,-2.5895,-2.5895,-2.5895,-2.5895,-2.5895,-2.5895,-2.5895,-2.5895,-2.5895,-2.5895,-2.5895,-2.5895,-2.5895,-2.5895,-2.5895,-2.5895,-2.5895,-2.5895,-2.5895,-2.5895,-2.5579,-2.5175,-2.5175,-2.4858,-2.4497,-2.4497,-2.4486,-2.4486,-2.4486,-2.3959,-2.3317,-2.2832,-2.2703,-2.2703,-2.2703,-2.2703,-2.2777,-2.2927,-2.3001,-2.2927,-2.2703,-2.2553,-2.2327,-2.2101,-2.1949,-2.1807,-2.1807,-2.1807,-2.1807,-2.1807,-2.1807,-2.1807,-2.1807,-2.1807,-2.1807,-2.1807,-2.1807,-2.1807,-2.1807,-2.1807,-2.1818,-2.1818,-2.1818,-2.2035,-2.2501,-2.1814,-2.1814,-2.2501,-2.2265,-2.2431,-2.2869,-2.2615,-2.2369,-2.2234,-2.2418,-2.2519,-2.2549,-2.2969,-2.3135,-2.3135,-2.3135,-2.3135,-2.3135,-2.3135,-2.3135,-2.3135,-3.4037,-3.3953,-3.3869,-3.3602,-3.3784,-3.3953,-3.3953,-3.3953,-3.3687,-3.2722,-3.1753,-3.1045,-3.0789,-3.017,-3.0079,-3.0699,-2.9839,-2.8611,-2.7345,-2.6696,-2.6218,-2.5895,-2.5895,-2.5895,-2.5895,-2.6218,-2.6207,-2.5895,-2.6207,-2.6218,-2.5895,-2.5895,-2.5895,-2.5895,-2.5895,-2.5895,-2.5895,-2.5895,-2.5895,-2.5895,-2.5895,-2.5895,-2.5895,-2.5895,-2.5895,-2.5895,-2.5895,-2.5895,-2.5895,-2.5895,-2.5808,-2.5677,-2.5677,-2.536,-2.4967,-2.4967,-2.4738,-2.4486,-2.4486,-2.4377,-2.4059,-2.3558,-2.3026,-2.2703,-2.2852,-2.2927,-2.2927,-2.3001,-2.3001,-2.2927,-2.2703,-2.2553,-2.2327,-2.2101,-2.1949,-2.1807,-2.1807,-2.1807,-2.1807,-2.1807,-2.1807,-2.1807,-2.1807,-2.1807,-2.1807,-2.1807,-2.1807,-2.1807,-2.1807,-2.2118,-2.2294,-2.2294,-2.2604,-2.2842,-2.2977,-2.2443,-2.2443,-2.2977,-2.2897,-2.2807,-2.2625,-2.2855,-2.2745,-2.2428,-2.2764,-2.2949,-2.2959,-2.3086,-2.3135,-2.3135,-2.3135,-2.3135,-2.3135,-2.3135,-2.3135,-2.3135,-3.4397,-3.4397,-3.4397,-3.4397,-3.4397,-3.4397,-3.4397,-3.4397,-3.4037,-3.3164,-3.255,-3.2016,-3.1665,-3.1045,-3.0968,-3.1577,-3.0443,-2.8987,-2.7079,-2.6846,-2.6693,-2.6385,-2.6373,-2.6302,-2.6135,-2.6362,-2.6362,-2.6135,-2.6362,-2.629,-2.5895,-2.5895,-2.5895,-2.5895,-2.5895,-2.5895,-2.5895,-2.5895,-2.5895,-2.5895,-2.5895,-2.5895,-2.5895,-2.5895,-2.5895,-2.5895,-2.5895,-2.5895,-2.5895,-2.5895,-2.5895,-2.5895,-2.5895,-2.5699,-2.5459,-2.5459,-2.5262,-2.5043,-2.5043,-2.5132,-2.5138,-2.4456,-2.3863,-2.3438,-2.3591,-2.3591,-2.3536,-2.3329,-2.3296,-2.3155,-2.2735,-2.2628,-2.2402,-2.2176,-2.2035,-2.1883,-2.1807,-2.1807,-2.1807,-2.1807,-2.1807,-2.1807,-2.1807,-2.1973,-2.2159,-2.2335,-2.2356,-2.2356,-2.2356,-2.2615,-2.277,-2.277,-2.3039,-2.3277,-2.3463,-2.3184,-2.3184,-2.3463,-2.3463,-2.3382,-2.3307,-2.3497,-2.3363,-2.3031,-2.3201,-2.3232,-2.3135,-2.3135,-2.3135,-2.3135,-2.3135,-2.3135,-2.3135,-2.3135,-2.3135,-2.3135,-3.4397,-3.4397,-3.4397,-3.4397,-3.4397,-3.4397,-3.4397,-3.4397,-3.4134,-3.325,-3.3079,-3.2722,-3.1928,-3.1753,-3.1753,-3.184,-3.0443,-2.882,-2.6903,-2.7174,-2.7418,-2.7255,-2.7255,-2.7092,-2.6682,-2.6599,-2.6528,-2.6528,-2.6528,-2.629,-2.5895,-2.5895,-2.5895,-2.5895,-2.5895,-2.5895,-2.5895,-2.5895,-2.5895,-2.5895,-2.5895,-2.5895,-2.5895,-2.5895,-2.5895,-2.5895,-2.5979,-2.5979,-2.5895,-2.5895,-2.5895,-2.5895,-2.5895,-2.5895,-2.5895,-2.5895,-2.5895,-2.5906,-2.5979,-2.6273,-2.6303,-2.5613,-2.5154,-2.4823,-2.4588,-2.4486,-2.4355,-2.3897,-2.3798,-2.358,-2.2994,-2.2832,-2.2681,-2.2303,-2.2227,-2.215,-2.1932,-2.1932,-2.1932,-2.1932,-2.1932,-2.1932,-2.1932,-2.2304,-2.2739,-2.3153,-2.3184,-2.3184,-2.3184,-2.3225,-2.3246,-2.3246,-2.3287,-2.3515,-2.3929,-2.3939,-2.3939,-2.3939,-2.3939,-2.4146,-2.4454,-2.4282,-2.4024,-2.3754,-2.358,-2.3319,-2.3135,-2.3135,-2.3135,-2.3135,-2.3135,-2.3135,-2.3135,-2.3135,-2.3135,-2.3135,-3.4397,-3.4397,-3.4397,-3.4397,-3.4397,-3.4397,-3.4397,-3.4397,-3.4314,-3.4134,-3.3433,-3.3164,-3.3784,-3.3164,-3.2993,-3.37,-3.2212,-3.0524,-2.8882,-2.8978,-2.8743,-2.7947,-2.7936,-2.7867,-2.7775,-2.7325,-2.7021,-2.7021,-2.6693,-2.629,-2.5895,-2.5895,-2.5895,-2.5895,-2.5895,-2.5895,-2.5895,-2.5895,-2.5895,-2.5895,-2.5895,-2.5895,-2.5895,-2.5895,-2.5895,-2.5979,-2.6704,-2.6456,-2.5895,-2.5895,-2.5895,-2.5895,-2.5895,-2.5895,-2.5895,-2.5895,-2.5895,-2.6063,-2.6704,-2.693,-2.7163,-2.7622,-2.762,-2.7021,-2.4957,-2.4486,-2.4454,-2.4344,-2.4323,-2.429,-2.4113,-2.3845,-2.3519,-2.344,-2.3202,-2.2964,-2.2884,-2.2884,-2.2884,-2.2884,-2.2884,-2.2884,-2.2884,-2.2977,-2.308,-2.3184,-2.3184,-2.3184,-2.3184,-2.3536,-2.3732,-2.3732,-2.4064,-2.4302,-2.4395,-2.4395,-2.4395,-2.4395,-2.4395,-2.419,-2.3927,-2.3927,-2.3667,-2.3222,-2.3232,-2.3135,-2.3135,-2.3135,-2.3135,-2.3135,-2.3135,-2.3135,-2.3135,-2.3135,-2.3135,-2.3135,-3.4397,-3.4397,-3.4397,-3.4397,-3.4397,-3.4397,-3.4397,-3.4397,-3.4397,-3.4397,-3.3953,-3.3869,-3.4314,-3.3953,-3.3553,-3.3178,-3.2246,-3.1136,-2.9664,-2.9858,-2.9768,-2.9201,-2.9123,-2.9279,-2.9459,-2.845,-2.758,-2.6857,-2.661,-2.629,-2.5895,-2.5895,-2.6146,-2.6456,-2.6063,-2.6135,-2.6456,-2.6063,-2.5895,-2.5895,-2.5895,-2.5895,-2.5895,-2.5895,-2.6146,-2.6539,-2.7021,-2.6951,-2.6539,-2.6539,-2.6218,-2.5895,-2.5895,-2.5895,-2.5979,-2.6385,-2.6539,-2.6704,-2.7568,-2.8051,-2.8359,-2.8426,-2.8426,-2.7965,-2.6211,-2.5788,-2.5641,-2.4938,-2.4814,-2.4749,-2.453,-2.4158,-2.3908,-2.3828,-2.3507,-2.3346,-2.3184,-2.3184,-2.3184,-2.3184,-2.3184,-2.3277,-2.3494,-2.3515,-2.3608,-2.3815,-2.3836,-2.3836,-2.3836,-2.4064,-2.4198,-2.4198,-2.4416,-2.454,-2.454,-2.454,-2.454,-2.454,-2.454,-2.4368,-2.41,-2.41,-2.3841,-2.3396,-2.3396,-2.3309,-2.3135,-2.3135,-2.3135,-2.3135,-2.3135,-2.3135,-2.3135,-2.3135,-2.3135,-2.3135,-3.4397,-3.4397,-3.4397,-3.4397,-3.4397,-3.4397,-3.4397,-3.4397,-3.4397,-3.4397,-3.4397,-3.4481,-3.4481,-3.4402,-3.3688,-3.2012,-3.1889,-3.1395,-3.005,-3.0393,-3.0558,-3.0469,-3.0393,-3.0482,-3.0646,-2.9328,-2.8143,-2.6999,-2.6764,-2.6456,-2.6146,-2.6218,-2.6693,-2.7336,-2.661,-2.6693,-2.7336,-2.6456,-2.6146,-2.6146,-2.6146,-2.6135,-2.6218,-2.6218,-2.6693,-2.7418,-2.758,-2.7661,-2.7568,-2.7255,-2.6775,-2.6302,-2.6135,-2.6218,-2.6456,-2.7174,-2.7418,-2.7568,-2.8426,-2.9147,-2.9549,-2.8991,-2.8821,-2.8585,-2.7649,-2.7185,-2.6662,-2.5769,-2.5529,-2.5407,-2.5192,-2.4944,-2.4614,-2.4293,-2.4051,-2.3808,-2.3493,-2.3422,-2.3422,-2.3422,-2.3422,-2.3577,-2.395,-2.3991,-2.4146,-2.4509,-2.454,-2.454,-2.454,-2.454,-2.454,-2.454,-2.454,-2.454,-2.454,-2.454,-2.454,-2.454,-2.454,-2.4454,-2.4454,-2.4454,-2.4196,-2.3754,-2.3754,-2.3493,-2.3135,-2.3135,-2.3135,-2.3135,-2.3135,-2.3135,-2.3135,-2.3135,-2.3135,-2.3135,-3.4397,-3.4397,-3.4397,-3.4397,-3.4397,-3.4397,-3.4397,-3.4397,-3.4397,-3.4397,-3.4577,-3.4756,-3.4756,-3.447,-3.3767,-3.2635,-3.2537,-3.2155,-3.1035,-3.1629,-3.1703,-3.1071,-3.0771,-3.0126,-2.9319,-2.856,-2.8493,-2.8978,-2.773,-2.7103,-2.7021,-2.7557,-2.7867,-2.7936,-2.7855,-2.7855,-2.7936,-2.7336,-2.7021,-2.7021,-2.7021,-2.7255,-2.7568,-2.7568,-2.7799,-2.8347,-2.9069,-2.9381,-2.9147,-2.7661,-2.7568,-2.7947,-2.7255,-2.7487,-2.8108,-2.8187,-2.8267,-2.8426,-2.9303,-2.9626,-2.9858,-3.0508,-3.0659,-3.0266,-2.8585,-2.7092,-2.6207,-2.6778,-2.6919,-2.7059,-2.7554,-2.745,-2.6955,-2.5986,-2.5644,-2.5239,-2.4438,-2.4353,-2.4353,-2.4353,-2.4353,-2.4385,-2.4447,-2.4447,-2.4478,-2.454,-2.454,-2.454,-2.454,-2.454,-2.454,-2.454,-2.454,-2.454,-2.454,-2.454,-2.454,-2.454,-2.454,-2.4368,-2.4206,-2.4206,-2.3937,-2.3503,-2.3503,-2.3406,-2.3135,-2.3135,-2.3135,-2.3135,-2.3135,-2.3135,-2.3135,-2.3135,-2.3135,-2.3135,-3.3443,-3.3443,-3.3548,-3.3888,-3.3953,-3.4045,-3.4345,-3.4397,-3.4376,-3.4144,-3.4186,-3.4243,-3.3993,-3.358,-3.3148,-3.2537,-3.2428,-3.2206,-3.1803,-3.2023,-3.2096,-3.1776,-3.1616,-3.1307,-3.082,-3.0126,-3.005,-3.038,-2.8573,-2.7706,-2.7718,-2.8311,-2.8863,-2.9291,-2.8785,-2.8706,-2.8809,-2.8028,-2.7706,-2.7706,-2.7706,-2.8016,-2.8481,-2.8481,-2.8797,-2.9369,-3.0177,-3.0101,-2.9626,-2.8834,-2.8518,-2.8347,-2.7959,-2.8108,-2.8505,-2.8978,-2.9147,-2.9303,-3.0177,-3.0419,-3.0508,-3.0898,-3.0659,-3.0101,-2.9303,-2.8199,-2.7244,-2.7174,-2.7568,-2.7879,-2.8051,-2.7971,-2.7637,-2.6987,-2.6329,-2.5663,-2.5263,-2.5263,-2.5432,-2.5924,-2.5516,-2.5432,-2.5924,-2.5505,-2.5263,-2.5263,-2.5263,-2.502,-2.454,-2.454,-2.454,-2.454,-2.454,-2.454,-2.454,-2.454,-2.454,-2.454,-2.454,-2.4454,-2.4378,-2.4378,-2.4196,-2.3851,-2.3764,-2.358,-2.3319,-2.3144,-2.3135,-2.3135,-2.3135,-2.3135,-2.3135,-2.3135,-2.3135,-2.3135]},{"header":{"parameterUnit":"m.s-1","parameterCategory":1,"la1":30.6,"la2":28.766,"lo1":-90.7593,"lo2":-88.6598,"dy":0.0162,"dx":0.0183,"nx":116,"ny":114,"refTime":"2023-07-29T06:00:00:Z","depth":0,"parameterNumber":3,"parameterNumberName":"V-component_of_WINDS"},"data":[0.0,0.0,0.0,0.0,0.0,0.0,0.0,0.0,0.0,0.0,0.0,0.0,0.0,0.0,0.0,0.0,0.0,0.0,0.0,0.0,0.0,0.0,0.0,0.0,0.0,0.0,0.0,0.0,0.0,0.0,0.0,0.0,0.0,0.0,0.0,0.0,0.0,0.0,0.0,0.0,0.0,0.0,0.0,0.0,0.0,0.0,0.0,0.0,0.0,0.0,0.0,0.0,0.0,0.0,0.0,0.0,0.0,0.0,0.0,0.0,0.0,0.0,0.0,0.0,0.0,0.0,0.0,0.0,0.0,0.0,0.0,0.0,0.0,0.0,0.0,0.0,0.0,0.0,0.0,0.0,0.0,0.0,0.0,0.0,0.0,0.0,0.0,0.0,0.0,0.0,0.0,0.0,0.0,0.0,0.0,0.0,0.0,0.0,0.0,0.0,0.0,0.0,0.0,0.0,0.0,0.0,0.0,0.0,0.0,0.0,0.0,0.0,0.0,0.0,0.0,0.0,0.0,0.0,0.0,0.0,0.0,0.0,0.0,0.0,0.0,0.0,0.0,0.0,0.0,0.0,0.0,0.0,0.0,0.0,0.0,0.0,0.0,0.0,0.0,0.0,0.0,0.0,0.0,0.0,0.0,0.0,0.0,0.0,0.0,0.0,0.0,0.0,0.0,0.0,0.0,0.0,0.0,0.0,0.0,0.0,0.0,0.0,0.0,0.0,0.0,0.0,0.0,0.0,0.0,0.0,0.0,0.0,0.0,0.0,0.0,0.0,0.0,0.0,0.0,0.0,0.0,0.0,0.0,0.0,0.0,0.0,0.0,0.0,0.0,0.0,0.0,0.0,0.0,0.0,0.0,0.0,0.0,0.0,0.0,0.0,0.0,0.0,0.0,0.0,0.0,0.0,0.0,0.0,0.0,0.0,0.0,0.0,0.0,0.0,0.0,0.0,0.0,0.0,0.0,0.0,0.0,0.0,0.0,0.0,0.0,0.0,0.0,0.0,0.0,0.0,0.0,0.0,0.0,0.0,0.0,0.0,0.0,0.0,0.0,0.0,0.0,0.0,0.0,0.0,0.0,0.0,0.0,0.0,0.0,0.0,0.0,0.0,0.0,0.0,0.0,0.0,0.0,0.0,0.0,0.0,0.0,0.0,0.0,0.0,0.0,0.0,0.0,0.0,0.0,0.0,0.0,0.0,0.0,0.0,0.0,0.0,0.0,0.0,0.0,0.0,0.0,0.0,0.0,0.0,0.0,0.0,0.0,0.0,0.0,0.0,0.0,0.0,0.0,0.0,0.0,0.0,0.0,0.0,0.0,0.0,0.0,0.0,0.0,0.0,0.0,0.0,0.0,0.0,0.0,0.0,0.0,0.0,0.0,0.0,0.0,0.0,0.0,0.0,0.0,0.0,0.0,0.0,0.0,0.0,0.0,0.0,0.0,0.0,0.0,0.0,0.0,0.0,0.0,0.0,0.0,0.0,0.0,0.0,0.0,0.0,0.0,0.0,0.0,0.0,0.0,0.0,0.0,0.0,0.0,0.0,0.0,0.0,0.0,0.0,0.0,0.0,0.0,0.0,0.0,0.0,0.0,0.0,0.0,0.0,0.0,0.0,0.0,0.0,0.0,0.0,0.0,0.0,0.0,0.0,0.0,0.0,0.0,0.0,0.0,0.0,0.0,0.0,0.0,0.0,0.0,0.0,0.0,0.0,0.0,0.0,0.0,0.0,0.0,0.0,0.0,0.0,0.0,0.0,0.0,0.0,0.0,0.0,0.0,0.0,0.0,0.0,0.0,0.0,0.0,0.0,0.0,0.0,0.0,0.0,0.0,0.0,0.0,0.0,0.0,0.0,0.0,0.0,0.0,0.0,0.0,0.0,0.0,0.0,0.0,0.0,0.0,0.0,0.0,0.0,0.0,0.0,0.0,0.0,0.0,0.0,0.0,0.0,0.0,0.0,0.0,0.0,0.0,0.0,0.0,0.0,0.0,0.0,0.0,0.0,0.0,0.0,0.0,0.0,0.0,0.0,0.0,0.0,0.0,0.0,0.0,0.0,0.0,0.0,0.0,0.0,0.0,0.0,0.0,0.0,0.0,0.0,0.0,0.0,0.0,0.0,0.0,0.0,0.0,0.0,0.0,0.0,0.0,0.0,0.0,0.0,0.0,0.0,0.0,0.0,0.0,0.0,0.0,0.0,0.0,0.0,0.0,0.0,0.0,0.0,0.0,0.0,0.0,0.0,0.0,0.0,0.0,0.0,0.0,0.0,0.0,0.0,0.0,0.0,0.0,0.0,0.0,0.0,0.0,0.0,0.0,0.0,0.0,0.0,0.0,0.0,0.0,0.0,0.0,0.0,0.0,0.0,0.0,0.0,0.0,0.0,0.0,0.0,0.0,0.0,0.0,0.0,0.0,0.0,0.0,0.0,0.0,0.0,0.0,0.0,0.0,0.0,0.0,0.0,0.0,0.0,0.0,0.0,0.0,0.0,0.0,0.0,0.0,0.0,0.0,0.0,0.0,0.0,0.0,0.0,0.0,0.0,0.0,0.0,0.0,0.0,0.0,0.0,0.0,0.0,0.0,0.0,0.0,0.0,0.0,0.0,0.0,0.0,0.0,0.0,0.0,0.0,0.0,0.0,0.0,0.0,0.0,0.0,0.0,0.0,0.0,0.0,0.0,0.0,0.0,0.0,0.0,0.0,0.0,0.0,0.0,0.0,0.0,0.0,0.0,0.0,0.0,0.0,0.0,0.0,0.0,0.0,0.0,0.0,0.0,0.0,0.0,0.0,0.0,0.0,0.0,0.0,0.0,0.0,0.0,0.0,0.0,0.0,0.0,0.0,0.0,0.0,0.0,0.0,0.0,0.0,0.0,0.0,0.0,0.0,0.0,0.0,0.0,0.0,0.0,0.0,0.0,0.0,0.0,0.0,0.0,0.0,0.0,0.0,0.0,0.0,0.0,0.0,0.0,0.0,0.0,0.0,0.0,0.0,0.0,0.0,0.0,0.0,0.0,0.0,0.0,0.0,0.0,0.0,0.0,0.0,0.0,0.0,0.0,0.0,0.0,0.0,0.0,0.0,0.0,0.0,0.0,0.0,0.0,0.0,0.0,0.0,0.0,0.0,0.0,0.0,0.0,0.0,0.0,0.0,0.0,0.0,0.0,0.0,0.0,0.0,0.0,0.0,0.0,0.0,0.0,0.0,0.0,0.0,0.0,0.0,0.0,0.0,0.0,0.0,0.0,0.0,0.0,0.0,0.0,0.0,0.0,0.0,0.0,0.0,0.0,0.0,0.0,0.0,0.0,0.0,0.0,0.0,0.0,0.0,0.0,0.0,0.0,0.0,0.0,0.0,0.0,0.0,0.0,0.0,0.0,0.0,0.0,0.0,0.0,0.0,0.0,0.0,0.0,0.0,0.0,0.0,0.0,0.0,0.0,0.0,0.0,0.0,0.0,0.0,0.0,0.0,0.0,0.0,0.0,0.0,0.0,0.0,0.0,0.0,0.0,0.0,0.0,0.0,0.0,0.0,0.0,0.0,0.0,0.0,0.0,0.0,0.0,0.0,0.0,0.0,0.0,0.0,0.0,0.0,0.0,0.0,0.0,0.0,0.0,0.0,0.0,0.0,0.0,0.0,0.0,0.0,0.0,0.0,0.0,0.0,0.0,0.0,0.0,0.0,0.0,0.0,0.0,0.0,0.0,0.0,0.0,0.0,0.0,0.0,0.0,0.0,0.0,0.0,0.0,0.0,0.0,0.0,0.0,0.0,0.0,0.0,0.0,0.0,0.0,0.0,0.0,0.0,0.0,0.0,0.0,0.0,0.0,0.0,0.0,0.0,0.0,0.0,0.0,0.0,0.0,0.0,0.0,0.0,0.0,0.0,0.0,0.0,0.0,0.0,0.0,0.0,0.0,0.0,0.0,0.0,0.0,0.0,0.0,0.0,0.0,0.0,0.0,0.0,0.0,0.0,0.0,0.0,0.0,0.0,0.0,0.0,0.0,0.0,0.0,0.0,0.0,0.0,0.0,0.0,0.0,0.0,0.0,0.0,0.0,0.0,0.0,0.0,0.0,0.0,0.0,0.0,0.0,0.0,0.0,0.0,0.0,0.0,0.0,0.0,0.0,0.0,0.0,0.0,0.0,0.0,0.0,0.0,0.0,0.0,0.0,0.0,0.0,0.0,0.0,0.0,0.0,0.0,0.0,0.0,0.0,0.0,0.0,0.0,0.0,0.0,0.0,0.0,0.0,0.0,0.0,0.0,0.0,0.0,0.0,0.0,0.0,0.0,0.0,0.0,0.0,0.0,0.0,0.0,0.0,0.0,0.0,0.0,0.0,0.0,0.0,0.0,0.0,0.0,0.0,0.0,0.0,0.0,0.0,0.0,0.0,0.0,0.0,0.0,0.0,0.0,0.0,0.0,0.0,0.0,0.0,0.0,0.0,0.0,0.0,0.0,0.0,0.0,0.0,0.0,0.0,0.0,0.0,0.0,0.0,0.0,0.0,0.0,0.0,0.0,0.0,0.0,0.0,0.0,0.0,0.0,0.0,0.0,0.0,0.0,0.0,0.0,0.0,0.0,0.0,0.0,0.0,0.0,0.0,0.0,0.0,0.0,0.0,0.0,0.0,0.0,0.0,0.0,0.0,0.0,0.0,0.0,0.0,0.0,0.0,0.0,0.0,0.0,0.0,0.0,0.0,0.0,0.0,0.0,0.0,0.0,0.0,0.0,0.0,0.0,0.0,0.0,0.0,0.0,0.0,0.0,0.0,0.0,0.0,0.0,0.0,0.0,0.0,0.0,0.0,0.0,0.0,0.0,0.0,0.0,0.0,0.0,0.0,0.0,0.0,0.0,0.0,0.0,0.0,0.0,0.0,0.0,0.0,0.0,0.0,0.0,0.0,0.0,0.0,0.0,0.0,0.0,0.0,0.0,0.0,0.0,0.0,0.0,0.0,0.0,0.0,0.0,0.0,0.0,0.0,0.0,0.0,0.0,0.0,0.0,0.0,0.0,0.0,0.0,0.0,0.0,0.0,0.0,0.0,0.0,0.0,0.0,0.0,0.0,0.0,0.0,0.0,0.0,0.0,0.0,0.0,0.0,0.0,0.0,0.0,0.0,0.0,0.0,0.0,0.0,0.0,0.0,0.0,0.0,0.0,0.0,0.0,0.0,0.0,0.0,0.0,0.0,0.0,0.0,0.0,0.0,0.0,0.0,0.0,0.0,0.0,0.0,0.0,0.0,0.0,0.0,0.0,0.0,0.0,0.0,0.0,0.0,0.0,0.0,0.0,0.0,0.0,0.0,0.0,0.0,0.0,0.0,0.0,0.0,0.0,0.0,0.0,0.0,0.0,0.0,0.0,0.0,0.0,0.0,0.0,0.0,0.0,0.0,0.0,0.0,0.0,0.0,0.0,0.0,0.0,0.0,0.0,0.0,0.0,0.0,0.0,0.0,0.0,0.0,0.0,0.0,0.0,0.0,0.0,0.0,0.0,0.0,0.0,0.0,0.0,0.0,0.0,0.0,0.0,0.0,0.0,0.0,0.0,0.0,0.0,0.0,0.0,0.0,0.0,0.0,0.0,0.0,0.0,0.0,0.0,0.0,0.0,0.0,0.0,0.0,0.0,0.0,0.0,0.0,0.0,0.0,0.0,0.0,0.0,0.0,0.0,0.0,0.0,0.0,0.0,0.0,0.0,0.0,0.0,0.0,0.0,0.0,0.0,0.0,0.0,0.0,0.0,0.0,0.0,0.0,0.0,0.0,0.0,0.0,0.0,0.0,0.0,0.0,0.0,0.0,0.0,0.0,0.0,0.0,0.0,0.0,0.0,0.0,0.0,0.0,0.0,0.0,0.0,0.0,0.0,0.0,0.0,0.0,0.0,0.0,0.0,0.0,0.0,0.0,0.0,0.0,0.0,0.0,0.0,0.0,0.0,0.0,0.0,0.0,0.0,0.0,0.0,0.0,0.0,0.0,0.0,0.0,0.0,0.0,0.0,0.0,0.0,0.0,0.0,0.0,0.0,0.0,0.0,0.0,0.0,0.0,0.0,0.0,0.0,0.0,0.0,0.0,0.0,0.0,0.0,0.0,-2.9864,0.0,0.0,0.0,0.0,0.0,0.0,0.0,0.0,0.0,0.0,0.0,0.0,0.0,0.0,0.0,0.0,0.0,0.0,0.0,0.0,0.0,0.0,0.0,0.0,0.0,0.0,0.0,0.0,0.0,0.0,0.0,0.0,0.0,0.0,0.0,0.0,0.0,0.0,0.0,0.0,0.0,0.0,0.0,0.0,0.0,0.0,0.0,0.0,0.0,0.0,0.0,0.0,0.0,0.0,0.0,0.0,0.0,0.0,0.0,0.0,0.0,0.0,0.0,0.0,0.0,0.0,0.0,0.0,0.0,0.0,0.0,0.0,0.0,0.0,0.0,0.0,0.0,0.0,0.0,0.0,0.0,0.0,0.0,0.0,0.0,0.0,0.0,0.0,0.0,0.0,0.0,0.0,0.0,0.0,0.0,0.0,0.0,0.0,0.0,0.0,0.0,0.0,0.0,0.0,0.0,0.0,0.0,0.0,0.0,0.0,0.0,0.0,0.0,0.0,0.0,0.0,-3.0404,0.0,0.0,0.0,0.0,0.0,0.0,0.0,0.0,0.0,0.0,0.0,0.0,0.0,0.0,0.0,0.0,0.0,0.0,0.0,0.0,0.0,0.0,0.0,0.0,0.0,0.0,0.0,0.0,0.0,0.0,0.0,0.0,0.0,0.0,0.0,0.0,0.0,0.0,0.0,0.0,0.0,0.0,0.0,0.0,0.0,0.0,0.0,0.0,0.0,0.0,0.0,0.0,0.0,0.0,0.0,0.0,0.0,0.0,0.0,0.0,0.0,0.0,0.0,0.0,0.0,0.0,0.0,0.0,0.0,0.0,0.0,0.0,0.0,0.0,0.0,0.0,0.0,0.0,0.0,0.0,0.0,0.0,0.0,0.0,0.0,0.0,0.0,0.0,0.0,0.0,0.0,0.0,0.0,0.0,0.0,0.0,0.0,0.0,0.0,0.0,0.0,0.0,0.0,0.0,0.0,0.0,0.0,0.0,-3.2916,-3.2916,-3.2916,-3.2916,-3.2916,-3.2844,-3.1492,-3.0921,-3.0921,-3.0921,0.0,0.0,0.0,0.0,0.0,0.0,0.0,0.0,0.0,0.0,0.0,0.0,0.0,0.0,0.0,0.0,0.0,0.0,0.0,0.0,0.0,0.0,0.0,0.0,0.0,0.0,0.0,0.0,0.0,0.0,0.0,0.0,0.0,0.0,0.0,0.0,0.0,0.0,-3.445,-3.4197,-3.4245,-3.4473,-3.3726,0.0,0.0,0.0,0.0,0.0,0.0,0.0,0.0,0.0,0.0,0.0,0.0,0.0,0.0,0.0,0.0,0.0,0.0,0.0,0.0,0.0,0.0,0.0,0.0,0.0,0.0,0.0,0.0,0.0,0.0,0.0,0.0,0.0,0.0,0.0,0.0,0.0,0.0,0.0,0.0,0.0,0.0,0.0,-3.0119,-3.0697,0.0,0.0,0.0,0.0,0.0,0.0,0.0,0.0,0.0,0.0,0.0,0.0,0.0,-3.2862,-3.2787,-3.2894,-3.2948,-3.2916,-3.2916,-3.2916,-3.2916,-3.2916,-3.2916,-3.2898,-3.267,0.0,-3.2563,-3.2563,0.0,0.0,0.0,0.0,0.0,0.0,0.0,0.0,0.0,0.0,0.0,0.0,0.0,0.0,0.0,0.0,0.0,0.0,0.0,0.0,0.0,0.0,0.0,0.0,0.0,0.0,0.0,0.0,0.0,0.0,0.0,0.0,0.0,0.0,0.0,0.0,-3.3753,-3.3921,-3.4148,-3.4023,-3.4124,-3.4363,-3.3998,-3.3842,-3.3842,-3.3842,0.0,0.0,0.0,0.0,0.0,0.0,0.0,0.0,0.0,0.0,0.0,0.0,0.0,0.0,0.0,0.0,0.0,0.0,0.0,0.0,0.0,0.0,0.0,0.0,0.0,0.0,0.0,0.0,0.0,0.0,0.0,0.0,0.0,0.0,0.0,0.0,0.0,0.0,0.0,-3.1203,-3.1597,-3.1831,-3.1706,-3.1831,0.0,0.0,0.0,0.0,0.0,0.0,0.0,0.0,0.0,-3.377,-3.3698,-3.3606,-3.3465,-3.3455,-3.3397,-3.3298,-3.3147,-3.3086,-3.3068,-3.293,-3.2916,-3.2916,-3.2916,-3.2916,-3.2916,-3.2916,-3.2916,-3.2948,0.0,0.0,0.0,0.0,-3.2884,-3.277,0.0,0.0,0.0,0.0,0.0,0.0,0.0,0.0,0.0,0.0,0.0,0.0,0.0,0.0,0.0,-2.7363,0.0,0.0,0.0,0.0,0.0,0.0,0.0,0.0,0.0,0.0,0.0,0.0,-3.3895,-3.3954,-3.408,-3.408,-3.4203,-3.4367,-3.4367,-3.4274,-3.4099,-3.4099,-3.3947,0.0,0.0,0.0,0.0,0.0,0.0,0.0,0.0,0.0,0.0,0.0,0.0,0.0,0.0,0.0,0.0,0.0,0.0,0.0,0.0,0.0,0.0,0.0,0.0,0.0,0.0,0.0,0.0,0.0,0.0,0.0,0.0,0.0,0.0,0.0,0.0,0.0,0.0,-3.2364,-3.2752,-3.2752,-3.2816,-3.2912,0.0,0.0,0.0,0.0,0.0,0.0,-3.4064,-3.4365,-3.4618,-3.4754,-3.4754,-3.4626,-3.4339,-3.4339,-3.4246,-3.4002,-3.3803,-3.371,-3.371,-3.357,-3.3473,-3.3473,-3.3473,-3.3473,-3.3455,-3.3045,-3.2916,-3.2916,-3.2916,-3.2948,-3.2948,-3.2948,-3.2948,-3.2961,0.0,0.0,0.0,0.0,0.0,0.0,0.0,0.0,0.0,0.0,0.0,0.0,0.0,0.0,-2.7435,-3.0477,-3.0858,-3.16,0.0,0.0,0.0,0.0,0.0,0.0,0.0,0.0,0.0,-3.4173,-3.4173,-3.4413,-3.4851,-3.4851,-3.4851,-3.4851,-3.4851,-3.4483,-3.3815,-3.3815,-3.3671,-3.3422,0.0,0.0,0.0,0.0,0.0,0.0,0.0,0.0,0.0,0.0,0.0,0.0,0.0,0.0,0.0,0.0,0.0,0.0,0.0,0.0,0.0,0.0,0.0,0.0,0.0,0.0,0.0,0.0,0.0,0.0,0.0,0.0,0.0,0.0,0.0,0.0,0.0,0.0,0.0,-3.316,-3.3397,0.0,0.0,0.0,0.0,-3.4105,-3.4486,-3.4917,-3.5398,-3.5964,-3.6279,-3.6279,-3.6307,-3.6043,-3.5521,-3.5521,-3.5379,-3.513,-3.5096,-3.5096,-3.5096,-3.5096,-3.5096,-3.5096,-3.5096,-3.5096,-3.4972,-3.3491,-3.2948,-3.2979,-3.2979,-3.3042,-3.3086,-3.3011,-3.3042,-3.3086,0.0,0.0,0.0,0.0,0.0,0.0,0.0,0.0,0.0,0.0,0.0,0.0,0.0,-2.7127,-2.863,-3.0803,-3.1944,-3.2795,-3.3357,0.0,0.0,0.0,0.0,0.0,0.0,0.0,-3.4099,-3.4473,-3.4473,-3.4539,-3.471,-3.471,-3.4791,-3.4908,-3.4908,-3.4691,-3.4316,-3.4458,-3.439,-3.4173,-3.4173,-3.3895,0.0,0.0,0.0,0.0,0.0,0.0,0.0,0.0,0.0,0.0,0.0,0.0,0.0,0.0,0.0,0.0,0.0,0.0,0.0,0.0,0.0,0.0,0.0,0.0,0.0,0.0,0.0,0.0,0.0,0.0,0.0,0.0,0.0,0.0,0.0,0.0,0.0,-3.3727,-3.4032,0.0,-3.517,-3.5339,-3.5524,-3.5788,-3.5943,-3.611,-3.6259,-3.6485,-3.6581,-3.6581,-3.6581,-3.6481,-3.6325,-3.6325,-3.6268,-3.6164,-3.6035,-3.5884,-3.5698,-3.5537,-3.5354,-3.5204,-3.5204,-3.5204,-3.5168,-3.4615,-3.4383,-3.4416,-3.4416,-3.4449,-3.4449,-3.4416,-3.4449,-3.4449,0.0,0.0,0.0,0.0,0.0,0.0,0.0,0.0,0.0,0.0,0.0,-2.5226,-2.6838,-2.8467,-3.0061,-3.1673,-3.2777,-3.3393,-3.3393,0.0,0.0,0.0,0.0,0.0,0.0,-3.4197,-3.4316,-3.4602,-3.4602,-3.4626,-3.471,-3.471,-3.4771,-3.4908,-3.4908,-3.4831,-3.471,-3.4831,-3.4732,-3.4473,-3.4473,-3.4203,-3.3797,0.0,0.0,0.0,0.0,0.0,0.0,0.0,0.0,0.0,0.0,0.0,0.0,0.0,0.0,0.0,0.0,0.0,0.0,0.0,0.0,0.0,0.0,0.0,0.0,0.0,0.0,0.0,0.0,0.0,0.0,0.0,0.0,0.0,0.0,0.0,-3.4123,-3.4533,-3.4999,-3.5469,-3.6076,-3.6362,-3.6554,-3.6686,-3.6946,-3.7095,-3.7095,-3.7355,-3.7392,-3.7113,-3.7095,-3.6939,-3.6562,-3.6562,-3.6535,-3.6436,-3.6505,-3.6425,-3.629,-3.6287,-3.6018,-3.5614,-3.5614,-3.5453,-3.5239,-3.5489,-3.5614,-3.5578,-3.5311,-3.5204,-3.5204,-3.5204,-3.5204,-3.5221,0.0,0.0,0.0,0.0,0.0,0.0,0.0,0.0,0.0,0.0,-2.5208,-2.6819,-2.8406,-3.0043,-3.1636,-3.3266,-3.3393,-3.3393,-3.3393,-3.3393,0.0,0.0,0.0,0.0,-3.4197,-3.4197,-3.434,-3.4623,-3.4623,-3.471,-3.4908,-3.4908,-3.4908,-3.4908,-3.4908,-3.4908,-3.4908,-3.4908,-3.463,-3.4221,-3.4221,-3.4136,-3.4,0.0,0.0,0.0,0.0,0.0,0.0,0.0,0.0,0.0,0.0,0.0,0.0,0.0,0.0,0.0,0.0,0.0,0.0,0.0,0.0,0.0,0.0,0.0,0.0,0.0,0.0,0.0,0.0,0.0,0.0,0.0,0.0,0.0,-3.5221,-3.5666,-3.5903,-3.5684,-3.6305,-3.6663,-3.6491,-3.6655,-3.676,-3.6723,-3.7448,-3.7894,-3.7856,-3.8618,-3.8711,-3.7912,-3.7949,-3.747,-3.6435,-3.6454,-3.634,-3.6073,-3.6671,-3.697,-3.6955,-3.7488,-3.7274,-3.6506,-3.6488,-3.6024,-3.5382,-3.6131,-3.6435,-3.6363,-3.5578,-3.5275,-3.5275,-3.5275,-3.5275,-3.5293,0.0,0.0,0.0,0.0,0.0,0.0,0.0,0.0,0.0,0.0,-2.5208,-2.6819,-2.8406,-3.0043,-3.1636,-3.3266,-3.3393,-3.3393,-3.3393,0.0,0.0,0.0,0.0,0.0,-3.4473,-3.4293,-3.439,-3.4831,-3.4831,-3.485,-3.4908,-3.4908,-3.4908,-3.4908,-3.4908,-3.4908,-3.4908,-3.4908,-3.4831,-3.4711,-3.4711,-3.4588,-3.4413,0.0,0.0,0.0,0.0,0.0,0.0,0.0,0.0,0.0,0.0,0.0,0.0,0.0,0.0,0.0,0.0,0.0,0.0,0.0,0.0,0.0,0.0,0.0,0.0,0.0,0.0,0.0,0.0,0.0,0.0,0.0,0.0,-3.6818,-3.5648,-3.5616,-3.596,-3.6685,-3.7121,-3.7552,-3.8103,-3.834,-3.8191,-3.7596,-3.7764,-3.7652,-3.7058,-3.7782,-3.8135,-3.7912,-3.9082,-3.9556,-3.9276,-3.9851,-4.0118,-4.0041,-4.0203,-4.0191,-3.9983,-3.9938,-3.9696,-3.9265,-3.8491,-3.8023,-3.7791,-3.7416,-3.7255,-3.7238,-3.7023,-3.6934,-3.6934,-3.6934,-3.6934,-3.6934,0.0,0.0,0.0,0.0,0.0,0.0,0.0,0.0,0.0,0.0,-2.5787,-2.7556,-2.8496,-3.064,-3.2379,-3.3321,-3.3393,-3.3393,-3.3393,0.0,0.0,0.0,0.0,-3.4173,-3.4602,-3.452,-3.463,-3.4908,-3.4908,-3.4908,-3.4908,-3.4908,-3.4908,-3.4908,-3.4908,-3.4908,-3.4908,-3.4908,-3.4908,-3.4927,-3.5306,-3.5112,-3.4602,-3.4458,-3.4247,-3.3996,-3.388,-3.3862,-3.3919,-3.4401,0.0,0.0,0.0,0.0,0.0,0.0,0.0,0.0,0.0,0.0,0.0,0.0,0.0,0.0,0.0,0.0,0.0,0.0,0.0,0.0,0.0,0.0,0.0,0.0,-3.7677,-3.7827,-3.6916,-3.6885,-3.7174,-3.779,-3.8085,-3.8284,-3.8403,-3.8517,-3.8395,-3.7931,-3.8209,-3.8358,-3.8247,-3.9008,-3.9287,-3.8952,-3.9881,-4.0215,-3.9863,-4.0308,-4.055,-4.055,-4.0815,-4.0843,-4.0719,-4.0775,-4.0486,-3.9842,-3.9247,-3.8687,-3.829,-3.8148,-3.8094,0.0,0.0,0.0,0.0,0.0,-3.7577,-3.7577,0.0,0.0,0.0,0.0,0.0,0.0,0.0,0.0,0.0,0.0,0.0,-2.8587,-2.8587,-3.1473,-3.3393,-3.3393,-3.3393,-3.3393,0.0,0.0,0.0,-3.4173,-3.4197,-3.4316,-3.4583,-3.4771,-3.4889,-3.4908,-3.4908,-3.4908,-3.4908,-3.4908,-3.4908,-3.4908,-3.4908,-3.4908,-3.4908,-3.4908,-3.4965,-3.5116,-3.5855,-3.5583,-3.4711,-3.4674,-3.4733,-3.4805,-3.4673,-3.4893,-3.5221,-3.5311,0.0,0.0,0.0,0.0,0.0,0.0,0.0,0.0,0.0,0.0,0.0,0.0,0.0,0.0,0.0,0.0,0.0,0.0,0.0,0.0,0.0,0.0,0.0,0.0,-3.8186,-3.8346,-3.8287,-3.8505,-3.8674,-3.8704,-3.8859,-3.8711,-3.8098,-3.8042,-3.8079,-3.8172,-3.8841,-3.9547,-4.0215,0.0,0.0,0.0,0.0,-4.029,-3.9528,-3.9602,-3.9658,-3.9658,-4.0148,-4.0425,-4.0412,-4.0833,-4.0488,-3.9589,-3.9463,-3.8852,-3.8023,-3.8665,-3.8933,-3.8843,-3.8041,-3.7719,-3.7702,-3.7612,-3.7577,-3.7577,0.0,0.0,0.0,0.0,0.0,0.0,0.0,0.0,0.0,-2.3795,-2.6602,-2.8587,-2.8587,-3.1473,-3.3393,-3.3393,-3.3393,-3.3491,0.0,0.0,-3.3868,-3.4197,-3.4197,-3.4316,-3.4583,-3.4626,-3.473,-3.4908,-3.4908,-3.4908,-3.4908,-3.4908,-3.4908,-3.4908,-3.4908,-3.4908,-3.4908,-3.4908,-3.5306,-3.595,-3.6001,-3.5819,-3.5552,-3.618,-3.6118,-3.5642,-3.5569,-3.5393,-3.5311,-3.5953,-3.6167,-3.6274,-3.6916,0.0,0.0,0.0,0.0,0.0,0.0,0.0,0.0,0.0,0.0,0.0,0.0,0.0,0.0,0.0,0.0,0.0,0.0,0.0,0.0,-3.7949,-3.8052,-3.7983,-3.7716,-3.7732,-3.7819,-3.8053,-3.8108,-3.8321,-3.8822,-3.8859,-3.9157,-3.9863,-4.0048,-3.9918,-3.938,-4.016,-4.055,-4.0401,-4.1664,-4.224,-4.2092,-4.2723,-4.3058,-4.3058,0.0,0.0,-4.2897,-4.2505,-4.2228,-4.1971,-4.1092,-4.0635,-4.0378,-3.9896,-3.97,-3.9629,-3.8861,-3.8576,-3.8487,-3.7826,-3.7577,-3.7577,0.0,0.0,0.0,0.0,0.0,0.0,0.0,0.0,0.0,0.0,-2.7109,-2.892,-2.9717,-3.1962,-3.3393,-3.3393,-3.3393,0.0,0.0,-3.3807,-3.3842,-3.3998,-3.4245,-3.4386,-3.4386,-3.4517,-3.4689,-3.4908,-3.4811,-3.4811,-3.4908,-3.4908,-3.4908,-3.4908,-3.4908,-3.4908,-3.4908,-3.4908,-3.5323,-3.5993,-3.6408,-3.6536,-3.647,-3.6638,-3.6583,-3.6386,-3.6327,-3.6317,-3.6453,-3.6863,-3.6988,-3.7059,-3.7452,-3.7577,-3.7577,0.0,0.0,0.0,0.0,0.0,0.0,0.0,0.0,0.0,0.0,0.0,0.0,0.0,0.0,-3.7685,0.0,0.0,-3.7959,-3.7785,-3.8186,-3.8469,-3.8203,-3.8615,-3.8859,-3.8544,-3.8488,-3.8822,-3.9658,-3.9751,-3.9918,-4.0364,-4.0754,-4.0977,-4.094,-4.1739,-4.2203,-4.2203,-4.3392,-4.4042,-4.4042,-4.4841,-4.5249,-4.5249,-4.4524,-4.4186,-4.4168,-4.3342,-4.2864,-4.2675,-4.2142,-4.1823,-4.1663,-4.127,-4.1092,-4.102,-4.0253,-3.9718,-3.9307,-3.8897,-3.8754,-3.8701,0.0,0.0,0.0,0.0,0.0,0.0,0.0,0.0,0.0,0.0,-2.7508,-2.9156,-3.0604,-3.2343,-3.3393,0.0,0.0,0.0,0.0,-3.3753,-3.378,-3.3868,-3.4245,-3.4386,-3.4269,-3.4495,-3.4689,-3.4908,-3.4751,-3.4751,-3.4908,-3.4908,-3.4908,-3.4908,-3.4908,-3.4889,-3.485,-3.485,-3.5143,-3.5731,-3.6667,-3.7128,-3.7241,-3.6922,-3.6906,-3.7043,-3.7027,-3.7289,-3.7577,-3.7577,-3.7577,-3.7577,-3.7577,-3.7577,-3.7577,-3.7577,-3.7577,0.0,0.0,0.0,0.0,0.0,0.0,0.0,0.0,0.0,-3.7577,-3.7577,-3.7577,-3.7721,-3.8153,-3.8252,-3.8099,-3.7674,-3.8453,-3.901,-3.8732,-3.9564,-4.0044,-3.9555,-3.9426,-3.9677,-4.055,-4.0624,-4.0754,-4.107,-4.185,-4.2593,-4.3243,-4.4042,-4.4488,-4.4488,-4.5175,-4.5528,-4.5528,-4.6178,-4.6494,-4.6494,-4.5485,-4.5015,-4.4926,-4.3981,-4.3391,-4.3044,-4.2901,-4.2638,-4.2287,-4.2287,-4.2287,-4.2234,-4.1591,-4.0949,-4.0342,-4.0039,-3.9914,-3.9825,0.0,0.0,0.0,0.0,0.0,0.0,0.0,0.0,0.0,0.0,0.0,0.0,0.0,0.0,0.0,0.0,0.0,0.0,-3.378,-3.3577,-3.3661,-3.4124,-3.3972,-3.4099,-3.4539,-3.4583,-3.4689,-3.4908,-3.4889,-3.4889,-3.4908,-3.4908,-3.4908,-3.4908,-3.4908,-3.4811,-3.4626,-3.4626,-3.4944,-3.5492,-3.62,-3.6879,-3.7482,-3.7804,-3.7783,-3.7631,-3.7805,-3.7738,-3.7577,-3.7577,-3.7577,-3.7577,-3.7577,-3.7577,-3.7577,-3.7577,0.0,-3.7577,-3.7577,-3.7577,-3.7577,-3.7577,-3.7577,-3.7577,0.0,0.0,-3.7577,-3.7577,-3.7577,-3.7613,-3.7685,-3.7685,-3.7756,-3.7925,-3.8627,-3.9,-3.8441,-3.9071,-3.9918,-4.0854,-4.0544,-4.0568,-4.1386,-4.146,-4.2054,-4.3485,-4.4395,-4.4934,-4.5008,-4.5769,-4.6215,-4.6215,-4.6308,-4.6364,-4.6364,-4.6457,-4.6494,-4.6494,-4.6057,-4.5754,-4.5495,-4.5059,-4.47,-4.4346,-4.3685,-4.3007,-4.2287,-4.2287,-4.2287,-4.2287,-4.2198,-4.2091,-4.1859,-4.0431,-3.9914,-3.9896,0.0,0.0,0.0,0.0,0.0,0.0,0.0,0.0,0.0,0.0,0.0,0.0,0.0,0.0,0.0,0.0,0.0,0.0,-3.3549,-3.3605,-3.3671,-3.3726,-3.4074,-3.4221,-3.4148,-3.445,-3.4626,-3.473,-3.473,-3.4791,-3.4908,-3.4908,-3.4908,-3.4908,-3.4908,-3.4851,-3.4771,-3.4567,-3.4792,-3.5347,-3.5966,-3.6534,-3.7062,-3.7944,-3.8018,-3.7649,-3.7757,-3.7685,0.0,0.0,-3.7577,-3.7577,-3.7577,-3.7577,-3.7577,-3.7577,-3.7577,0.0,-3.7577,-3.7577,0.0,0.0,-3.7577,-3.7577,-3.7577,-3.7577,-3.7577,-3.7577,-3.7577,-3.7649,-3.781,-3.8223,-3.8438,0.0,-3.9407,-4.0302,-4.002,-4.0822,-4.176,-4.2736,-4.2625,-4.263,-4.2965,-4.3448,-4.4023,-4.4711,-4.5528,-4.5992,-4.5992,-4.6308,-4.6494,-4.6494,-4.694,-4.72,-4.72,-4.7474,-4.7625,-4.7571,-4.6614,-4.6124,-4.5983,-4.5186,-4.4736,-4.4589,-4.4285,-4.3714,-4.3001,-4.3001,-4.2715,-4.2287,-4.2287,-4.2287,-4.2216,-4.1538,-4.1306,-4.1234,0.0,0.0,0.0,0.0,0.0,0.0,0.0,0.0,0.0,0.0,0.0,0.0,0.0,0.0,0.0,0.0,0.0,0.0,0.0,-3.3577,-3.3633,-3.3538,-3.3998,-3.4197,-3.4023,-3.4245,-3.445,-3.4602,-3.4517,-3.4564,-3.4711,-3.4772,-3.4831,-3.4831,-3.4831,-3.4772,-3.4632,-3.4311,-3.4377,-3.4697,-3.5334,-3.5856,-3.6376,-3.7489,-3.7769,-3.7631,-3.7685,-3.7649,0.0,0.0,-3.7577,-3.7577,-3.7577,-3.7577,-3.7577,-3.7577,-3.7577,-3.7577,-3.7577,0.0,0.0,-3.7577,-3.7577,-3.7577,-3.7577,-3.7577,-3.7577,-3.7577,-3.7577,-3.7649,-3.7845,-3.8564,-3.8959,-3.852,-4.0127,-4.1387,-4.1339,-4.2281,-4.3243,-4.3836,-4.4096,-4.4276,-4.4358,-4.4934,-4.5379,-4.5602,-4.6382,-4.6828,-4.6828,-4.7033,-4.7163,-4.7163,-4.7738,-4.8036,-4.8036,-4.8292,-4.8383,-4.8383,-4.7274,-4.6734,-4.6591,-4.5692,-4.516,-4.4946,-4.4946,-4.4517,-4.3822,-4.3822,-4.334,-4.2626,-4.2626,-4.2483,-4.2287,-4.2287,-4.2287,-4.2216,0.0,0.0,0.0,0.0,0.0,0.0,0.0,0.0,0.0,0.0,0.0,0.0,0.0,0.0,0.0,0.0,0.0,0.0,0.0,-3.3411,-3.352,-3.378,-3.3549,-3.3788,-3.4561,-3.4074,-3.4074,-3.4602,-3.434,-3.4221,-3.4221,-3.4495,-3.4623,-3.4623,-3.4623,-3.439,-3.4006,-3.3823,-3.3502,-3.3237,-3.4015,-3.481,-3.5536,-3.6358,-3.7059,-3.7613,-3.788,0.0,0.0,0.0,-3.7577,-3.7577,-3.7577,-3.7577,0.0,-3.7577,-3.7577,0.0,0.0,0.0,-3.7577,-3.7577,-3.7577,-3.7577,-3.7577,-3.7577,-3.7577,-3.7577,-3.7577,-3.7613,-3.7613,-3.8255,-3.8808,-3.8772,-4.0583,-4.1903,-4.1613,-4.2737,-4.3594,-4.3612,-4.4312,-4.4912,0.0,-4.5268,-4.5621,-4.6401,-4.7218,-4.7664,-4.7664,-4.8407,-4.8834,-4.8834,-4.8853,-4.8872,-4.8872,-4.8569,-4.8383,-4.8383,-4.8114,-4.7793,-4.7475,-4.7107,-4.6498,-4.5766,-4.5766,-4.532,-4.4589,-4.4589,-4.4143,-4.3465,-4.3465,-4.2983,-4.2287,-4.2287,-4.2287,-4.2287,0.0,0.0,0.0,0.0,0.0,0.0,0.0,0.0,0.0,0.0,0.0,0.0,0.0,0.0,0.0,0.0,0.0,0.0,0.0,-3.3393,-3.3452,-3.352,-3.3633,-3.3698,-3.3788,-3.4148,-3.4245,-3.4074,-3.448,-3.4502,-3.4197,-3.4473,-3.4454,-3.4213,-3.4213,-3.4099,-3.3906,-3.3625,-3.3437,-3.3364,-3.3934,-3.4324,-3.4666,-3.5952,-3.6613,-3.6899,0.0,0.0,0.0,0.0,0.0,-3.7594,-3.7447,-3.741,-3.741,-3.741,-3.741,-3.7447,0.0,0.0,-3.7577,-3.7577,-3.7577,-3.7577,-3.7577,-3.7521,-3.7447,-3.7577,-3.7762,-3.7962,-3.8117,-3.9199,-4.0144,-4.0144,-4.1438,-4.2503,-4.265,-4.3208,-4.3664,-4.3828,-4.4601,0.0,0.0,0.0,0.0,-4.7274,-4.8036,-4.85,-4.85,-4.876,-4.8909,-4.8909,-4.8909,-4.8909,-4.8909,-4.8587,-4.8307,-4.8132,-4.7603,-4.7294,-4.716,-4.7025,-4.6837,-4.6587,-4.6587,-4.6141,-4.541,-4.541,-4.4946,-4.4196,-4.3697,-4.334,-4.3036,-4.2483,-4.2287,-4.2287,0.0,0.0,0.0,0.0,0.0,0.0,0.0,0.0,0.0,0.0,0.0,0.0,0.0,0.0,0.0,0.0,0.0,0.0,0.0,0.0,-3.3393,-3.3393,-3.3577,-3.3633,-3.3549,-3.3921,-3.4023,-3.378,-3.4136,-3.4141,-3.3805,-3.4154,-3.4136,-3.3828,-3.3873,-3.3821,-3.3715,-3.339,-3.3232,-3.3256,-3.3534,-3.3847,-3.4222,-3.5204,-3.59,0.0,0.0,0.0,0.0,0.0,0.0,0.0,-3.7447,-3.7372,-3.7297,-3.7372,-3.7372,-3.7334,0.0,-3.7577,-3.7523,-3.722,-3.738,-3.7505,-3.722,-3.7271,-3.7447,-3.7577,-3.7919,-3.8232,-3.8408,-3.9739,-4.0784,-4.0784,-4.1855,-4.2788,-4.2995,-4.3286,-4.3529,-4.3697,-4.4712,-4.5598,0.0,0.0,0.0,-4.8129,-4.8612,-4.8909,-4.8909,-4.8909,-4.8909,-4.8909,-4.8909,-4.8909,-4.8909,-4.8587,-4.821,-4.7829,-4.7232,-4.6998,-4.6998,-4.6998,-4.6998,-4.6998,-4.6998,-4.6712,-4.623,-4.623,-4.5749,-4.4999,-4.4517,-4.4161,-4.3804,-4.3019,-4.2733,-4.268,0.0,0.0,0.0,0.0,0.0,0.0,0.0,0.0,0.0,0.0,0.0,0.0,0.0,0.0,0.0,0.0,0.0,0.0,0.0,0.0,0.0,-3.3411,-3.3393,-3.3491,-3.378,-3.3481,-3.3422,-3.3671,-3.3452,-3.3244,-3.3117,-3.3569,-3.3662,-3.3486,-3.3597,-3.3569,-3.3361,-3.3117,-3.2948,-3.2916,-3.2916,-3.3348,-3.4044,-3.4079,0.0,0.0,0.0,0.0,0.0,0.0,0.0,0.0,0.0,0.0,-3.7297,-3.7503,-3.7447,-3.7334,-3.7521,-3.7577,-3.7398,-3.6595,-3.6988,-3.738,-3.6577,-3.7006,-3.7594,-3.7577,-3.8049,-3.8404,0.0,0.0,-4.0855,-4.0837,-4.1873,-4.2655,-4.2711,-4.2957,-4.316,0.0,0.0,0.0,0.0,0.0,0.0,-4.882,0.0,-4.8909,-4.8909,-4.8909,-4.8909,-4.8855,-4.8909,-4.8909,-4.8855,-4.8495,-4.8075,-4.7511,-4.716,-4.6998,-4.6998,-4.6998,-4.6998,-4.6998,-4.6998,-4.6998,-4.6998,-4.6998,-4.6551,-4.5856,-4.582,-4.5338,-4.4589,-4.3839,-4.3536,-4.3393,0.0,0.0,0.0,0.0,0.0,0.0,0.0,0.0,0.0,0.0,0.0,0.0,0.0,0.0,0.0,0.0,0.0,0.0,0.0,0.0,0.0,0.0,0.0,0.0,0.0,0.0,0.0,0.0,0.0,-3.3532,-3.3117,-3.3437,-3.3437,-3.3147,-3.3147,-3.3117,-3.3024,-3.293,-3.2916,-3.2916,0.0,-3.3009,-3.3259,0.0,0.0,0.0,0.0,0.0,0.0,0.0,0.0,0.0,0.0,0.0,-3.6886,-3.7105,-3.7143,-3.7105,-3.7334,-3.7484,-3.7398,-3.6595,-3.6988,-3.738,-3.6577,-3.6915,-3.741,-3.7594,-3.8241,-3.8888,0.0,0.0,0.0,-4.1591,-4.2062,0.0,-4.2673,-4.2788,0.0,0.0,0.0,-4.5603,-4.5603,-4.7122,0.0,0.0,-4.8642,-4.8909,-4.8909,-4.8909,-4.8785,-4.855,-4.8785,-4.8678,-4.821,-4.7893,-4.7663,-4.7511,-4.716,-4.6998,-4.6998,-4.6998,-4.6998,-4.6998,-4.6998,-4.6998,-4.6998,-4.6998,-4.6873,-4.6623,-4.6034,-4.5677,-4.541,-4.4624,-4.3982,-4.3483,0.0,0.0,0.0,0.0,0.0,0.0,0.0,0.0,0.0,0.0,0.0,0.0,0.0,0.0,0.0,0.0,0.0,0.0,0.0,0.0,0.0,0.0,0.0,0.0,0.0,0.0,0.0,0.0,0.0,0.0,0.0,-3.3232,-3.319,-3.2948,-3.2997,-3.2948,-3.2916,-3.2916,0.0,0.0,0.0,0.0,0.0,0.0,0.0,0.0,0.0,0.0,0.0,0.0,0.0,-3.7447,-3.7447,-3.722,-3.7005,-3.7105,0.0,-3.7009,-3.7143,-3.7334,-3.7199,-3.6043,-3.6702,-3.7273,-3.6025,-3.6538,-3.7297,-3.7317,-3.7918,0.0,0.0,0.0,0.0,0.0,0.0,0.0,-4.2494,-4.2534,-4.2573,0.0,-4.4177,0.0,-4.5152,-4.6762,-4.7788,0.0,-4.821,-4.8495,-4.8495,-4.8495,-4.8402,-4.8249,-4.8402,-4.8326,-4.7992,-4.7663,-4.7511,-4.7511,-4.716,-4.6998,-4.6998,-4.6998,-4.6998,-4.6998,0.0,-4.6998,-4.6998,-4.6998,-4.6998,-4.6944,-4.6498,-4.632,-4.623,-4.5427,-4.4874,-4.4464,0.0,0.0,0.0,0.0,0.0,0.0,0.0,0.0,0.0,0.0,0.0,0.0,0.0,0.0,0.0,0.0,0.0,0.0,0.0,0.0,0.0,0.0,0.0,0.0,0.0,0.0,0.0,0.0,0.0,0.0,0.0,0.0,0.0,0.0,0.0,0.0,0.0,0.0,0.0,0.0,0.0,0.0,0.0,0.0,0.0,0.0,0.0,0.0,0.0,0.0,-3.741,-3.7577,-3.7577,-3.7447,-3.7259,-3.7259,-3.7105,-3.6948,-3.6948,-3.7105,-3.6905,-3.5402,-3.6291,-3.7075,-3.5403,-3.618,-3.722,-3.7027,0.0,-3.8042,-3.879,0.0,-4.0472,-4.1481,0.0,-4.2019,-4.2287,-4.2287,-4.2287,-4.2287,-4.3661,-4.4624,-4.4624,-4.6316,-4.7425,-4.7425,-4.7705,-4.7911,-4.7992,-4.7992,-4.7992,-4.7992,-4.7911,-4.7911,-4.7951,-4.7578,-4.7425,-4.7425,-4.7116,-4.6998,-4.6998,-4.6998,-4.6998,-4.6998,-4.6998,0.0,-4.6998,-4.6998,-4.6998,-4.6998,-4.6998,-4.6998,-4.6908,-4.6212,-4.5891,-4.5713,0.0,0.0,0.0,0.0,0.0,0.0,0.0,0.0,0.0,0.0,-2.3795,0.0,0.0,0.0,0.0,0.0,0.0,0.0,0.0,0.0,0.0,0.0,0.0,0.0,0.0,0.0,0.0,0.0,0.0,0.0,0.0,0.0,0.0,0.0,0.0,0.0,0.0,0.0,0.0,0.0,0.0,0.0,0.0,0.0,0.0,0.0,0.0,0.0,0.0,0.0,-3.7279,-3.7577,-3.7577,-3.7354,-3.7066,-3.7066,-3.6908,-3.6725,-3.6725,-3.6908,-3.6837,-3.5867,-3.638,-3.6858,-3.5867,-3.6359,0.0,0.0,0.0,-3.8084,-3.9038,-3.9912,0.0,-4.1664,0.0,0.0,0.0,0.0,-4.2287,0.0,0.0,0.0,0.0,0.0,0.0,0.0,0.0,-4.7407,-4.7992,-4.7992,-4.7992,-4.7992,-4.745,-4.7294,-4.7578,-4.7249,-4.707,-4.707,-4.7043,-4.6998,-4.6998,-4.6998,-4.6998,-4.6998,-4.6998,0.0,-4.6998,-4.6998,-4.6998,-4.6998,-4.6998,-4.6998,-4.6962,-4.6837,-4.6373,-4.5784,0.0,0.0,0.0,0.0,0.0,0.0,0.0,0.0,0.0,0.0,-2.3795,-2.394,0.0,0.0,0.0,0.0,0.0,0.0,0.0,0.0,0.0,0.0,0.0,0.0,0.0,0.0,0.0,0.0,0.0,0.0,0.0,0.0,0.0,0.0,0.0,0.0,0.0,0.0,0.0,0.0,0.0,0.0,0.0,0.0,0.0,0.0,0.0,0.0,0.0,0.0,-3.6752,-3.7484,-3.7558,-3.7466,-3.7279,-3.7066,-3.6948,-3.6788,-3.6544,-3.6667,-3.6654,-3.5828,-3.633,-3.6738,-3.585,0.0,0.0,0.0,0.0,-3.7307,-3.8191,0.0,0.0,0.0,0.0,0.0,0.0,0.0,0.0,0.0,0.0,0.0,0.0,0.0,0.0,0.0,0.0,-4.716,-4.745,-4.7493,-4.7493,-4.7493,-4.716,-4.707,-4.7249,-4.707,-4.6998,-4.6998,-4.6998,-4.6998,-4.6998,-4.6998,-4.6998,-4.6998,-4.6998,0.0,-4.6998,-4.6998,-4.6998,-4.6998,-4.6998,-4.6998,-4.6998,-4.6998,-4.6748,-4.6409,0.0,0.0,0.0,0.0,0.0,0.0,0.0,-2.3795,-2.3795,-2.3795,-2.3795,-2.3795,-2.3795,-2.4357,0.0,0.0,0.0,0.0,0.0,0.0,0.0,0.0,0.0,0.0,0.0,0.0,0.0,0.0,0.0,0.0,0.0,0.0,0.0,0.0,0.0,0.0,0.0,0.0,0.0,0.0,0.0,0.0,0.0,0.0,0.0,0.0,0.0,0.0,0.0,0.0,-3.6138,-3.6991,-3.7339,-3.7503,-3.7484,-3.7066,-3.6948,-3.6829,-3.6426,-3.6444,-3.6464,-3.5856,-3.6255,-3.6654,-3.5861,-3.6168,0.0,0.0,-3.6301,-3.6542,-3.7335,0.0,0.0,0.0,0.0,0.0,0.0,0.0,0.0,0.0,0.0,0.0,0.0,0.0,0.0,0.0,0.0,0.0,-4.6998,-4.6998,-4.6998,-4.6998,-4.6998,-4.6998,-4.6998,-4.6998,-4.6998,-4.6998,-4.6998,-4.6998,-4.6998,-4.6998,-4.6998,-4.6998,-4.6998,0.0,0.0,-4.6998,-4.6998,-4.6998,-4.6998,-4.6998,-4.6998,-4.6998,-4.6998,-4.6998,0.0,0.0,0.0,0.0,0.0,0.0,0.0,-2.3795,-2.3795,-2.3795,-2.3795,-2.3795,-2.3795,-2.3868,0.0,0.0,0.0,0.0,0.0,0.0,0.0,0.0,0.0,0.0,0.0,0.0,0.0,0.0,0.0,0.0,0.0,0.0,0.0,0.0,0.0,0.0,0.0,0.0,0.0,0.0,0.0,0.0,0.0,0.0,0.0,0.0,0.0,0.0,0.0,0.0,0.0,-3.5806,-3.6759,-3.7182,-3.7259,-3.6846,0.0,0.0,-3.6402,-3.6301,-3.6326,-3.6256,-3.6291,-3.6326,-3.6256,0.0,0.0,0.0,-3.6301,-3.6542,-3.7335,-3.8313,0.0,0.0,0.0,0.0,0.0,0.0,0.0,0.0,0.0,0.0,0.0,0.0,0.0,0.0,0.0,0.0,-4.6998,-4.6998,-4.6998,-4.6998,-4.6998,-4.6998,-4.6998,-4.6998,-4.6998,-4.6998,-4.6998,-4.6998,-4.6998,-4.6998,-4.6998,-4.6998,-4.6998,0.0,0.0,-4.6998,-4.6998,-4.6998,-4.6998,-4.6998,-4.6998,-4.6998,-4.6998,-4.6998,0.0,0.0,0.0,0.0,0.0,0.0,0.0,-2.3795,-2.3795,-2.3795,-2.3795,-2.3795,-2.3795,-2.3795,-2.3922,0.0,0.0,0.0,0.0,0.0,0.0,0.0,0.0,0.0,0.0,0.0,0.0,0.0,0.0,0.0,0.0,0.0,0.0,0.0,0.0,0.0,0.0,0.0,0.0,0.0,0.0,0.0,0.0,0.0,0.0,0.0,0.0,0.0,0.0,0.0,0.0,0.0,-3.5826,-3.6484,0.0,0.0,-3.6806,-3.6702,-3.6561,-3.6544,-3.6502,-3.6343,-3.6402,-3.6502,-3.6343,0.0,0.0,-3.6301,-3.6301,-3.6404,-3.6715,-3.7854,-3.892,0.0,0.0,0.0,0.0,0.0,0.0,0.0,0.0,0.0,0.0,0.0,0.0,0.0,0.0,0.0,-4.6998,-4.6998,-4.6998,-4.6998,-4.6998,-4.6998,-4.6998,-4.6998,-4.6998,-4.6998,-4.6998,-4.6998,-4.6998,-4.6998,-4.6998,-4.6998,-4.6998,0.0,0.0,-4.6998,-4.6998,-4.6998,-4.6998,-4.6998,-4.6998,-4.6998,-4.6998,-4.6998,0.0,0.0,0.0,0.0,0.0,0.0,-2.3795,-2.3795,-2.3795,-2.3795,-2.3795,-2.3795,-2.3795,-2.3795,-2.3795,-2.3795,0.0,0.0,0.0,0.0,0.0,0.0,0.0,0.0,0.0,0.0,0.0,0.0,0.0,0.0,0.0,0.0,0.0,0.0,0.0,0.0,0.0,0.0,0.0,0.0,0.0,0.0,0.0,0.0,0.0,0.0,0.0,0.0,0.0,0.0,0.0,0.0,0.0,0.0,0.0,0.0,-3.6788,-3.6766,-3.6702,-3.6725,-3.6748,-3.655,-3.6585,-3.6643,0.0,0.0,0.0,-3.6301,-3.6301,-3.6343,-3.6402,-3.7456,-3.8512,-3.9015,0.0,-4.1515,0.0,0.0,0.0,0.0,0.0,0.0,0.0,0.0,0.0,0.0,0.0,0.0,-4.6998,-4.6998,-4.6998,-4.6998,-4.6998,-4.6998,-4.6998,-4.6998,-4.6998,-4.6998,-4.6998,-4.6998,-4.6998,-4.6998,-4.6998,-4.6998,-4.6998,0.0,0.0,-4.6998,-4.6998,-4.6998,-4.6998,-4.6998,-4.6998,-4.6998,-4.6998,-4.6998,0.0,0.0,0.0,0.0,0.0,0.0,0.0,-2.3795,-2.3795,-2.3795,-2.3795,-2.3795,-2.3795,-2.3795,-2.3795,-2.3795,0.0,0.0,0.0,0.0,0.0,0.0,0.0,0.0,0.0,0.0,0.0,-3.1798,-3.1798,0.0,0.0,0.0,0.0,0.0,0.0,0.0,0.0,0.0,0.0,0.0,0.0,0.0,0.0,0.0,0.0,0.0,0.0,0.0,0.0,0.0,0.0,0.0,0.0,0.0,0.0,0.0,-3.6632,-3.6948,-3.6766,-3.6846,-3.6987,-3.697,-3.6846,-3.6702,0.0,0.0,0.0,-3.6301,-3.6301,-3.6402,-3.6643,-3.7328,-3.8119,-3.914,-4.0123,-4.1067,-4.181,0.0,0.0,0.0,0.0,0.0,0.0,0.0,0.0,0.0,0.0,0.0,-4.6998,-4.6998,-4.6998,-4.6998,-4.6998,-4.6998,-4.6998,-4.6998,-4.6998,-4.6998,-4.6998,-4.6998,-4.6998,-4.6998,-4.6998,0.0,0.0,0.0,0.0,-4.6998,-4.6998,-4.6998,-4.6998,-4.6998,-4.6998,-4.6998,-4.6998,-4.6998,0.0,0.0,0.0,0.0,0.0,0.0,0.0,-2.4192,-2.4247,-2.4229,-2.4211,-2.4155,-2.402,-2.4019,-2.3959,-2.3816,0.0,0.0,0.0,0.0,0.0,0.0,0.0,0.0,0.0,0.0,-3.017,-3.1186,-3.1685,-3.2289,-3.2979,0.0,0.0,0.0,0.0,0.0,0.0,0.0,0.0,0.0,0.0,0.0,0.0,0.0,0.0,0.0,0.0,0.0,0.0,0.0,0.0,0.0,0.0,0.0,0.0,0.0,0.0,0.0,-3.6684,-3.6742,-3.6806,-3.6806,-3.6846,-3.6908,-3.6908,0.0,0.0,-3.6771,-3.6771,-3.6811,-3.6869,-3.7498,-3.8292,-3.914,-4.0164,-4.1049,0.0,0.0,0.0,0.0,0.0,0.0,0.0,0.0,0.0,0.0,0.0,0.0,-4.6998,-4.6998,-4.6998,-4.6998,-4.6998,-4.6998,-4.6998,-4.6998,-4.6998,-4.6998,-4.6998,-4.6998,-4.6998,-4.6998,-4.6998,0.0,0.0,0.0,0.0,-4.6998,-4.6998,-4.6998,-4.6998,-4.6998,-4.6998,-4.6998,-4.6998,-4.6998,0.0,0.0,0.0,0.0,0.0,0.0,0.0,-2.4374,-2.4442,-2.4301,-2.4355,-2.4319,-2.4117,-2.4116,-2.4019,-2.3816,0.0,0.0,0.0,0.0,0.0,0.0,0.0,0.0,0.0,-2.905,-2.9674,-3.0441,-3.1196,-3.1948,-3.2629,-3.2885,-3.2979,0.0,0.0,0.0,0.0,0.0,0.0,0.0,0.0,0.0,-3.2606,0.0,0.0,0.0,0.0,0.0,0.0,0.0,0.0,0.0,0.0,0.0,0.0,0.0,-3.6444,0.0,0.0,-3.6783,-3.6806,-3.6806,-3.6846,0.0,0.0,0.0,0.0,0.0,-3.6948,-3.7009,-3.7105,-3.7492,-3.8201,-3.9317,-4.0063,-4.0836,0.0,0.0,0.0,0.0,0.0,0.0,0.0,0.0,0.0,0.0,0.0,0.0,-4.6998,-4.6998,-4.6998,-4.6998,-4.6998,-4.6998,-4.6998,-4.6998,-4.6998,-4.6998,-4.6998,-4.6998,-4.6998,-4.6998,-4.6998,0.0,0.0,0.0,0.0,-4.6998,-4.6998,-4.6998,-4.6998,-4.6998,-4.6998,-4.6998,-4.6998,-4.6998,0.0,0.0,0.0,0.0,0.0,0.0,0.0,0.0,0.0,0.0,-2.4319,-2.4355,-2.4136,-2.4117,-2.402,0.0,0.0,0.0,0.0,0.0,0.0,0.0,0.0,0.0,0.0,-2.8587,-2.8977,-2.9773,-3.0531,-3.1315,-3.211,-3.2719,-3.3028,-3.3011,-3.2948,0.0,0.0,0.0,0.0,0.0,0.0,0.0,0.0,0.0,0.0,0.0,0.0,0.0,0.0,0.0,0.0,0.0,0.0,0.0,0.0,0.0,0.0,0.0,0.0,0.0,0.0,0.0,0.0,0.0,0.0,0.0,0.0,0.0,0.0,0.0,-3.7297,-3.7334,-3.7887,-3.9626,-3.9914,-4.0467,0.0,0.0,0.0,0.0,0.0,0.0,0.0,0.0,0.0,0.0,0.0,0.0,-4.6998,-4.6998,-4.6998,-4.6998,-4.6998,-4.6998,-4.6998,-4.6998,-4.6998,-4.6998,-4.6998,-4.6998,-4.6998,-4.6998,-4.6998,0.0,0.0,0.0,0.0,-4.6998,-4.6998,-4.6998,-4.6998,-4.6998,-4.6934,-4.6998,-4.6934,-4.6888,0.0,0.0,0.0,0.0,0.0,0.0,0.0,0.0,0.0,0.0,0.0,-2.4719,-2.4372,-2.4319,0.0,0.0,0.0,0.0,0.0,0.0,0.0,0.0,0.0,0.0,0.0,-2.8587,-2.9274,-3.0686,-3.0867,-3.1671,-3.301,-3.316,-3.3183,-3.3073,-3.3055,0.0,0.0,0.0,0.0,0.0,0.0,0.0,0.0,0.0,0.0,0.0,-3.2301,-3.237,0.0,0.0,0.0,0.0,0.0,0.0,0.0,0.0,-3.6435,-3.6948,-3.6948,0.0,-3.6509,-3.6725,0.0,0.0,0.0,0.0,0.0,0.0,0.0,0.0,0.0,0.0,-3.8057,-3.9664,-3.9914,-4.0467,0.0,0.0,0.0,0.0,0.0,0.0,0.0,0.0,0.0,0.0,0.0,-4.6998,-4.6998,-4.6998,-4.6998,-4.6998,-4.6998,-4.6998,-4.6998,-4.6998,-4.6998,-4.6998,-4.6998,-4.6998,-4.6998,-4.6998,-4.6998,0.0,0.0,0.0,-4.6998,-4.6998,-4.6998,-4.6998,-4.6998,-4.6731,-4.6429,-4.6842,-4.6459,-4.5817,0.0,0.0,0.0,0.0,0.0,0.0,0.0,0.0,0.0,0.0,0.0,0.0,0.0,0.0,0.0,0.0,0.0,0.0,0.0,0.0,0.0,0.0,0.0,0.0,-2.8551,-2.8587,-2.921,-3.0441,-3.0803,-3.1608,-3.281,-3.316,-3.3262,-3.3183,-3.3135,0.0,0.0,0.0,0.0,0.0,-3.2916,0.0,0.0,0.0,0.0,0.0,-3.2472,-3.2454,0.0,-3.2454,-3.2488,-3.2747,0.0,0.0,0.0,0.0,-3.6526,-3.7105,-3.7027,-3.6811,-3.665,-3.6788,-3.6908,-3.6987,0.0,0.0,0.0,0.0,0.0,0.0,0.0,0.0,0.0,0.0,-3.9914,0.0,0.0,0.0,0.0,0.0,0.0,0.0,0.0,0.0,0.0,0.0,0.0,-4.7043,-4.7088,-4.7043,-4.7043,-4.7088,-4.7043,-4.6998,-4.6998,-4.6998,-4.6998,-4.6998,-4.6998,-4.6998,-4.6998,-4.6998,-4.6998,0.0,0.0,0.0,-4.6998,-4.6998,-4.6998,-4.6998,-4.6731,-4.6447,-4.6235,-4.6542,-4.6217,-4.5852,0.0,0.0,0.0,0.0,0.0,0.0,0.0,0.0,0.0,0.0,0.0,0.0,0.0,0.0,0.0,0.0,0.0,0.0,0.0,0.0,0.0,0.0,0.0,-2.694,-2.8551,-2.8587,-2.9065,-2.997,-3.0659,-3.1473,-3.2397,-3.3027,-3.334,-3.3292,-3.3165,-3.3055,0.0,0.0,0.0,0.0,-3.2916,0.0,0.0,0.0,0.0,0.0,0.0,0.0,0.0,-3.2555,-3.2639,-3.2796,-3.3621,0.0,0.0,0.0,0.0,0.0,-3.7143,-3.7087,-3.7105,-3.7027,-3.7009,-3.7027,0.0,0.0,0.0,0.0,0.0,0.0,0.0,0.0,0.0,0.0,0.0,0.0,0.0,0.0,0.0,0.0,0.0,0.0,0.0,0.0,0.0,0.0,0.0,-4.7088,-4.7223,-4.7133,-4.7088,-4.7223,-4.7133,-4.7025,-4.7043,-4.6998,-4.6998,-4.6998,-4.6998,-4.6998,-4.6998,-4.6998,-4.6998,-4.6998,0.0,0.0,-4.6998,-4.6998,-4.6998,-4.6952,-4.6381,-4.6137,-4.607,-4.607,-4.602,-4.6003,0.0,0.0,0.0,0.0,0.0,0.0,0.0,0.0,0.0,0.0,0.0,0.0,0.0,0.0,0.0,0.0,0.0,0.0,0.0,0.0,0.0,0.0,-2.6157,-2.6917,-2.8551,-2.8587,-2.9337,-3.0803,-3.093,-3.1763,-3.323,-3.3309,-3.3364,-3.3382,-3.3196,-3.3086,-3.3086,-3.2979,-3.2916,-3.2916,-3.2916,0.0,0.0,0.0,0.0,0.0,0.0,0.0,0.0,-3.2639,-3.2705,-3.287,-3.2847,0.0,0.0,0.0,0.0,0.0,-3.7503,-3.7503,-3.7447,-3.7105,-3.7143,-3.722,0.0,0.0,0.0,0.0,0.0,0.0,0.0,0.0,0.0,0.0,0.0,0.0,0.0,0.0,0.0,0.0,0.0,0.0,0.0,0.0,0.0,0.0,0.0,-4.7258,-4.7276,-4.7276,-4.7258,-4.7276,-4.7258,-4.7249,-4.7196,-4.7043,-4.6998,-4.6998,-4.6998,-4.6998,-4.6998,-4.6998,-4.6998,-4.6998,0.0,-4.6998,-4.6998,-4.6998,-4.6998,-4.6952,-4.6381,-4.5903,-4.5425,-4.5425,-4.5161,-4.4715,0.0,0.0,0.0,0.0,0.0,0.0,0.0,0.0,0.0,0.0,0.0,0.0,0.0,0.0,0.0,0.0,0.0,0.0,0.0,0.0,0.0,-2.6131,-2.6181,-2.6917,-2.8551,-2.8587,-2.9391,-3.0985,-3.0985,-3.1818,-3.3393,-3.3393,-3.3393,-3.3411,-3.3286,-3.3244,-3.3214,-3.3152,-3.306,-3.2948,0.0,0.0,0.0,0.0,0.0,0.0,0.0,0.0,0.0,0.0,-3.2802,-3.2955,-3.3286,0.0,0.0,0.0,0.0,0.0,-3.7577,-3.7577,-3.7558,-3.7354,-3.7392,-3.7447,0.0,0.0,0.0,0.0,0.0,0.0,0.0,0.0,0.0,0.0,0.0,0.0,0.0,0.0,0.0,0.0,0.0,0.0,0.0,0.0,0.0,0.0,0.0,0.0,-4.7407,-4.7363,-4.7302,-4.7407,-4.7363,-4.7276,-4.7249,-4.7178,-4.7088,-4.6998,-4.6998,-4.6998,-4.6998,-4.6998,-4.6998,-4.6998,0.0,-4.6842,-4.659,-4.659,-4.6381,-4.6052,-4.5494,-4.5125,-4.4858,-4.4697,-4.4699,-4.4613,0.0,0.0,0.0,0.0,0.0,0.0,0.0,0.0,0.0,0.0,0.0,0.0,0.0,0.0,0.0,0.0,0.0,0.0,0.0,0.0,-2.4719,-2.6149,-2.6385,-2.7164,-2.8569,-2.8793,-2.959,-3.0975,-3.1184,-3.1999,-3.3393,-3.3393,-3.3393,-3.3393,-3.3364,-3.3352,-3.331,-3.3262,-3.3152,-3.3011,0.0,0.0,0.0,0.0,0.0,0.0,0.0,0.0,0.0,0.0,0.0,0.0,0.0,0.0,0.0,-3.6167,-3.697,-3.7577,-3.7577,-3.7577,-3.7577,-3.7577,0.0,-3.7577,-3.7577,0.0,0.0,0.0,0.0,0.0,0.0,0.0,0.0,0.0,0.0,0.0,0.0,0.0,0.0,0.0,0.0,0.0,0.0,0.0,0.0,0.0,0.0,0.0,-4.7554,-4.745,-4.745,-4.7554,-4.7468,-4.7363,-4.7363,-4.7249,-4.7178,-4.7043,-4.7043,-4.6998,-4.6998,-4.6998,-4.6998,-4.6998,-4.6998,-4.6684,-4.6186,-4.6186,-4.5852,-4.525,-4.4855,-4.4606,-4.4351,-4.3975,-4.4004,-4.4069,0.0,0.0,0.0,0.0,0.0,0.0,0.0,0.0,0.0,0.0,0.0,0.0,0.0,0.0,0.0,0.0,0.0,0.0,0.0,0.0,-2.5298,-2.6168,-2.6928,-2.7725,-2.8569,-2.9318,-3.0107,-3.091,-3.1717,-3.2542,-3.3393,-3.3393,-3.3393,-3.3411,-3.3322,-3.3292,-3.3292,-3.3165,-3.3104,-3.3086,-3.3086,0.0,0.0,0.0,0.0,0.0,0.0,0.0,0.0,0.0,0.0,0.0,0.0,0.0,-3.5364,-3.6167,-3.697,-3.7577,-3.7577,-3.7577,-3.7577,-3.7577,0.0,0.0,-3.7577,0.0,0.0,0.0,0.0,0.0,0.0,0.0,0.0,0.0,0.0,0.0,0.0,0.0,0.0,0.0,0.0,0.0,0.0,0.0,0.0,0.0,0.0,0.0,-4.7675,-4.7675,-4.7675,-4.7675,-4.7675,-4.7615,-4.7511,-4.7363,-4.7249,-4.7178,-4.7043,-4.6998,-4.6998,-4.6998,-4.6998,-4.6998,-4.6998,-4.6684,-4.6186,-4.6186,-4.5852,-4.5303,-4.525,-4.4767,-4.4044,-4.3338,-4.2681,-4.2192,0.0,0.0,0.0,0.0,0.0,0.0,0.0,0.0,0.0,0.0,0.0,0.0,0.0,0.0,0.0,0.0,0.0,0.0,0.0,0.0,-2.5415,-2.6168,-2.6982,-2.8015,-2.9318,-2.9626,-3.0423,-3.1717,-3.256,-3.3103,-3.3393,-3.3393,-3.3393,-3.3393,-3.3382,-3.3352,-3.3352,-3.3304,-3.3274,-3.3214,-3.3214,-3.3183,0.0,0.0,0.0,0.0,0.0,0.0,0.0,0.0,-3.2916,-3.3098,0.0,-3.4989,-3.5471,-3.6756,-3.7345,-3.7577,-3.7577,-3.7577,-3.7613,-3.7631,0.0,0.0,0.0,0.0,0.0,0.0,0.0,0.0,0.0,0.0,0.0,0.0,0.0,0.0,0.0,0.0,0.0,0.0,0.0,0.0,0.0,0.0,0.0,0.0,0.0,0.0,-4.7681,-4.7717,-4.7717,-4.7717,-4.7717,-4.7615,-4.7511,-4.7363,-4.7294,-4.7196,-4.7043,-4.6998,-4.6998,-4.6998,-4.6998,-4.6998,-4.6998,-4.6684,-4.6186,-4.5802,-4.532,-4.4695,-4.3905,-4.3098,-4.2341,-4.197,-4.1614,-4.1375,0.0,0.0,0.0,0.0,0.0,0.0,0.0,0.0,0.0,0.0,0.0,0.0,0.0,0.0,0.0,0.0,0.0,0.0,0.0,-2.5002,-2.5796,-2.6548,-2.7598,-2.8793,-3.0133,-3.0423,-3.1093,-3.2169,-3.2984,-3.3382,-3.3393,-3.3393,-3.3393,-3.3393,-3.3393,-3.3393,-3.3393,-3.3393,-3.3382,-3.3322,-3.3322,-3.3244,0.0,0.0,0.0,0.0,0.0,0.0,0.0,0.0,-3.3108,-3.3555,0.0,-3.5434,-3.5898,-3.722,-3.7613,-3.7613,-3.7613,-3.7613,-3.7649,0.0,0.0,0.0,0.0,0.0,0.0,0.0,0.0,0.0,0.0,0.0,0.0,0.0,0.0,0.0,0.0,0.0,0.0,0.0,0.0,0.0,0.0,0.0,0.0,0.0,0.0,0.0,0.0,-4.7572,-4.7717,-4.7717,-4.7657,-4.7597,-4.7511,-4.7338,-4.7249,-4.7196,-4.7043,-4.6998,-4.6998,-4.6998,-4.6998,-4.6998,-4.6998,-4.6572,-4.5885,-4.5217,-4.4504,-4.3669,-4.254,-4.1882,-4.1547,-4.1155,-4.1119,-4.1133,0.0,0.0,0.0,0.0,0.0,0.0,0.0,0.0,0.0,0.0,0.0,0.0,0.0,0.0,0.0,0.0,0.0,0.0,-2.5059,-2.5792,-2.6584,-2.7381,-2.8938,-3.017,-3.0966,-3.1799,-3.2187,-3.2101,-3.2913,-3.3322,-3.3393,-3.3393,-3.3393,-3.3393,-3.3393,-3.3393,-3.3393,-3.3393,-3.3393,-3.3393,-3.3393,-3.3352,-3.331,0.0,0.0,0.0,0.0,0.0,0.0,0.0,-3.3611,-3.4354,0.0,0.0,0.0,-3.7488,-3.7703,-3.7703,-3.7703,-3.7703,0.0,0.0,0.0,0.0,0.0,0.0,0.0,0.0,0.0,0.0,0.0,0.0,0.0,0.0,0.0,0.0,0.0,0.0,0.0,0.0,0.0,0.0,0.0,0.0,0.0,0.0,0.0,0.0,0.0,-4.7246,-4.7681,-4.7681,-4.7536,-4.7493,-4.7493,-4.7294,-4.7178,-4.7196,-4.7043,-4.6998,-4.6998,-4.6998,-4.6998,-4.6998,-4.6998,-4.6346,-4.5234,-4.4475,-4.346,-4.2221,-4.1424,-4.1426,-4.1885,-4.1078,-4.1065,-4.1428,0.0,0.0,0.0,0.0,0.0,0.0,0.0,0.0,0.0,0.0,0.0,0.0,0.0,0.0,0.0,0.0,0.0,0.0,0.0,-2.6404,-2.7187,-2.7399,-2.8938,-3.017,-3.0966,-3.2343,-3.3049,-3.302,-3.3255,-3.3382,-3.3393,-3.3393,-3.3393,-3.3393,-3.3393,-3.3393,-3.3393,-3.3393,-3.3393,-3.3393,-3.3393,-3.3382,-3.3382,0.0,0.0,0.0,0.0,0.0,0.0,0.0,0.0,0.0,-3.5888,0.0,-3.6822,-3.7612,-3.7846,-3.7846,-3.7846,0.0,0.0,0.0,0.0,0.0,0.0,0.0,0.0,0.0,0.0,0.0,0.0,0.0,0.0,0.0,0.0,0.0,0.0,0.0,0.0,0.0,0.0,0.0,0.0,0.0,0.0,0.0,0.0,0.0,0.0,-4.5825,-4.5928,-4.5928,-4.5828,-4.5953,-4.6424,-4.6398,-4.6579,-4.7043,-4.7043,-4.6998,-4.6998,-4.6998,-4.6778,-4.6447,-4.6447,-4.5688,-4.444,-4.3339,-4.2098,-4.0921,-4.0704,-4.0394,-4.0101,-4.0188,-4.012,-3.9986,0.0,0.0,0.0,0.0,0.0,0.0,0.0,0.0,0.0,0.0,0.0,0.0,0.0,0.0,0.0,0.0,0.0,0.0,0.0,0.0,-2.7803,-2.8366,-2.9642,-3.0831,-3.1926,-3.2904,-3.3393,-3.3393,-3.3393,-3.3393,-3.3393,-3.3393,-3.3393,-3.3393,-3.3393,-3.3393,-3.3393,-3.3393,-3.3393,-3.3393,-3.3393,-3.3393,-3.3393,0.0,0.0,0.0,0.0,0.0,0.0,0.0,0.0,0.0,0.0,0.0,0.0,-3.7807,-3.7951,-3.7951,-3.7951,0.0,0.0,0.0,0.0,0.0,0.0,0.0,0.0,0.0,0.0,0.0,0.0,0.0,0.0,0.0,0.0,0.0,0.0,0.0,0.0,0.0,0.0,0.0,0.0,0.0,0.0,0.0,0.0,0.0,0.0,-4.5043,-4.5201,-4.5142,-4.5,-4.5132,-4.553,-4.5469,-4.5676,-4.6052,-4.6052,-4.6052,-4.607,-4.6712,-4.6571,-4.5712,-4.4985,-4.4043,-4.2929,-4.1946,-4.0946,-3.9989,-4.0171,-3.9851,-3.9379,-3.9817,-3.9817,-3.9592,0.0,0.0,0.0,0.0,0.0,0.0,0.0,0.0,0.0,0.0,0.0,0.0,0.0,0.0,0.0,0.0,0.0,0.0,0.0,0.0,-2.8433,-2.9839,-3.0739,-3.1891,-3.3375,-3.3393,-3.3393,-3.3393,-3.3393,-3.3393,-3.3393,-3.3393,-3.3393,-3.3393,-3.3393,-3.3393,-3.3393,-3.3393,-3.3393,-3.3393,-3.3393,-3.3393,-3.3393,-3.3393,0.0,0.0,0.0,0.0,0.0,0.0,0.0,0.0,-3.6666,-3.7424,-3.8018,-3.8018,-3.8018,-3.8018,0.0,0.0,0.0,0.0,0.0,0.0,0.0,0.0,0.0,0.0,0.0,0.0,0.0,0.0,0.0,0.0,0.0,0.0,0.0,0.0,0.0,0.0,0.0,0.0,0.0,0.0,0.0,0.0,0.0,0.0,0.0,-4.457,-4.4926,-4.4785,-4.4641,-4.4635,-4.4664,-4.4561,-4.4553,-4.4624,-4.4624,-4.4624,-4.466,-4.6105,-4.6081,-4.4804,-4.2929,-4.1762,-4.1067,-4.0538,-3.9885,-3.9325,-3.9782,-3.9696,-3.9379,-3.9817,-3.9952,-3.9868,0.0,0.0,0.0,0.0,0.0,0.0,0.0,0.0,0.0,0.0,0.0,0.0,0.0,0.0,0.0,0.0,0.0,0.0,0.0,0.0,-2.9548,-2.9893,-3.1238,-3.2426,-3.3375,-3.3393,-3.3393,-3.3393,-3.3393,-3.3393,-3.3393,-3.3393,-3.3393,-3.3393,-3.3393,-3.3393,-3.3393,-3.3393,-3.3393,-3.3393,-3.3393,-3.3393,-3.3393,-3.3393,-3.3393,0.0,0.0,0.0,0.0,0.0,0.0,0.0,-3.7633,-3.8013,-3.8174,-3.8174,-3.8174,-3.8174,0.0,0.0,0.0,0.0,0.0,0.0,0.0,0.0,0.0,0.0,0.0,0.0,0.0,0.0,0.0,0.0,0.0,0.0,0.0,0.0,0.0,0.0,0.0,0.0,0.0,0.0,0.0,0.0,0.0,0.0,-4.3054,-4.312,-4.3131,-4.3046,-4.2887,-4.315,-4.3793,-4.375,-4.4036,0.0,-4.4624,-4.4624,-4.4624,-4.4963,-4.4534,-4.3333,-4.1553,-4.0717,-4.0534,-3.979,-3.9421,-3.9325,-3.9415,-3.9362,-3.9379,-3.9817,-3.9782,-3.9504,0.0,0.0,0.0,0.0,0.0,0.0,0.0,0.0,0.0,0.0,0.0,0.0,0.0,0.0,0.0,0.0,0.0,0.0,0.0,0.0,0.0,-3.1011,-3.221,-3.2987,-3.3393,-3.3393,-3.3393,-3.3393,-3.3393,0.0,0.0,0.0,0.0,-3.3393,0.0,-3.3393,-3.3393,-3.3393,-3.3393,-3.3393,-3.3393,-3.3393,-3.3393,-3.3393,-3.3647,-3.3973,-3.3973,0.0,0.0,0.0,0.0,0.0,0.0,0.0,-3.8192,-3.8192,-3.8192,-3.8192,0.0,0.0,0.0,0.0,0.0,0.0,0.0,0.0,0.0,0.0,0.0,0.0,0.0,0.0,0.0,0.0,0.0,0.0,0.0,0.0,0.0,0.0,0.0,0.0,0.0,0.0,0.0,0.0,0.0,-4.2783,-4.2706,-4.2649,-4.253,-4.2405,-4.2346,-4.2483,-4.2912,-4.2929,-4.3126,-4.35,-4.35,-4.35,-4.3518,-4.3403,-4.2897,-4.204,-4.0548,-3.9852,-3.9818,-3.9437,-3.9272,-3.9272,-3.9272,-3.9272,-3.9325,-3.9592,-3.9504,-3.9325,0.0,0.0,0.0,0.0,0.0,0.0,0.0,0.0,0.0,0.0,0.0,0.0,0.0,0.0,0.0,0.0,0.0,0.0,0.0,0.0,0.0,0.0,-3.3136,-3.3452,-3.3393,-3.3393,-3.3393,-3.3393,0.0,0.0,0.0,0.0,0.0,-3.3393,0.0,-3.3393,-3.3393,-3.3393,-3.3393,-3.3393,-3.3393,-3.3393,-3.3429,-3.3556,-3.4027,-3.4624,-3.4769,-3.5331,-3.6109,-3.6761,0.0,0.0,0.0,0.0,-3.8192,-3.8192,-3.8192,-3.8192,0.0,0.0,0.0,0.0,0.0,0.0,0.0,0.0,0.0,0.0,0.0,0.0,0.0,0.0,0.0,0.0,0.0,0.0,0.0,0.0,0.0,0.0,0.0,0.0,0.0,0.0,0.0,0.0,0.0,-4.2706,-4.2609,-4.257,-4.249,-4.2287,-4.2287,-4.2287,-4.2287,-4.2287,-4.2287,-4.2287,-4.2287,-4.2246,-4.2163,-4.1928,-4.1538,-4.1053,-3.9823,-3.9272,-3.9272,-3.9272,-3.9272,-3.9325,-3.9362,-3.9362,-3.9325,-3.9362,-3.9362,-3.9272,0.0,0.0,0.0,0.0,0.0,0.0,0.0,0.0,0.0,0.0,0.0,0.0,0.0,0.0,0.0,0.0,0.0,0.0,-2.9923,0.0,0.0,-3.3212,-3.3339,-3.3393,-3.3393,-3.3393,-3.3393,-3.3393,0.0,0.0,0.0,0.0,0.0,-3.3393,0.0,0.0,-3.3393,-3.3393,-3.3393,-3.3393,-3.3393,-3.3393,-3.3484,-3.4172,-3.4516,-3.4697,-3.5403,-3.6164,-3.6852,-3.6942,-3.7449,0.0,0.0,0.0,-3.8192,-3.8192,-3.8192,0.0,0.0,0.0,0.0,0.0,0.0,0.0,0.0,0.0,0.0,0.0,0.0,0.0,0.0,0.0,0.0,0.0,0.0,0.0,0.0,0.0,0.0,0.0,0.0,0.0,0.0,0.0,0.0,0.0,-4.2709,-4.2609,-4.2609,-4.2548,-4.2445,-4.2287,-4.2287,-4.2287,-4.2287,-4.2287,-4.2287,-4.2287,-4.2287,-4.2061,-4.1578,-4.114,-4.0909,-4.0814,-3.9746,-3.9272,-3.9272,-3.9272,-3.9272,-3.9325,-3.9731,-3.9644,-3.9379,-3.9782,-3.9644,-3.9272,0.0,0.0,0.0,0.0,0.0,0.0,0.0,0.0,0.0,0.0,0.0,0.0,0.0,0.0,0.0,-2.9072,-2.9692,-3.0378,-3.1228,-3.1883,-3.2589,-3.3375,-3.3393,-3.3393,-3.3393,-3.3393,-3.3393,0.0,0.0,0.0,0.0,-3.3393,-3.3393,0.0,0.0,0.0,0.0,0.0,0.0,-3.3393,-3.3393,-3.3393,-3.3502,-3.4298,-3.4896,-3.5385,-3.6182,-3.6979,-3.7649,-3.7649,-3.7902,-3.8192,-3.8192,0.0,0.0,0.0,-3.8192,0.0,0.0,0.0,0.0,0.0,0.0,0.0,0.0,0.0,0.0,0.0,0.0,0.0,0.0,0.0,0.0,0.0,0.0,0.0,0.0,0.0,0.0,0.0,0.0,0.0,0.0,0.0,0.0,0.0,-4.2765,-4.2667,-4.2566,-4.2503,-4.2445,-4.2287,-4.2287,-4.2145,-4.1856,-4.1856,-4.1856,-4.1856,-4.1856,-4.1709,-4.1472,-4.1019,-4.0659,-4.0302,-3.9609,-3.9272,-3.9272,-3.9272,-3.9272,-3.9325,-3.9504,-3.9451,-3.9325,-3.9556,-3.9468,-3.9272,0.0,0.0,0.0,0.0,0.0,0.0,0.0,0.0,0.0,0.0,0.0,0.0,0.0,0.0,0.0,0.0,-3.0513,-3.1137,-3.2415,-3.2506,-3.2777,-3.3375,-3.3393,-3.3393,-3.3393,-3.3393,0.0,0.0,0.0,0.0,-3.3393,-3.3393,-3.3393,0.0,-3.3393,0.0,0.0,0.0,0.0,0.0,-3.3393,-3.352,-3.3791,-3.4606,-3.5403,-3.6218,-3.7015,-3.7685,-3.8192,-3.8192,-3.8192,-3.8192,-3.8192,-3.8192,0.0,0.0,0.0,0.0,0.0,0.0,0.0,0.0,0.0,0.0,0.0,0.0,0.0,0.0,0.0,0.0,0.0,0.0,0.0,0.0,0.0,0.0,0.0,0.0,0.0,0.0,0.0,0.0,0.0,0.0,0.0,0.0,-4.2783,-4.2627,-4.2346,-4.2405,-4.2346,-4.2086,-4.2103,-4.1899,-4.1516,-4.1472,-4.1428,-4.1356,-4.1578,-4.1578,-4.1293,-4.0943,-4.0497,-3.9952,-3.9504,-3.9272,-3.9272,-3.9272,-3.9362,-3.9504,-3.9609,-3.9609,-3.9504,-3.9609,-3.952,-3.9272,0.0,0.0,0.0,0.0,0.0,0.0,0.0,0.0,0.0,0.0,0.0,0.0,-2.8753,-2.9521,-3.0307,-3.1071,-3.1774,-3.2508,-3.3284,-3.3339,-3.3357,-3.3393,-3.3393,0.0,-3.3393,-3.3393,0.0,0.0,0.0,0.0,-3.3393,-3.3393,-3.3393,-3.3393,-3.3393,-3.3393,-3.3393,0.0,0.0,0.0,0.0,0.0,0.0,0.0,0.0,0.0,0.0,0.0,-3.8192,-3.8192,-3.8192,-3.8192,-3.8192,-3.8192,-3.8192,0.0,0.0,0.0,0.0,0.0,0.0,0.0,0.0,0.0,0.0,0.0,0.0,0.0,0.0,0.0,0.0,0.0,0.0,0.0,0.0,0.0,0.0,0.0,0.0,0.0,0.0,0.0,0.0,0.0,0.0,0.0,-4.2709,-4.2432,-4.1941,-4.2187,-4.2044,-4.1578,-4.1516,-4.1534,-4.1472,-4.1472,-4.1311,-4.0849,-4.1813,-4.177,-4.0849,-4.0802,-4.0497,-3.9952,-3.9504,-3.9272,-3.9272,-3.9272,-3.9556,-4.0003,-4.0497,-4.04,-4.002,-4.0546,-4.0137,-3.9272,0.0,0.0,0.0,0.0,0.0,0.0,0.0,0.0,0.0,0.0,0.0,0.0,0.0,-3.0691,-3.1185,-3.1928,-3.2647,-3.3172,-3.3393,-3.3393,-3.3393,-3.3393,-3.3393,-3.3393,-3.3393,-3.3393,0.0,0.0,0.0,-3.3393,-3.3393,-3.3393,-3.3393,-3.3393,-3.3393,-3.3393,-3.3393,-3.3393,0.0,0.0,0.0,0.0,0.0,0.0,0.0,0.0,0.0,0.0,0.0,-3.8192,-3.8192,-3.8192,-3.8192,-3.8002,-3.7721,-3.745,-3.7264,0.0,0.0,0.0,0.0,0.0,0.0,0.0,0.0,0.0,0.0,0.0,0.0,0.0,0.0,0.0,0.0,0.0,0.0,0.0,0.0,0.0,0.0,0.0,0.0,0.0,0.0,0.0,0.0,0.0,0.0,-4.1163,-4.163,-4.1445,-4.1265,-4.1082,-4.1019,-4.0879,-4.0528,-4.0252,-4.0319,-4.0802,-4.1174,-4.1128,-4.0802,-4.0802,-4.0319,-3.9556,-3.9362,-3.9272,-3.9272,-3.9272,-3.9609,-4.0003,-3.9885,-3.9868,-4.0003,-3.9885,-3.9609,-3.9272,0.0,0.0,0.0,0.0,0.0,0.0,0.0,0.0,0.0,0.0,0.0,0.0,0.0,0.0,-3.1946,-3.2665,-3.3172,-3.3452,-3.3393,-3.3393,-3.3393,-3.3393,-3.3393,-3.3393,-3.3393,-3.3393,0.0,0.0,0.0,0.0,0.0,-3.3393,-3.3393,-3.3393,-3.3393,-3.3393,0.0,0.0,0.0,-3.4624,0.0,0.0,-3.6254,0.0,0.0,0.0,0.0,0.0,0.0,0.0,0.0,0.0,-3.8002,-3.765,-3.7246,-3.6978,-3.6781,0.0,0.0,0.0,0.0,0.0,0.0,0.0,0.0,0.0,0.0,0.0,0.0,0.0,0.0,0.0,0.0,0.0,0.0,0.0,0.0,0.0,0.0,0.0,0.0,0.0,0.0,0.0,0.0,0.0,0.0,0.0,-4.0294,-4.0164,-4.01,-4.0168,-4.0408,-4.0252,-3.9782,-3.9592,-3.9799,-4.0269,-4.0659,-4.0611,-4.0269,-4.0466,-4.007,-3.9272,-3.9272,-3.9272,-3.9272,-3.9272,-3.9609,-3.9952,-3.9644,-3.9731,-3.9952,-3.9644,-3.9415,-3.9272,0.0,0.0,0.0,0.0,0.0,0.0,0.0,0.0,0.0,0.0,0.0,0.0,0.0,0.0,0.0,-3.3339,-3.3393,-3.3393,-3.3393,-3.3393,-3.3393,-3.3393,-3.3393,-3.3393,-3.3393,-3.3393,0.0,0.0,0.0,0.0,0.0,0.0,-3.3393,-3.3393,-3.3429,-3.3447,-3.3502,0.0,-3.4643,-3.4751,0.0,-3.6327,-3.7047,0.0,0.0,0.0,-3.8192,-3.8192,0.0,0.0,0.0,0.0,0.0,0.0,-3.686,-3.686,0.0,0.0,0.0,0.0,0.0,0.0,0.0,0.0,0.0,0.0,0.0,0.0,0.0,0.0,0.0,0.0,0.0,0.0,0.0,0.0,0.0,0.0,0.0,0.0,0.0,0.0,0.0,0.0,0.0,0.0,-3.885,-3.8518,-3.8006,-3.8373,-3.8654,-3.8819,-3.9563,-3.9715,-3.9259,-3.968,-3.9749,-3.9292,-4.0319,-4.0286,-3.9325,-3.9782,-3.9731,-3.9272,-3.9272,-3.9325,-3.9325,-3.9325,-3.9592,-4.0003,-4.0003,-4.0003,-4.0003,-4.0003,-3.9679,-3.9272,0.0,0.0,0.0,0.0,0.0,0.0,0.0,0.0,0.0,0.0,0.0,0.0,-3.3006,-3.3114,-3.3187,-3.3462,-3.3422,-3.3393,-3.3393,-3.3393,-3.3393,-3.3393,-3.3393,-3.3393,-3.3393,-3.3393,0.0,0.0,0.0,0.0,0.0,0.0,0.0,0.0,-3.4009,-3.428,-3.428,-3.4516,0.0,0.0,-3.6562,-3.7142,0.0,0.0,0.0,0.0,0.0,-3.8192,-3.8192,0.0,-3.8192,-3.8072,0.0,0.0,0.0,0.0,0.0,0.0,-3.5783,0.0,0.0,0.0,0.0,0.0,0.0,0.0,0.0,0.0,0.0,0.0,0.0,0.0,0.0,0.0,0.0,0.0,0.0,0.0,0.0,0.0,0.0,0.0,0.0,0.0,0.0,0.0,-3.7449,-3.731,-3.7831,-3.766,-3.7551,-3.762,-3.782,-3.7835,-3.7715,-3.8367,-3.8806,-3.9026,-3.9849,-4.0053,-3.9817,-3.9952,-3.9731,-3.9272,-3.9272,-3.9504,-3.9833,-3.9833,-3.9868,-4.0003,-4.0003,-4.0003,-3.9952,-3.9644,-3.9415,-3.9272,0.0,0.0,0.0,0.0,0.0,0.0,0.0,0.0,0.0,0.0,0.0,0.0,-3.3357,-3.3393,-3.3422,-3.3452,-3.3422,-3.3393,-3.3393,-3.3393,-3.3393,-3.3393,-3.3393,-3.3393,-3.3393,-3.3393,0.0,0.0,0.0,0.0,0.0,0.0,0.0,0.0,0.0,0.0,0.0,0.0,0.0,0.0,-3.7392,0.0,0.0,-3.8192,-3.8192,0.0,0.0,0.0,-3.8192,-3.8192,-3.8054,0.0,0.0,0.0,0.0,0.0,0.0,0.0,0.0,0.0,0.0,0.0,0.0,0.0,-3.6492,-3.69,0.0,0.0,0.0,0.0,0.0,0.0,0.0,0.0,0.0,0.0,0.0,0.0,0.0,0.0,0.0,0.0,0.0,-3.6131,-3.619,-3.6671,-3.6173,-3.6047,-3.6558,-3.6354,-3.6191,-3.6191,-3.6191,-3.6191,-3.6191,-3.6622,-3.6954,-3.7246,-3.8002,-3.8354,-3.8354,-3.8673,-3.8638,-3.8377,-3.8377,-3.8552,-3.8824,-3.8974,-3.9428,-4.0003,-4.0003,-3.9868,-3.9679,-3.9415,-3.9272,-3.9272,0.0,0.0,0.0,0.0,0.0,0.0,0.0,0.0,0.0,0.0,-3.3393,-3.3393,-3.3393,-3.3393,-3.3393,-3.3393,-3.3393,-3.3393,-3.3393,-3.3393,-3.3393,-3.3393,-3.3393,-3.3393,-3.3393,-3.3393,0.0,0.0,0.0,0.0,0.0,0.0,0.0,0.0,0.0,0.0,0.0,0.0,0.0,-3.721,-3.7902,-3.8192,0.0,0.0,-3.8192,0.0,-3.8192,-3.8192,-3.8192,-3.8192,-3.788,0.0,0.0,0.0,0.0,0.0,-3.5667,0.0,0.0,0.0,0.0,0.0,0.0,0.0,-3.658,-3.6781,-3.6939,0.0,0.0,0.0,0.0,0.0,0.0,0.0,0.0,0.0,0.0,0.0,0.0,0.0,0.0,0.0,-3.5577,-3.552,-3.5412,-3.5174,-3.4951,-3.4792,-3.4651,-3.4651,-3.4651,-3.4651,-3.4651,-3.4651,-3.4651,-3.4733,-3.4767,-3.4783,-3.5528,-3.5876,-3.5909,-3.6555,-3.6953,-3.707,-3.6986,-3.707,-3.727,-3.7627,-3.8548,-3.9665,-3.9766,-3.9479,-3.904,-3.9123,-3.9156,-3.9172,-2.9904,0.0,0.0,0.0,0.0,0.0,0.0,0.0,0.0,0.0,0.0,-3.3393,-3.3393,-3.3393,-3.3393,-3.3393,-3.3393,-3.3393,-3.3393,-3.3393,-3.3393,-3.3393,-3.3393,-3.3393,-3.3393,-3.3393,-3.3393,0.0,0.0,0.0,0.0,0.0,0.0,0.0,0.0,0.0,0.0,0.0,0.0,-3.7975,-3.8119,0.0,-3.8192,-3.8192,-3.8192,-3.8192,-3.8192,-3.8192,-3.8192,0.0,-3.788,-3.7505,0.0,0.0,0.0,0.0,0.0,0.0,0.0,0.0,0.0,0.0,0.0,0.0,-3.581,-3.6156,-3.6326,0.0,0.0,0.0,0.0,0.0,0.0,0.0,0.0,0.0,0.0,0.0,0.0,0.0,0.0,0.0,-3.552,-3.5492,-3.5148,-3.4301,-3.3594,-3.3172,-3.311,-3.311,-3.311,-3.311,-3.311,-3.311,-3.311,-3.3707,-3.4005,-3.4005,-3.475,-3.5114,-3.5114,-3.5263,-3.5869,-3.6754,-3.6404,-3.6995,-3.8191,-3.7895,-3.7764,-3.7703,-3.8065,-3.7951,-3.7599,-3.8212,-3.8411,-3.8493,-3.0906,0.0,0.0,0.0,0.0,0.0,0.0,0.0,0.0,0.0,0.0,0.0,0.0,0.0,0.0,-3.3393,-3.3393,-3.3393,-3.3393,-3.3393,-3.3393,-3.3393,-3.3393,-3.3393,-3.3393,-3.3791,-3.4009,0.0,0.0,0.0,0.0,0.0,0.0,0.0,0.0,0.0,0.0,0.0,-3.745,-3.7845,-3.7845,0.0,-3.8192,-3.8192,-3.8192,-3.8192,-3.8192,-3.8192,-3.8192,-3.8192,-3.8054,0.0,0.0,-3.7228,-3.6821,0.0,-3.6131,-3.5915,0.0,0.0,0.0,-3.5622,0.0,0.0,0.0,-3.6131,-3.6216,0.0,0.0,0.0,0.0,0.0,0.0,0.0,0.0,0.0,0.0,0.0,0.0,0.0,0.0,0.0,-3.5492,-3.5446,-3.5036,-3.4084,-3.3532,-3.3077,-3.2696,-3.2348,-3.215,-3.215,-3.1785,-3.1603,-3.1603,-3.1967,-3.215,-3.2166,-3.2911,-3.3259,-3.3276,-3.3834,-3.432,-3.4672,-3.4688,-3.5227,-3.6129,-3.5883,-3.5869,-3.6108,-3.734,-3.7515,-3.7152,-3.7533,-3.7665,-3.7765,-3.2039,0.0,0.0,0.0,0.0,0.0,0.0,0.0,0.0,0.0,0.0,0.0,0.0,0.0,0.0,0.0,0.0,-3.3465,0.0,0.0,-3.3701,-3.3864,-3.3786,-3.3786,-3.3864,-3.4418,-3.4762,-3.4842,0.0,0.0,0.0,0.0,0.0,0.0,0.0,0.0,0.0,0.0,0.0,-3.7395,0.0,-3.765,-3.8192,-3.8106,-3.8054,-3.8054,-3.7985,-3.7951,-3.7951,-3.802,0.0,-3.7898,-3.7721,-3.7469,0.0,0.0,0.0,0.0,0.0,0.0,0.0,0.0,0.0,-3.5711,0.0,0.0,0.0,0.0,0.0,0.0,0.0,0.0,0.0,0.0,0.0,0.0,0.0,0.0,0.0,0.0,0.0,0.0,0.0,-3.522,-3.4731,-3.4022,-3.3748,-3.3259,-3.2531,-3.1934,-3.151,-3.1378,-3.0782,-3.0526,-3.0526,-3.0526,-3.0526,-3.0526,-3.1123,-3.1378,-3.1437,-3.2353,-3.2705,-3.264,-3.2882,-3.3275,-3.3727,-3.3786,-3.4137,-3.4864,-3.6541,-3.6999,-3.6688,-3.6837,-3.6903,-3.7003,-3.1329,-3.1368,0.0,0.0,0.0,0.0,0.0,0.0,0.0,0.0,0.0,0.0,0.0,0.0,0.0,0.0,0.0,0.0,-3.4425,0.0,0.0,-3.5512,-3.5119,-3.5119,-3.5498,-3.5208,-3.5262,-3.5675,0.0,0.0,0.0,0.0,0.0,0.0,-3.6538,0.0,0.0,0.0,-3.6597,0.0,-3.6557,-3.715,0.0,-3.7756,-3.7578,-3.7542,-3.717,-3.7055,-3.7094,0.0,-3.7321,-3.717,0.0,-3.7356,-3.6492,0.0,0.0,0.0,0.0,0.0,0.0,0.0,-3.5622,0.0,0.0,0.0,0.0,-3.5667,0.0,0.0,0.0,0.0,0.0,0.0,0.0,0.0,0.0,0.0,0.0,0.0,0.0,0.0,0.0,-3.4489,-3.3935,-3.3852,-3.3176,-3.2497,-3.1785,-3.1669,-3.1279,-3.0659,-3.0518,-3.0526,-3.0526,-3.0526,-3.0526,-3.0526,-3.0593,-3.06,-3.0642,-3.0767,-3.1383,-3.2317,-3.1933,-3.2436,-3.3457,-3.3689,-3.3839,-3.3988,-3.4911,-3.5179,-3.523,-3.5876,-3.6125,-3.6241,-3.119,-3.1368,0.0,0.0,0.0,0.0,0.0,0.0,0.0,0.0,0.0,0.0,0.0,0.0,0.0,0.0,0.0,-3.495,0.0,0.0,0.0,0.0,0.0,0.0,-3.5788,-3.5803,-3.5897,-3.6088,-3.6114,0.0,0.0,0.0,0.0,0.0,-3.6499,0.0,-3.6516,0.0,0.0,0.0,0.0,0.0,0.0,-3.7321,-3.7152,-3.7132,-3.6978,-3.69,-3.6939,0.0,-3.719,0.0,0.0,0.0,0.0,0.0,0.0,0.0,0.0,0.0,0.0,0.0,0.0,0.0,-3.5622,0.0,-3.5622,0.0,0.0,0.0,0.0,0.0,0.0,0.0,-3.5622,0.0,0.0,0.0,0.0,0.0,0.0,0.0,0.0,0.0,0.0,0.0,-3.3599,-3.3101,-3.2282,-3.2249,-3.1901,-3.1146,-3.1113,-3.0915,-3.0526,-3.0526,-3.0526,-3.0526,-3.0526,-3.0526,-3.0526,-3.074,-3.0989,-3.1249,-3.1273,-3.1708,-3.2419,-3.2934,-3.3392,-3.3856,-3.4601,-3.4899,-3.4932,-3.5247,-3.5363,-3.5462,-3.1112,0.0,0.0,0.0,0.0,0.0,0.0,0.0,0.0,0.0,0.0,0.0,-3.4327,-3.508,0.0,0.0,-3.5738,-3.5796,0.0,0.0,-3.6121,0.0,0.0,0.0,0.0,0.0,-3.6451,-3.6451,0.0,0.0,0.0,0.0,0.0,0.0,0.0,-3.6088,-3.6088,0.0,0.0,-3.6498,-3.6241,-3.6474,-3.696,-3.6781,-3.662,-3.6516,-3.6516,-3.6498,-3.6457,-3.658,-3.6764,0.0,-3.6843,0.0,0.0,0.0,0.0,0.0,-3.5711,0.0,0.0,0.0,0.0,0.0,0.0,0.0,0.0,0.0,0.0,0.0,0.0,0.0,0.0,0.0,0.0,-3.5622,0.0,0.0,0.0,0.0,0.0,0.0,0.0,0.0,0.0,-3.423,-3.4243,-3.391,-3.3027,-3.2994,-3.2663,-3.1934,-3.1735,-3.1328,-3.0782,-3.0626,-3.0526,-3.0526,-3.0526,-3.0526,-3.051,-3.0821,-3.0781,-3.0526,-3.0821,-3.1082,-3.1345,-3.2299,-3.3011,-3.3574,-3.4535,-3.4899,-3.4899,-3.4899,-3.4899,-3.4982,-3.0975,-3.1112,0.0,0.0,0.0,0.0,0.0,0.0,0.0,0.0,0.0,0.0,0.0,0.0,0.0,0.0,0.0,-3.5765,-3.5691,0.0,-3.693,0.0,0.0,-3.7269,0.0,0.0,0.0,-3.6865,0.0,0.0,0.0,0.0,0.0,0.0,0.0,-3.5622,-3.5622,-3.5622,-3.5622,-3.5667,-3.5622,-3.5667,-3.5694,0.0,-3.6019,-3.5537,-3.5537,0.0,0.0,-3.5793,-3.5783,0.0,0.0,0.0,0.0,0.0,0.0,0.0,0.0,0.0,0.0,-3.5622,0.0,0.0,0.0,0.0,-3.5622,0.0,0.0,0.0,0.0,0.0,0.0,-3.5622,0.0,0.0,0.0,0.0,0.0,0.0,0.0,0.0,0.0,0.0,0.0,-3.5055,-3.5055,-3.4675,-3.3789,-3.3756,-3.3425,-3.268,-3.1984,-3.1576,-3.1543,-3.0874,-3.0526,-3.0526,-3.0526,-3.0526,-3.0526,-3.051,-3.051,-3.0526,-3.051,-3.0543,-3.0659,-3.21,-3.2696,-3.2862,-3.4319,-3.4899,-3.4899,-3.4899,-3.4899,-3.4899,0.0,0.0,0.0,0.0,0.0,0.0,0.0,-3.4287,0.0,0.0,0.0,0.0,0.0,-3.6093,-3.6595,0.0,0.0,-3.6809,-3.6535,-3.6781,0.0,0.0,0.0,-3.7055,0.0,0.0,0.0,0.0,0.0,0.0,0.0,0.0,0.0,0.0,0.0,-3.5622,0.0,0.0,0.0,0.0,0.0,-3.5783,-3.5566,0.0,0.0,-3.5492,-3.54,-3.5337,0.0,-3.5441,-3.5605,-3.5766,-3.5722,-3.5722,-3.5722,-3.5622,-3.5458,0.0,0.0,0.0,-3.5412,-3.552,0.0,0.0,0.0,0.0,0.0,0.0,0.0,0.0,0.0,0.0,-3.5622,-3.5622,-3.5622,0.0,0.0,0.0,-3.5622,0.0,0.0,0.0,0.0,0.0,0.0,-3.5088,-3.5088,-3.4941,-3.4535,-3.4518,-3.4187,-3.3442,-3.3193,-3.2597,-3.1593,-3.1328,-3.0964,-3.0526,-3.0526,-3.0526,-3.0526,-3.0526,-3.0526,-3.0526,-3.0526,-3.0526,-3.0626,-3.2083,-3.268,-3.2829,-3.4319,-3.4899,-3.4899,-3.4899,-3.4899,-3.4899,-3.2862,0.0,0.0,0.0,0.0,0.0,0.0,0.0,0.0,0.0,-3.5418,0.0,-3.5641,0.0,-3.6978,0.0,-3.7208,-3.719,-3.6498,-3.6803,0.0,-3.6433,-3.6643,0.0,0.0,0.0,0.0,0.0,0.0,-3.5622,0.0,0.0,0.0,0.0,0.0,0.0,0.0,0.0,-3.5711,0.0,0.0,-3.5667,0.0,0.0,-3.54,-3.54,0.0,-3.5198,-3.5152,-3.5152,-3.5333,-3.5588,-3.5258,-3.5396,-3.5588,-3.5321,-3.5245,-3.5245,-3.5291,-3.5291,0.0,-3.54,-3.5446,0.0,-3.5549,0.0,0.0,0.0,0.0,0.0,0.0,0.0,0.0,-3.5549,-3.5577,-3.5622,0.0,-3.5622,-3.5622,0.0,0.0,0.0,0.0,0.0,-3.5308,-3.5088,-3.5088,-3.5041,0.0,0.0,-3.4667,-3.4203,-3.3938,-3.3342,-3.2398,-3.1885,-3.1345,-3.0865,-3.0642,-3.0526,-3.0526,-3.0526,-3.0526,-3.0526,-3.0526,-3.0526,-3.0626,-3.2083,-3.268,-3.2829,-3.4319,-3.4899,-3.4899,-3.4899,-3.4899,-3.4947,0.0,0.0,0.0,0.0,-3.3347,0.0,0.0,0.0,-3.5074,0.0,-3.5557,-3.6259,-3.6259,-3.6259,-3.6259,-3.6259,-3.6978,0.0,-3.565,-3.6609,0.0,0.0,-3.6105,-3.6088,-3.5337,0.0,0.0,0.0,0.0,0.0,0.0,0.0,0.0,0.0,-3.5577,0.0,-3.5492,-3.5492,-3.54,-3.5291,-3.5291,-3.5291,-3.5291,-3.5152,-3.5198,-3.5291,-3.5152,-3.4994,-3.4899,-3.4899,-3.4994,-3.5041,-3.4947,-3.4994,-3.5088,-3.5088,-3.5088,-3.5105,-3.5245,-3.5291,-3.5291,-3.5291,-3.5291,0.0,0.0,0.0,-3.5492,0.0,0.0,0.0,0.0,0.0,0.0,-3.5537,-3.5549,-3.5622,-3.5622,0.0,-3.5622,-3.5622,0.0,0.0,0.0,-3.5492,-3.5383,-3.5152,-3.5088,0.0,0.0,0.0,-3.4899,-3.4899,-3.422,-3.3822,-3.3789,-3.2415,-3.1643,-3.1576,-3.0865,-3.0559,-3.0526,-3.0526,-3.0526,-3.0526,-3.0526,-3.0526,-3.0626,-3.2083,-3.268,-3.2829,-3.4319,-3.4899,-3.4899,-3.4899,-3.4899,-3.4947,-3.4383,-3.4492,-3.4539,0.0,-3.427,-3.4192,0.0,0.0,0.0,0.0,-3.5708,-3.5881,-3.5577,-3.581,-3.5881,-3.5594,-3.6037,0.0,0.0,0.0,0.0,-3.5337,-3.5532,-3.5532,-3.5291,-3.5503,0.0,-3.5492,0.0,0.0,-3.5622,0.0,0.0,0.0,0.0,0.0,-3.5492,-3.54,-3.5291,-3.5152,-3.5152,-3.5152,0.0,0.0,-3.5041,-3.5135,-3.4994,-3.4947,-3.4899,-3.4899,-3.4899,-3.4947,-3.4899,-3.4947,-3.4947,-3.4947,-3.4947,-3.4947,-3.4994,-3.4994,-3.5041,-3.5152,-3.5152,-3.5198,0.0,0.0,0.0,0.0,0.0,0.0,0.0,0.0,0.0,0.0,0.0,0.0,0.0,0.0,0.0,-3.5622,0.0,0.0,0.0,-3.5429,-3.5291,-3.5245,-3.5041,0.0,0.0,0.0,0.0,-3.4899,-3.4717,-3.4336,-3.3806,-3.3425,-3.2696,-3.1576,-3.1394,-3.1014,-3.0526,-3.0526,-3.0526,-3.0526,-3.0526,-3.0526,-3.0626,-3.2083,-3.268,-3.2829,-3.4319,-3.4899,-3.4899,-3.4899,-3.4947,-3.5135,-3.4899,0.0,0.0,-3.4994,0.0,0.0,-3.5333,0.0,0.0,-3.5429,-3.5532,0.0,-3.5337,-3.5487,-3.556,-3.5337,-3.5677,0.0,-3.5337,0.0,0.0,-3.5245,-3.5152,-3.5152,-3.5152,-3.5245,0.0,-3.5354,0.0,0.0,-3.5458,0.0,0.0,0.0,0.0,-3.54,0.0,-3.5198,-3.5088,-3.4994,-3.4994,0.0,0.0,-3.4947,-3.4947,-3.4994,-3.4947,-3.4899,-3.4899,-3.4899,-3.4899,-3.4899,-3.4899,-3.4899,-3.4899,-3.4899,-3.4899,-3.4899,-3.4899,-3.4899,-3.4899,-3.4994,-3.4994,-3.5041,-3.5198,-3.5198,-3.5198,0.0,-3.5245,-3.5291,0.0,0.0,0.0,0.0,0.0,0.0,0.0,0.0,0.0,0.0,-3.5549,0.0,0.0,-3.5367,-3.5245,-3.5308,0.0,0.0,0.0,0.0,0.0,-3.4899,-3.4899,-3.47,-3.427,-3.3955,-3.3375,-3.2564,-3.1934,-3.1361,-3.0948,-3.0659,-3.0526,-3.0526,-3.0526,-3.0526,-3.0626,-3.2083,-3.268,-3.2829,-3.4319,-3.4947,-3.4994,-3.4994,-3.5058,-3.5182,0.0,0.0,0.0,0.0,0.0,0.0,0.0,-3.5245,0.0,-3.5291,0.0,-3.5245,-3.5245,-3.5245,-3.5245,-3.5245,0.0,-3.5616,-3.5291,-3.5481,-3.5436,-3.5088,-3.4947,-3.4899,-3.4899,-3.5041,0.0,0.0,0.0,0.0,0.0,0.0,0.0,0.0,0.0,0.0,0.0,-3.4947,-3.4899,0.0,-3.4899,-3.4899,-3.4899,-3.4899,-3.4899,-3.4899,-3.4899,-3.4899,-3.4899,-3.4899,-3.4899,-3.4899,-3.4899,-3.4899,-3.4899,-3.4899,-3.4899,-3.4899,-3.4899,-3.4899,-3.4899,-3.4899,-3.4899,-3.4947,-3.5041,-3.5088,-3.5088,-3.5088,-3.5152,-3.5198,0.0,0.0,0.0,0.0,0.0,0.0,0.0,0.0,0.0,0.0,0.0,0.0,0.0,0.0,0.0,0.0,0.0,0.0,0.0,0.0,0.0,-3.4899,-3.4899,-3.4899,-3.4899,0.0,-3.3889,-3.3773,-3.2514,-3.1818,-3.156,-3.0957,-3.0609,-3.0526,-3.0526,-3.0526,-3.0626,-3.2083,-3.2796,-3.311,-3.4386,-3.4994,-3.5105,-3.5088,-3.5088,-3.5182,0.0,0.0,0.0,0.0,0.0,-3.4899,-3.4947,-3.4994,-3.4994,-3.5105,-3.5041,-3.4994,-3.4994,-3.4994,-3.4994,-3.4994,-3.5024,0.0,0.0,0.0,0.0,-3.4947,-3.4899,-3.4899,-3.4899,-3.5041,-3.5088,0.0,0.0,0.0,0.0,0.0,0.0,0.0,0.0,0.0,-3.4947,-3.4899,0.0,-3.4899,-3.4899,-3.4899,-3.4899,-3.4899,-3.4899,-3.4899,-3.4899,-3.4899,-3.4899,-3.4899,-3.4899,-3.4899,-3.4899,-3.4899,-3.4899,-3.4899,-3.4899,-3.4899,-3.4899,-3.4899,-3.4899,-3.4899,-3.4899,-3.4899,-3.4947,-3.4947,-3.4947,-3.4947,-3.4947,-3.4994,-3.5041,0.0,0.0,0.0,0.0,0.0,0.0,0.0,0.0,0.0,0.0,-3.5412,0.0,0.0,0.0,0.0,0.0,0.0,0.0,0.0,0.0,0.0,-3.4899,0.0,0.0,0.0,-3.4386,-3.3789,-3.3541,-3.2796,-3.1576,-3.1487,-3.1064,-3.0526,-3.0526,-3.0526,-3.0626,-3.2083,-3.3408,-3.4535,-3.48,-3.4899,-3.4947,-3.5041,-3.5198,-3.5321,0.0,0.0,0.0,0.0,0.0,0.0,0.0,-3.5214,0.0,-3.5044,-3.5278,-3.5462,-3.5462,-3.581,-3.6042,-3.6042,-3.6042,-3.6042,-3.6042,-3.5678,-3.5462,-3.5462,-3.5098,0.0,-3.4899,-3.4947,-3.4994,-3.4994,0.0,0.0,0.0,0.0,0.0,0.0,0.0,-3.4947,0.0,0.0,0.0,-3.4899,-3.4899,-3.4899,-3.4899,-3.4899,-3.4899,-3.4899,-3.4899,-3.4899,-3.4899,-3.4899,-3.4899,-3.4899,-3.4899,-3.4899,-3.4899,-3.4899,-3.4899,-3.4899,-3.4899,-3.4899,-3.4899,-3.4899,-3.4899,-3.4899,-3.4899,-3.4899,-3.4899,-3.4899,-3.4899,-3.4947,-3.5105,-3.5152,0.0,0.0,0.0,0.0,0.0,0.0,0.0,0.0,0.0,0.0,0.0,0.0,0.0,0.0,0.0,0.0,0.0,0.0,0.0,0.0,0.0,0.0,0.0,0.0,0.0,-3.4369,-3.3972,-3.3425,-3.2729,-3.1967,-3.1394,-3.1031,-3.0692,-3.0526,-3.0626,-3.2083,-3.3557,-3.4899,-3.4899,-3.4994,-3.5105,-3.5198,-3.5321,-3.5503,0.0,-3.5032,0.0,0.0,-3.5032,0.0,-3.5131,-3.576,-3.5976,-3.523,-3.5777,-3.6241,-3.6241,-3.6754,-3.7102,-3.7102,-3.7102,-3.7102,-3.7102,-3.6555,-3.6241,-3.6241,-3.5528,-3.5131,-3.5131,-3.4982,-3.4899,0.0,0.0,0.0,0.0,0.0,0.0,0.0,0.0,0.0,0.0,0.0,-3.4899,-3.4899,-3.4899,-3.4899,-3.4899,-3.4899,-3.4899,-3.4899,-3.4899,-3.4899,-3.4899,-3.4899,-3.4899,-3.4899,-3.4899,-3.4899,-3.4899,-3.4899,-3.4899,-3.4899,-3.4899,-3.4899,-3.4899,-3.4899,-3.4899,-3.4899,-3.4899,-3.4899,-3.4899,-3.4899,-3.4899,-3.4947,-3.5041,-3.5041,0.0,0.0,0.0,0.0,0.0,0.0,0.0,0.0,0.0,0.0,-3.5446,0.0,0.0,0.0,0.0,0.0,0.0,0.0,0.0,0.0,0.0,-3.4899,-3.4947,0.0,-3.4899,-3.4883,-3.4303,-3.3938,-3.3756,-3.2613,-3.1918,-3.1543,-3.1007,-3.0841,-3.1073,-3.2426,-3.3752,-3.4947,-3.4994,-3.5088,-3.5291,-3.5337,-3.5429,-3.5622,0.0,0.0,0.0,0.0,0.0,0.0,-3.5893,-3.6522,-3.6738,-3.5992,-3.6539,-3.7003,-3.7003,-3.7069,-3.7102,-3.7102,-3.7102,-3.7102,-3.7102,-3.7052,-3.7003,-3.7003,-3.629,-3.5893,-3.5893,-3.5247,-3.4899,0.0,0.0,-3.4899,0.0,0.0,0.0,0.0,0.0,0.0,0.0,-3.4899,-3.4899,-3.4899,-3.4899,-3.4899,-3.4899,-3.4899,-3.4899,-3.4899,-3.4899,-3.4899,-3.4899,-3.4899,-3.4899,-3.4899,-3.4899,-3.4899,-3.4899,-3.4899,-3.4899,-3.4899,-3.4899,-3.4899,-3.4899,-3.4899,-3.4899,-3.4899,-3.4899,-3.4899,-3.4899,-3.4899,-3.4899,-3.4899,-3.4899,-3.4899,-3.4899,0.0,0.0,0.0,0.0,0.0,0.0,0.0,0.0,0.0,0.0,-3.5446,0.0,0.0,0.0,0.0,0.0,0.0,0.0,-3.5088,0.0,-3.4947,-3.5088,-3.4947,-3.4899,-3.4899,-3.4833,-3.4435,-3.3789,-3.3657,-3.2862,-3.1576,-3.151,-3.1885,-3.2591,-3.3494,-3.4355,-3.5088,-3.5198,-3.5291,-3.5291,-3.5446,-3.5492,-3.5566,0.0,0.0,0.0,0.0,0.0,0.0,0.0,-3.7301,-3.7665,-3.7367,-3.7582,-3.7765,-3.7765,-3.8162,-3.8411,-3.8411,-3.8411,-3.8411,-3.8411,-3.8013,-3.7765,-3.7765,-3.7052,-3.6456,-3.6009,-3.5711,-3.5346,0.0,0.0,0.0,0.0,0.0,0.0,0.0,0.0,-3.4899,-3.4899,-3.4899,-3.4899,-3.4899,-3.4899,-3.4899,-3.4899,-3.4899,-3.4899,-3.4899,-3.4899,-3.4899,-3.4899,-3.4899,-3.4899,-3.4899,-3.4899,-3.4899,-3.4899,-3.4899,-3.4899,-3.4899,-3.4899,-3.4899,-3.4899,-3.4899,-3.4899,-3.4899,-3.4899,-3.4899,-3.4899,-3.4899,-3.4899,-3.4899,-3.4899,-3.4899,-3.4899,-3.4899,0.0,0.0,0.0,0.0,0.0,0.0,0.0,0.0,0.0,0.0,0.0,0.0,0.0,0.0,0.0,0.0,0.0,-3.5088,0.0,-3.4947,-3.5088,-3.4947,-3.4899,-3.4899,-3.4899,-3.475,-3.4435,-3.3988,-3.2994,-3.1653,-3.217,-3.2519,-3.279,-3.3734,-3.453,-3.5088,-3.5245,-3.5354,-3.5446,-3.5492,-3.552,-3.5684,-3.6108,0.0,-3.6621,0.0,-3.7233,-3.7382,-3.7433,-3.8063,-3.8526,-3.8526,-3.8526,-3.8526,-3.8526,-3.8974,-3.9272,-3.9272,-3.9272,-3.9272,-3.9272,-3.8808,-3.8526,-3.8526,-3.7831,0.0,-3.6671,-3.6439,-3.5959,-3.5214,-3.5214,0.0,0.0,0.0,0.0,0.0,-3.4899,-3.4899,-3.4899,-3.4899,-3.4899,-3.4899,-3.4899,-3.4899,-3.4899,-3.4899,-3.4899,-3.4899,-3.4899,-3.4899,-3.4899,-3.4899,-3.4899,-3.4899,-3.4899,-3.4899,-3.4899,-3.4899,-3.4899,-3.4899,-3.4899,-3.4899,-3.4899,-3.4899,-3.4899,-3.4899,-3.4899,-3.4899,-3.4899,-3.4899,-3.4899,-3.4899,-3.4899,-3.4899,-3.4899,-3.4899,0.0,0.0,0.0,0.0,0.0,0.0,-3.4899,-3.4947,-3.5041,0.0,0.0,0.0,0.0,0.0,0.0,0.0,0.0,0.0,0.0,0.0,-3.5088,-3.4947,-3.4899,-3.4899,-3.4899,-3.4899,-3.4866,-3.4137,-3.3226,-3.2282,-3.2885,-3.3145,-3.3167,-3.4141,-3.4822,-3.5245,-3.5321,-3.5429,-3.552,-3.552,-3.5549,-3.5739,-3.6738,-3.72,-3.7531,-3.7014,-3.7491,-3.8038,-3.8143,-3.8808,-3.9309,-3.9309,-3.9309,-3.9309,-3.9309,-3.9272,-3.9272,-3.9272,-3.9272,-3.9272,-3.9272,-3.9272,-3.9309,0.0,0.0,-3.8195,-3.8179,-3.7466,-3.6738,-3.5992,0.0,0.0,-3.4899,0.0,-3.4899,-3.4899,-3.4899,-3.4899,-3.4899,-3.4899,-3.4899,-3.4899,-3.4899,-3.4899,-3.4899,-3.4899,-3.4899,-3.4899,-3.4899,-3.4899,-3.4899,-3.4899,-3.4899,-3.4899,-3.4899,-3.4899,-3.4899,-3.4899,-3.4899,-3.4899,-3.4899,-3.4899,-3.4899,-3.4899,-3.4899,-3.4899,-3.4899,-3.4899,-3.4899,-3.4899,-3.4899,-3.4899,-3.4899,-3.4899,-3.4899,-3.4899,0.0,0.0,0.0,0.0,0.0,-3.4899,-3.4899,-3.4899,-3.4899,0.0,0.0,0.0,0.0,0.0,0.0,0.0,0.0,-3.5088,-3.4947,0.0,-3.5088,-3.4947,-3.4899,-3.4899,-3.4899,-3.4899,-3.4866,-3.4137,-3.3773,-3.3756,-3.3773,-3.3865,-3.4022,-3.4927,-3.5383,-3.5492,-3.5594,-3.5577,-3.5622,-3.5622,-3.5622,-3.5739,-3.7278,-3.756,-3.7789,-3.8138,-3.8368,-3.8586,-3.8694,-3.8945,-3.9148,-3.9272,-3.9272,-3.9272,-3.9272,-3.9272,-3.9272,0.0,-3.9272,-3.9272,0.0,-3.9272,-3.9272,-3.9272,-3.8933,-3.8586,-3.8228,-3.7876,-3.7329,-3.6603,0.0,0.0,0.0,-3.4691,-3.4707,-3.4739,-3.4739,-3.4691,-3.4643,-3.4804,-3.4851,-3.4787,-3.4851,-3.4899,-3.4899,-3.4899,-3.4899,-3.4899,-3.4899,-3.4899,-3.4899,-3.4899,-3.4899,-3.4899,-3.4899,-3.4899,-3.4899,-3.4899,-3.4899,-3.4899,-3.4899,-3.4899,-3.4899,-3.4899,-3.4899,-3.4899,-3.4899,-3.4899,-3.4899,-3.4899,-3.4899,-3.4899,-3.4899,-3.4899,-3.4899,-3.4899,-3.4899,0.0,-3.4899,0.0,0.0,-3.4899,-3.4899,-3.4899,-3.4899,-3.4947,0.0,0.0,0.0,0.0,0.0,0.0,0.0,0.0,-3.4947,0.0,-3.5088,-3.4947,-3.4899,-3.4899,-3.4899,-3.4947,-3.5041,-3.4792,-3.4409,-3.396,-3.4568,-3.4501,-3.4084,-3.5093,-3.5503,-3.5492,-3.5594,-3.5622,-3.5622,-3.5622,-3.5622,-3.5739,-3.7834,-3.797,-3.8117,-3.8629,-3.8711,-3.875,-3.8914,-3.8914,-3.8969,-3.9094,-3.9094,-3.9094,-3.9094,-3.9164,0.0,-3.9202,-3.9202,-3.9148,-3.9094,-3.9094,-3.9094,-3.9094,-3.8969,-3.8772,-3.8451,-3.8327,0.0,-3.7173,-3.645,-3.5859,-3.5399,-3.5087,-3.4956,-3.5054,-3.4774,-3.4594,-3.4497,-3.4691,-3.4691,-3.4643,-3.4707,-3.4756,-3.4756,-3.4804,-3.4787,-3.4756,-3.4804,-3.4787,-3.4756,-3.4756,-3.4756,-3.4756,-3.4756,-3.4756,-3.4756,-3.4899,-3.4899,-3.4899,-3.4899,-3.4899,-3.4899,-3.4899,-3.4899,-3.4899,-3.4899,-3.4899,-3.4899,-3.4899,-3.4899,-3.4899,-3.4899,-3.4899,-3.4899,-3.4899,-3.4899,-3.4899,-3.4899,0.0,0.0,0.0,0.0,0.0,0.0,-3.4899,-3.4947,0.0,0.0,0.0,0.0,0.0,0.0,-3.5041,-3.4947,-3.4947,-3.5041,-3.4947,-3.4899,-3.4899,-3.4899,-3.4994,-3.5088,-3.5088,-3.4838,-3.4422,-3.4998,-3.4977,-3.4621,-3.5211,-3.5503,-3.5566,-3.5577,-3.5622,-3.5622,-3.5622,-3.5622,-3.579,-3.8391,-3.8391,-3.8448,0.0,-3.8609,0.0,-3.8832,-3.8919,-3.8952,-3.8952,-3.8952,-3.8936,-3.8887,-3.8997,-3.9018,-3.8985,0.0,0.0,0.0,-3.8805,-3.8805,-3.8805,-3.8805,-3.8805,-3.8805,-3.8805,-3.8444,-3.7707,-3.7,-3.664,-3.6558,-3.592,-3.566,-3.5643,-3.4955,-3.4611,-3.4579,-3.4579,-3.4546,-3.4497,-3.4497,-3.4497,-3.4497,-3.4643,-3.4594,-3.4497,-3.4643,-3.4594,-3.4497,-3.4497,-3.4497,-3.4497,-3.4497,-3.4497,-3.4546,-3.4787,-3.4899,-3.4899,-3.4899,-3.4899,-3.4899,-3.4899,-3.4899,-3.4899,-3.4899,-3.4899,-3.4899,-3.4899,-3.4899,-3.4899,-3.4899,-3.4899,-3.4899,-3.4899,-3.4899,-3.4899,-3.4899,-3.4899,0.0,0.0,0.0,0.0,-3.4899,-3.4899,-3.4899,0.0,0.0,0.0,0.0,0.0,-3.5041,-3.4899,-3.4899,-3.4899,-3.4899,-3.4899,-3.4899,-3.4947,-3.4947,-3.4994,-3.5152,-3.5105,-3.5105,-3.5152,-3.5105,-3.5245,-3.5492,-3.5383,-3.5412,-3.5622,-3.5622,-3.5622,-3.5622,-3.5622,-3.5656,-3.5926,0.0,0.0,-3.8391,-3.8448,-3.8918,-3.9332,-3.9447,-3.9944,-4.0286,-4.0451,-4.0508,-4.0279,-3.9706,-3.9696,-3.9427,-3.8776,-3.8876,-3.8914,-3.8805,-3.8805,-3.8805,-3.8805,-3.8711,-3.8711,-3.8805,-3.8711,-3.8297,-3.7546,-3.7292,-3.688,-3.6434,-3.6251,-3.6186,-3.6189,-3.601,-3.5584,-3.5029,-3.5232,-3.4971,-3.4349,-3.4448,-3.4497,-3.4497,-3.4546,-3.4546,-3.4497,-3.4546,-3.4546,-3.4497,-3.4497,-3.4497,-3.4497,-3.4497,-3.4497,-3.4546,-3.4691,-3.4756,-3.4756,-3.4899,-3.4899,-3.4899,-3.4899,-3.4899,-3.4899,-3.4899,-3.4899,-3.4899,-3.4899,-3.4899,-3.4899,-3.4899,-3.4899,-3.4899,-3.4899,-3.4899,-3.4899,-3.4899,-3.4899,-3.4899,0.0,-3.4899,-3.4899,-3.4899,-3.4899,-3.4947,0.0,0.0,0.0,0.0,-3.4994,-3.4947,-3.4899,-3.4899,-3.4899,-3.4899,-3.4994,-3.5088,-3.5198,-3.5291,-3.5383,-3.54,-3.5291,-3.5291,-3.54,-3.5291,-3.5354,-3.5492,-3.5503,-3.5532,-3.5622,-3.5622,-3.5622,-3.5622,-3.5622,-3.5994,-3.661,-3.9363,-3.9363,-3.9363,-3.9363,-3.9687,-4.0005,-4.0047,-4.0372,-4.0615,-4.0766,-4.0766,-4.0603,-4.0196,-3.9928,-3.9585,-3.904,-3.8907,-3.8766,-3.86,-3.86,-3.86,-3.86,-3.856,-3.856,-3.86,-3.856,-3.8309,-3.7903,-3.7864,-3.7614,-3.7335,-3.6918,-3.6756,-3.6778,-3.6507,-3.6113,-3.5687,-3.5844,-3.5633,-3.5175,-3.4935,-3.4839,-3.4806,-3.4513,-3.4349,-3.4349,-3.4399,-3.4349,-3.43,-3.43,-3.43,-3.43,-3.43,-3.43,-3.4349,-3.4497,-3.4546,-3.4643,-3.4691,-3.4739,-3.4804,-3.4899,-3.4899,-3.4899,-3.4899,-3.4851,-3.4851,-3.4899,-3.4851,-3.4851,-3.4899,-3.4899,-3.4899,-3.4899,-3.4899,-3.4899,-3.4899,-3.4899,-3.4899,-3.4899,-3.4899,-3.4899,-3.4899,-3.4899,-3.4947,-3.4994,-3.4947,0.0,-3.4994,-3.4947,-3.4899,-3.4899,-3.4899,-3.4947,-3.4994,-3.5135,-3.5245,-3.5291,-3.5383,-3.54,-3.54,-3.5337,-3.5337,-3.5383,-3.5337,-3.5383,-3.5566,-3.5549,-3.5594,-3.5622,-3.5622,-3.5825,-3.6146,-3.6146,-3.6637,-3.7424,-4.0496,-4.0496,-4.0496,-4.0496,-4.0577,-4.0658,-4.0658,-4.0739,-4.082,-4.082,-4.082,-4.0772,-4.0658,-4.0258,-3.9894,-3.9551,-3.9024,-3.8634,-3.8408,-3.8391,-3.8391,-3.8391,-3.8391,-3.8391,-3.8391,-3.8391,-3.8391,-3.8391,-3.8391,-3.8391,-3.8391,-3.7776,-3.7485,-3.7452,-3.6886,-3.6562,-3.6465,-3.6465,-3.64,-3.6254,-3.5606,-3.5347,-3.5318,-3.4689,-3.4363,-3.4246,-3.4283,-3.4201,-3.4101,-3.4101,-3.4101,-3.4101,-3.4101,-3.4101,-3.4101,-3.425,-3.4349,-3.4448,-3.4497,-3.4594,-3.4739,-3.4851,-3.4899,-3.4899,-3.4899,-3.4787,-3.4739,-3.4851,-3.4804,-3.4739,-3.4851,-3.4899,-3.4899,-3.4899,-3.4899,-3.4899,-3.4899,0.0,-3.4899,-3.4899,-3.4899,-3.4899,-3.4899,-3.4899,-3.4899,-3.4899,-3.4899,-3.4899,-3.4899,-3.4899,-3.4899,-3.4899,-3.4899,-3.4947,-3.5088,-3.5245,-3.5291,-3.5337,-3.5337,-3.5337,-3.5337,-3.5337,-3.5337,-3.5337,-3.5337,-3.5412,-3.5577,-3.552,-3.5566,-3.5639,-3.574,-3.6197,-3.6789,-3.6907,-3.7432,-3.8286,-4.0496,-4.0496,-4.0496,-4.0496,-4.0998,-4.1403,-4.1403,-4.1921,-4.2294,-4.2294,-4.2294,-4.2067,-4.1468,-4.1367,-4.0832,-3.959,-3.9437,-3.9113,-3.844,-3.8391,-3.8391,-3.8391,-3.8391,-3.8391,-3.8391,-3.8391,-3.8391,-3.8391,-3.8391,-3.8391,-3.8391,-3.8278,-3.823,-3.823,-3.8116,-3.7728,-3.7161,-3.7161,-3.6837,-3.6303,-3.6189,-3.6141,-3.606,-3.5351,-3.5059,-3.4926,-3.4378,-3.4101,-3.4101,-3.4101,-3.4101,-3.4101,-3.4101,-3.4101,-3.4101,-3.4151,-3.4151,-3.4201,-3.4448,-3.4594,-3.4739,-3.4851,-3.4899,-3.4899,-3.4899,-3.4899,-3.4851,-3.4739,-3.4787,-3.4851,-3.4756,-3.4835,-3.4899,-3.4899,-3.4899,-3.4899,-3.4899,0.0,-3.4899,-3.4899,-3.4899,-3.4899,-3.4899,-3.4899,-3.4899,-3.4899,-3.4899,-3.4899,-3.4899,-3.4899,-3.4899,-3.4899,-3.4899,-3.4947,-3.5088,-3.5245,-3.5354,-3.5492,-3.5549,-3.5532,-3.5532,-3.5475,-3.552,-3.5532,-3.5475,-3.552,-3.5622,-3.5577,-3.5577,-3.569,-3.6349,-3.6671,-3.6857,-3.7499,-3.8193,-3.8933,-4.1646,-4.1646,-4.1646,-4.1646,-4.1921,-4.2148,-4.2148,-4.2423,-4.2634,-4.2634,-4.2634,-4.2504,-4.218,-4.1808,-4.1322,-4.0658,-3.9914,-3.9347,-3.9007,-3.8618,-3.8391,-3.8391,-3.8391,-3.8391,-3.8391,-3.8391,-3.8391,-3.8391,-3.8391,-3.8391,-3.8391,-3.8391,-3.8391,-3.8391,-3.8391,-3.8213,-3.7906,-3.7906,-3.7711,-3.7404,-3.7015,-3.6853,-3.6772,-3.606,-3.5785,-3.5687,-3.4943,-3.4683,-3.4619,-3.423,-3.4101,-3.4101,-3.4101,-3.4101,-3.4101,-3.4101,-3.4101,-3.4151,-3.4349,-3.4497,-3.4643,-3.4739,-3.4851,-3.4899,-3.4804,-3.4756,-3.4643,-3.4594,-3.4594,-3.4594,-3.4691,-3.4739,-3.4804,-3.4899,-3.4899,0.0,-3.4899,-3.4899,-3.4899,-3.4899,-3.4899,-3.4899,-3.4899,-3.4899,-3.4899,-3.4899,-3.4899,-3.4899,-3.4899,-3.4899,-3.4899,-3.4899,-3.4994,-3.4994,-3.4994,-3.5198,-3.5337,-3.54,-3.5475,-3.5566,-3.5566,-3.5537,-3.5537,-3.5566,-3.5537,-3.552,-3.5656,-3.6079,-3.6248,-3.6315,-3.7094,-3.7635,-3.8024,-3.8362,-3.8954,-3.9662,-4.2285,-4.2349,-4.2429,-4.2571,-4.2429,-4.2349,-4.2349,-4.2349,-4.2349,-4.2349,-4.2492,-4.2634,-4.2634,-4.2148,-4.1759,-4.1581,-4.0432,-3.9654,-3.9493,-3.8796,-3.8391,-3.8391,-3.8391,-3.8391,-3.8391,-3.8391,-3.8391,-3.8391,-3.8391,-3.8391,-3.8391,-3.8391,-3.8391,-3.8391,-3.8391,-3.8391,-3.8391,-3.8391,-3.8391,-3.8359,-3.7792,-3.7566,-3.7501,-3.6805,-3.6546,-3.6448,-3.5704,-3.5445,-3.5364,-3.4797,-3.4505,-3.436,-3.436,-3.423,-3.4101,-3.4101,-3.4101,-3.4151,-3.425,-3.4399,-3.4497,-3.4643,-3.4804,-3.4851,-3.4739,-3.4594,-3.4546,-3.4448,-3.4399,-3.4399,-3.4546,-3.4643,-3.4739,-3.4851,0.0,-3.4899,-3.4899,-3.4899,-3.4899,-3.4899,-3.4899,-3.4899,-3.4899,-3.4899,-3.4899,-3.4899,-3.4899,-3.4899,-3.4899,-3.4899,-3.4899,-3.4899,-3.4994,-3.4994,-3.4899,-3.5152,-3.5291,-3.5245,-3.5446,-3.5492,-3.5492,-3.5492,-3.5492,-3.5537,-3.5723,-3.5819,-3.5943,-3.6721,-3.7043,-3.711,-3.7872,-3.8497,-3.9005,-3.9191,-3.9597,-4.0171,-4.1459,-4.1591,-4.1803,-4.2492,-4.2013,-4.1591,-4.1591,-4.1591,-4.1591,-4.1591,-4.2158,-4.2634,-4.2634,-4.2585,-4.2294,-4.163,-4.0869,-4.014,-3.9525,-3.8796,-3.8391,-3.8391,-3.8391,-3.8391,-3.8391,-3.8391,-3.8391,-3.8391,-3.8391,-3.8391,-3.8391,-3.8391,-3.8391,-3.8391,-3.8391,-3.8391,-3.8391,-3.8391,-3.8391,-3.8391,-3.8343,-3.8327,-3.8246,-3.7517,-3.7242,-3.7161,-3.6465,-3.6222,-3.6222,-3.6157,-3.5671,-3.5104,-3.5104,-3.4635,-3.4101,-3.4101,-3.4101,-3.4151,-3.425,-3.43,-3.4399,-3.4659,-3.4707,-3.4691,-3.4691,-3.4691,-3.4594,-3.4349,-3.4399,-3.4448,-3.4349,-3.4546,-3.4691,-3.4691,0.0,0.0,-3.4899,-3.4899,-3.4899,-3.4899,-3.4899,-3.4899,-3.4899,-3.4899,-3.4899,-3.4899,-3.4899,-3.4899,-3.4899,-3.4899,-3.4899,-3.4899,-3.4899,-3.4899,-3.4899,-3.5152,-3.5245,-3.5105,-3.54,-3.5492,-3.5492,-3.5492,-3.552,-3.5611,-3.6383,-3.6705,-3.6755,-3.7516,-3.7821,-3.7889,-3.8633,-3.8937,-3.9073,-3.9749,-4.002,-4.0171,-4.0758,-4.0842,-4.0909,-4.1178,-4.0961,-4.0842,-4.0842,-4.0842,-4.0977,-4.1459,-4.1738,-4.2077,-4.2555,-4.2634,-4.252,-4.2245,-4.116,-4.0383,-4.0124,-3.9039,-3.8391,-3.8391,-3.8391,-3.8391,-3.8391,-3.8391,-3.8391,-3.8391,-3.8391,-3.8391,-3.8391,-3.8391,-3.8391,-3.8391,-3.8391,-3.8391,-3.8391,-3.8391,-3.8391,-3.8391,-3.8391,-3.8391,-3.8375,-3.81,-3.7987,-3.789,-3.7193,-3.6934,-3.6869,-3.6448,-3.6108,-3.5882,-3.5882,-3.5687,-3.5364,-3.491,-3.4457,-3.4101,-3.4151,-3.43,-3.4448,-3.4448,-3.4594,-3.4659,-3.4497,-3.4448,-3.4399,-3.4201,-3.4201,-3.43,-3.4399,-3.4497,-3.4643,-3.4804,0.0,-3.4899,-3.4899,-3.4899,-3.4899,-3.4899,-3.4899,-3.4899,-3.4899,-3.4899,-3.4899,-3.4899,-3.4899,-3.4899,-3.4899,-3.4899,-3.4899,-3.4899,-3.4899,-3.4899,-3.4899,-3.4994,-3.5041,-3.5088,-3.5198,-3.5337,-3.5508,-3.5963,-3.6257,-3.6383,-3.7144,-3.7483,-3.7533,-3.8278,-3.8582,-3.865,-3.9377,-3.9665,-3.9698,-3.9969,-4.007,-4.0121,-3.9999,-4.0069,-4.0139,-4.0347,-4.0209,-4.0069,-4.0069,-4.0069,-4.0347,-4.1044,-4.1393,-4.1803,-4.2492,-4.2634,-4.2634,-4.2634,-4.1322,-4.0496,-4.0496,-3.9169,-3.8391,-3.8391,-3.8391,-3.8391,-3.8391,-3.8391,-3.8391,-3.8391,-3.8391,-3.8391,-3.8391,-3.8391,-3.8391,-3.8391,-3.8391,-3.8391,-3.8391,-3.8391,-3.8391,-3.8391,-3.8391,-3.8391,-3.8391,-3.8391,-3.8391,-3.8327,-3.7841,-3.7663,-3.7598,-3.7112,-3.6821,-3.6627,-3.6627,-3.6481,-3.6206,-3.5687,-3.5185,-3.4797,-3.4797,-3.4771,-3.4676,-3.4398,-3.4448,-3.4546,-3.4349,-3.43,-3.425,-3.4151,-3.4101,-3.4151,-3.4399,-3.4448,-3.4546,-3.4804,-3.4899,-3.4899,-3.4899,-3.4899,-3.4899,-3.4899,-3.4899,-3.4899,-3.4899,-3.4899,-3.4899,-3.4899,-3.4899,-3.4899,-3.4899,-3.4899,-3.4899,-3.4899,-3.4899,-3.5015,-3.5247,-3.5063,-3.511,-3.539,-3.5454,-3.5666,-3.6058,-3.6656,-3.6969,-3.7131,-3.7922,-3.8261,-3.8311,-3.9039,-3.9343,-3.9394,-3.9884,-4.007,-4.007,-4.007,-4.007,-4.007,-3.9175,-3.9305,-3.952,-4.0278,-3.9788,-3.9305,-3.9305,-3.9305,-3.9591,-4.0278,-4.1028,-4.1803,-4.2492,-4.2571,-4.2571,-4.2571,-4.1322,-4.048,-4.048,-3.9169,-3.8391,-3.8391,-3.8391,-3.8391,-3.8391,-3.8391,-3.8391,-3.8391,-3.8391,-3.8391,-3.8391,-3.8391,-3.8391,-3.8391,-3.8391,-3.8391,-3.8391,-3.8391,-3.8391,-3.8391,-3.8391,-3.8391,-3.8391,-3.8391,-3.8391,-3.8391,-3.8391,-3.8391,-3.8391,-3.8391,-3.7922,-3.7323,-3.7323,-3.6853,-3.6319,-3.6319,-3.6303,-3.6303,-3.6303,-3.5857,-3.5228,-3.4495,-3.43,-3.43,-3.43,-3.43,-3.425,-3.4151,-3.4101,-3.4151,-3.43,-3.4399,-3.4546,-3.4691,-3.4787,-3.4899,-3.4899,-3.4899,-3.4899,-3.4899,-3.4899,-3.4899,-3.4899,-3.4899,-3.4899,-3.4899,-3.4899,-3.4899,-3.4899,-3.4899,-3.4916,-3.4916,-3.4916,-3.5263,-3.6009,-3.5424,-3.5424,-3.6009,-3.6155,-3.6603,-3.732,-3.7452,-3.7599,-3.7747,-3.8635,-3.9005,-3.9056,-3.9783,-4.007,-4.007,-4.007,-4.007,-4.007,-4.007,-4.007,-4.007,-3.8472,-3.8546,-3.862,-3.8826,-3.8694,-3.8546,-3.8546,-3.8546,-3.8752,-3.952,-4.0278,-4.0826,-4.1044,-4.1525,-4.1591,-4.1111,-3.9778,-3.8842,-3.8336,-3.8126,-3.8148,-3.8391,-3.8391,-3.8391,-3.8391,-3.8148,-3.8132,-3.8391,-3.8132,-3.8148,-3.8391,-3.8391,-3.8391,-3.8391,-3.8391,-3.8391,-3.8391,-3.8391,-3.8391,-3.8391,-3.8391,-3.8391,-3.8391,-3.8391,-3.8391,-3.8391,-3.8391,-3.8391,-3.8391,-3.8391,-3.8262,-3.8068,-3.8068,-3.7598,-3.7015,-3.7015,-3.6675,-3.6303,-3.6303,-3.6141,-3.5837,-3.5091,-3.4624,-3.43,-3.4201,-3.4151,-3.4151,-3.4101,-3.4101,-3.4151,-3.43,-3.4399,-3.4546,-3.4691,-3.4787,-3.4899,-3.4899,-3.4899,-3.4899,-3.4899,-3.4899,-3.4899,-3.4899,-3.4899,-3.4899,-3.4899,-3.4899,-3.4899,-3.4899,-3.5396,-3.5678,-3.5678,-3.6174,-3.6555,-3.6771,-3.6091,-3.6091,-3.6771,-3.6821,-3.7037,-3.7468,-3.8037,-3.8421,-3.8652,-3.9428,-3.9749,-3.9766,-3.9986,-4.007,-4.007,-4.007,-4.007,-4.007,-4.007,-4.007,-4.007,-3.8202,-3.8202,-3.8202,-3.8202,-3.8202,-3.8202,-3.8202,-3.8202,-3.8472,-3.9175,-3.9662,-4.0069,-4.0347,-4.0826,-4.0909,-4.0416,-3.9318,-3.8293,-3.7614,-3.7637,-3.777,-3.8033,-3.8017,-3.8091,-3.8205,-3.8001,-3.8001,-3.8205,-3.8001,-3.8075,-3.8391,-3.8391,-3.8391,-3.8391,-3.8391,-3.8391,-3.8391,-3.8391,-3.8391,-3.8391,-3.8391,-3.8391,-3.8391,-3.8391,-3.8391,-3.8391,-3.8391,-3.8391,-3.8391,-3.8391,-3.8391,-3.8391,-3.8391,-3.81,-3.7744,-3.7744,-3.7452,-3.7128,-3.7128,-3.6738,-3.6236,-3.6088,-3.5545,-3.5078,-3.4975,-3.4975,-3.4894,-3.4586,-3.4538,-3.4491,-3.4349,-3.4349,-3.4497,-3.4643,-3.4756,-3.4851,-3.4899,-3.4899,-3.4899,-3.4899,-3.4899,-3.4899,-3.4899,-3.5164,-3.5462,-3.5744,-3.5777,-3.5777,-3.5777,-3.6191,-3.6439,-3.6439,-3.687,-3.7251,-3.7549,-3.7102,-3.7102,-3.7549,-3.7549,-3.7784,-3.822,-3.8721,-3.9076,-3.9295,-3.9784,-4.0037,-4.007,-4.007,-4.007,-4.007,-4.007,-4.007,-4.007,-4.007,-4.007,-4.007,-3.8202,-3.8202,-3.8202,-3.8202,-3.8202,-3.8202,-3.8202,-3.8202,-3.8412,-3.9103,-3.9247,-3.952,-4.0139,-4.0278,-4.0278,-4.0209,-3.9318,-3.8419,-3.7716,-3.7401,-3.7222,-3.7342,-3.7342,-3.746,-3.7754,-3.7812,-3.7886,-3.7886,-3.7886,-3.8075,-3.8391,-3.8391,-3.8391,-3.8391,-3.8391,-3.8391,-3.8391,-3.8391,-3.8391,-3.8391,-3.8391,-3.8391,-3.8391,-3.8391,-3.8391,-3.8391,-3.8335,-3.8335,-3.8391,-3.8391,-3.8391,-3.8391,-3.8391,-3.8391,-3.8391,-3.8391,-3.8391,-3.8408,-3.8335,-3.7348,-3.6537,-3.7094,-3.677,-3.6287,-3.6282,-3.6303,-3.6108,-3.5428,-3.5283,-3.5124,-3.4576,-3.4495,-3.4595,-3.484,-3.4889,-3.4937,-3.5098,-3.5098,-3.5098,-3.5098,-3.5098,-3.5098,-3.5098,-3.5694,-3.639,-3.7052,-3.7102,-3.7102,-3.7102,-3.7168,-3.7201,-3.7201,-3.7268,-3.7632,-3.8295,-3.8311,-3.8311,-3.8311,-3.8311,-3.8642,-3.9325,-3.9432,-3.959,-3.9729,-3.9833,-3.9986,-4.007,-4.007,-4.007,-4.007,-4.007,-4.007,-4.007,-4.007,-4.007,-4.007,-3.8202,-3.8202,-3.8202,-3.8202,-3.8202,-3.8202,-3.8202,-3.8202,-3.8277,-3.8412,-3.8972,-3.9175,-3.8694,-3.9175,-3.932,-3.8767,-3.7883,-3.7029,-3.6148,-3.5946,-3.6134,-3.6753,-3.6737,-3.6814,-3.6859,-3.7266,-3.7535,-3.7535,-3.777,-3.8075,-3.8391,-3.8391,-3.8391,-3.8391,-3.8391,-3.8391,-3.8391,-3.8391,-3.8391,-3.8391,-3.8391,-3.8391,-3.8391,-3.8391,-3.8391,-3.8335,-3.7786,-3.796,-3.8391,-3.8391,-3.8391,-3.8391,-3.8391,-3.8391,-3.8391,-3.8391,-3.8391,-3.8278,-3.7786,-3.7408,-3.7046,-3.6656,-3.6487,-3.635,-3.6313,-3.6303,-3.6254,-3.6092,-3.606,-3.6011,-3.5918,-3.6026,-3.6217,-3.6268,-3.6421,-3.6572,-3.6622,-3.6622,-3.6622,-3.6622,-3.6622,-3.6622,-3.6622,-3.6771,-3.6936,-3.7102,-3.7102,-3.7102,-3.7102,-3.7665,-3.798,-3.798,-3.851,-3.8891,-3.904,-3.904,-3.904,-3.904,-3.904,-3.9282,-3.9625,-3.9625,-3.9781,-4.002,-4.0037,-4.007,-4.007,-4.007,-4.007,-4.007,-4.007,-4.007,-4.007,-4.007,-4.007,-4.007,-3.8202,-3.8202,-3.8202,-3.8202,-3.8202,-3.8202,-3.8202,-3.8202,-3.8202,-3.8202,-3.8546,-3.862,-3.8277,-3.8546,-3.8429,-3.7666,-3.677,-3.5976,-3.5509,-3.527,-3.532,-3.574,-3.5804,-3.5676,-3.5578,-3.6415,-3.7103,-3.7653,-3.7828,-3.8075,-3.8391,-3.8391,-3.8221,-3.796,-3.8278,-3.8205,-3.796,-3.8278,-3.8391,-3.8391,-3.8391,-3.8391,-3.8391,-3.8391,-3.8221,-3.7902,-3.7535,-3.761,-3.7902,-3.7902,-3.8148,-3.8391,-3.8391,-3.8391,-3.8335,-3.8033,-3.7902,-3.7786,-3.7087,-3.6723,-3.6461,-3.6384,-3.6384,-3.6445,-3.6746,-3.683,-3.679,-3.6799,-3.6788,-3.6691,-3.6367,-3.6499,-3.664,-3.6692,-3.6898,-3.7001,-3.7102,-3.7102,-3.7102,-3.7102,-3.7102,-3.7251,-3.7599,-3.7632,-3.7781,-3.8112,-3.8146,-3.8146,-3.8146,-3.851,-3.8725,-3.8725,-3.9073,-3.9272,-3.9272,-3.9272,-3.9272,-3.9272,-3.9272,-3.9379,-3.952,-3.952,-3.9677,-3.9918,-3.9918,-3.9969,-4.007,-4.007,-4.007,-4.007,-4.007,-4.007,-4.007,-4.007,-4.007,-4.007,-3.8202,-3.8202,-3.8202,-3.8202,-3.8202,-3.8202,-3.8202,-3.8202,-3.8202,-3.8202,-3.8202,-3.8127,-3.8127,-3.804,-3.7579,-3.6663,-3.5729,-3.5175,-3.5184,-3.481,-3.4691,-3.4743,-3.481,-3.4758,-3.4639,-3.5737,-3.6677,-3.7504,-3.7695,-3.796,-3.8221,-3.8148,-3.777,-3.7282,-3.7828,-3.777,-3.7282,-3.796,-3.8221,-3.8221,-3.8221,-3.8205,-3.8148,-3.8148,-3.777,-3.7222,-3.7103,-3.7042,-3.7087,-3.7342,-3.7711,-3.8091,-3.8205,-3.8148,-3.796,-3.7401,-3.7222,-3.7087,-3.6384,-3.5834,-3.5529,-3.5961,-3.6072,-3.6259,-3.7027,-3.7417,-3.7552,-3.7319,-3.7318,-3.7141,-3.6483,-3.6464,-3.6664,-3.6878,-3.7036,-3.7192,-3.7415,-3.7483,-3.7483,-3.7483,-3.7483,-3.7731,-3.8328,-3.8394,-3.8642,-3.9222,-3.9272,-3.9272,-3.9272,-3.9272,-3.9272,-3.9272,-3.9272,-3.9272,-3.9272,-3.9272,-3.9272,-3.9272,-3.9272,-3.9325,-3.9325,-3.9325,-3.9484,-3.9729,-3.9729,-3.9884,-4.007,-4.007,-4.007,-4.007,-4.007,-4.007,-4.007,-4.007,-4.007,-4.007,-3.8202,-3.8202,-3.8202,-3.8202,-3.8202,-3.8202,-3.8202,-3.8202,-3.8202,-3.8202,-3.8066,-3.7929,-3.7929,-3.729,-3.637,-3.4996,-3.474,-3.4482,-3.4317,-3.377,-3.3701,-3.4206,-3.4476,-3.4963,-3.5567,-3.6229,-3.6306,-3.5946,-3.6966,-3.7476,-3.7535,-3.7071,-3.6814,-3.6737,-3.6798,-3.6798,-3.6737,-3.7282,-3.7535,-3.7535,-3.7535,-3.7342,-3.7087,-3.7087,-3.689,-3.6446,-3.5897,-3.5642,-3.5834,-3.7042,-3.7087,-3.6753,-3.7342,-3.7147,-3.6631,-3.6569,-3.6508,-3.6384,-3.5706,-3.5464,-3.527,-3.4787,-3.4654,-3.4971,-3.6259,-3.746,-3.8132,-3.7541,-3.7393,-3.7243,-3.6732,-3.6761,-3.7101,-3.781,-3.8019,-3.8313,-3.892,-3.8974,-3.8974,-3.8974,-3.8974,-3.9023,-3.9123,-3.9123,-3.9172,-3.9272,-3.9272,-3.9272,-3.9272,-3.9272,-3.9272,-3.9272,-3.9272,-3.9272,-3.9272,-3.9272,-3.9272,-3.9272,-3.9272,-3.9379,-3.9501,-3.9501,-3.9642,-3.9901,-3.9901,-3.9935,-4.007,-4.007,-4.007,-4.007,-4.007,-4.007,-4.007,-4.007,-4.007,-4.007,-3.7143,-3.7143,-3.7259,-3.7636,-3.7709,-3.781,-3.8144,-3.8202,-3.8011,-3.7589,-3.7471,-3.7207,-3.6773,-3.6011,-3.5238,-3.474,-3.4172,-3.379,-3.366,-3.3452,-3.3382,-3.3632,-3.3756,-3.4016,-3.438,-3.4963,-3.5029,-3.4795,-3.6244,-3.6935,-3.6951,-3.64,-3.5963,-3.5691,-3.6026,-3.6089,-3.6056,-3.6692,-3.6935,-3.6935,-3.6935,-3.6676,-3.6291,-3.6291,-3.6041,-3.5627,-3.5023,-3.5088,-3.5464,-3.6087,-3.6337,-3.6446,-3.6768,-3.6631,-3.6322,-3.5946,-3.5834,-3.5706,-3.5023,-3.4839,-3.4787,-3.4467,-3.4654,-3.5088,-3.5706,-3.6585,-3.7326,-3.7401,-3.7087,-3.6829,-3.6723,-3.6784,-3.7011,-3.7488,-3.7953,-3.8407,-3.8717,-3.8717,-3.8606,-3.8254,-3.8551,-3.8606,-3.8254,-3.8535,-3.8717,-3.8717,-3.8717,-3.8898,-3.9272,-3.9272,-3.9272,-3.9272,-3.9272,-3.9272,-3.9272,-3.9272,-3.9272,-3.9272,-3.9272,-3.9325,-3.9395,-3.9395,-3.9484,-3.9694,-3.9746,-3.9833,-3.9986,-4.0087,-4.007,-4.007,-4.007,-4.007,-4.007,-4.007,-4.007,-4.007]}]]